<?xml version='1.0' encoding='UTF-8'?><gpx version="1.1" creator="JPX - https://github.com/jenetics/jpx" xmlns="http://www.topografix.com/GPX/1/1"><trk><trkseg><trkpt lat="50.79579688098815" lon="3.774089480109001"><ele>62.00000000000001</ele><time>2026-05-03T10:46:29.999Z</time></trkpt><trkpt lat="50.7958856848868" lon="3.774112232254869"><ele>62.0</ele><time>2026-05-03T10:46:32.999Z</time></trkpt><trkpt lat="50.795932503647514" lon="3.7742004433696046"><ele>62.0</ele><time>2026-05-03T10:46:34.999Z</time></trkpt><trkpt lat="50.795989519615446" lon="3.7743433084319937"><ele>62.0</ele><time>2026-05-03T10:46:39.999Z</time></trkpt><trkpt lat="50.79602926644775" lon="3.7744240324063516"><ele>62.00000000000001</ele><time>2026-05-03T10:46:40.999Z</time></trkpt><trkpt lat="50.796077883553885" lon="3.7745141490995087"><ele>62.0</ele><time>2026-05-03T10:46:41.999Z</time></trkpt><trkpt lat="50.7961052585276" lon="3.7746498597645575"><ele>61.333333333333336</ele><time>2026-05-03T10:46:42.999Z</time></trkpt><trkpt lat="50.79616350396381" lon="3.774762354040903"><ele>60.66666666666667</ele><time>2026-05-03T10:46:43.999Z</time></trkpt><trkpt lat="50.796216270158446" lon="3.7748476185948743"><ele>60.0</ele><time>2026-05-03T10:46:44.999Z</time></trkpt><trkpt lat="50.796261573943255" lon="3.7749281927675096"><ele>59.33333333333333</ele><time>2026-05-03T10:46:45.999Z</time></trkpt><trkpt lat="50.7963371769813" lon="3.7750546291195533"><ele>58.666666666666664</ele><time>2026-05-03T10:46:47.999Z</time></trkpt><trkpt lat="50.79638665085538" lon="3.7751687335945787"><ele>58.0</ele><time>2026-05-03T10:46:50.999Z</time></trkpt><trkpt lat="50.796499176194914" lon="3.775145694223672"><ele>58.0</ele><time>2026-05-03T10:46:52.999Z</time></trkpt><trkpt lat="50.796601878656524" lon="3.7750324569992038"><ele>58.0</ele><time>2026-05-03T10:46:54.999Z</time></trkpt><trkpt lat="50.79666823506239" lon="3.7749792972808907"><ele>58.0</ele><time>2026-05-03T10:46:55.999Z</time></trkpt><trkpt lat="50.79674046357151" lon="3.774912153863283"><ele>58.0</ele><time>2026-05-03T10:46:56.999Z</time></trkpt><trkpt lat="50.796816096245706" lon="3.7748216606953275"><ele>58.0</ele><time>2026-05-03T10:46:57.999Z</time></trkpt><trkpt lat="50.7968855415987" lon="3.77473051638091"><ele>58.0</ele><time>2026-05-03T10:46:58.999Z</time></trkpt><trkpt lat="50.7969620326681" lon="3.7746559499013834"><ele>58.0</ele><time>2026-05-03T10:46:59.999Z</time></trkpt><trkpt lat="50.79702819599444" lon="3.7745612378662026"><ele>58.0</ele><time>2026-05-03T10:47:00.999Z</time></trkpt><trkpt lat="50.797099588842386" lon="3.774459039800713"><ele>58.0</ele><time>2026-05-03T10:47:01.999Z</time></trkpt><trkpt lat="50.797174932081056" lon="3.7743544041204564"><ele>58.0</ele><time>2026-05-03T10:47:02.999Z</time></trkpt><trkpt lat="50.797260470210006" lon="3.7742406690510437"><ele>58.4</ele><time>2026-05-03T10:47:03.999Z</time></trkpt><trkpt lat="50.79735046973392" lon="3.774121414598816"><ele>58.8</ele><time>2026-05-03T10:47:04.999Z</time></trkpt><trkpt lat="50.79743264254243" lon="3.7740174788880876"><ele>59.2</ele><time>2026-05-03T10:47:05.999Z</time></trkpt><trkpt lat="50.79750968244772" lon="3.7739288305590124"><ele>59.6</ele><time>2026-05-03T10:47:06.999Z</time></trkpt><trkpt lat="50.797581039886" lon="3.773851924916826"><ele>60.0</ele><time>2026-05-03T10:47:07.999Z</time></trkpt><trkpt lat="50.79765304415882" lon="3.7737788003991874"><ele>60.0</ele><time>2026-05-03T10:47:08.999Z</time></trkpt><trkpt lat="50.79771348380296" lon="3.7737062322253423"><ele>60.0</ele><time>2026-05-03T10:47:09.999Z</time></trkpt><trkpt lat="50.79781182451589" lon="3.7736388219659207"><ele>60.0</ele><time>2026-05-03T10:47:11.999Z</time></trkpt><trkpt lat="50.79788084185172" lon="3.773591937593778"><ele>60.0</ele><time>2026-05-03T10:47:15.999Z</time></trkpt><trkpt lat="50.79791273379987" lon="3.7734471746180285"><ele>60.0</ele><time>2026-05-03T10:47:18.999Z</time></trkpt><trkpt lat="50.797872396762294" lon="3.7732751412412493"><ele>60.0</ele><time>2026-05-03T10:47:20.999Z</time></trkpt><trkpt lat="50.79786026623789" lon="3.773164612356766"><ele>60.0</ele><time>2026-05-03T10:47:21.999Z</time></trkpt><trkpt lat="50.79783294386783" lon="3.7730515227581387"><ele>60.0</ele><time>2026-05-03T10:47:22.999Z</time></trkpt><trkpt lat="50.79780165332218" lon="3.772923284057649"><ele>60.0</ele><time>2026-05-03T10:47:23.999Z</time></trkpt><trkpt lat="50.797767051282236" lon="3.772789093916793"><ele>60.0</ele><time>2026-05-03T10:47:24.999Z</time></trkpt><trkpt lat="50.79773412028291" lon="3.7726618502636753"><ele>60.0</ele><time>2026-05-03T10:47:25.999Z</time></trkpt><trkpt lat="50.79770081763767" lon="3.7725337023154704"><ele>61.0</ele><time>2026-05-03T10:47:26.999Z</time></trkpt><trkpt lat="50.79766429303039" lon="3.77239547858036"><ele>62.0</ele><time>2026-05-03T10:47:27.999Z</time></trkpt><trkpt lat="50.79762450116086" lon="3.7722448901885115"><ele>63.0</ele><time>2026-05-03T10:47:28.999Z</time></trkpt><trkpt lat="50.79758210343385" lon="3.7720844402061906"><ele>64.0</ele><time>2026-05-03T10:47:29.999Z</time></trkpt><trkpt lat="50.79753859682945" lon="3.771920094291336"><ele>65.0</ele><time>2026-05-03T10:47:30.999Z</time></trkpt><trkpt lat="50.79749278501313" lon="3.7717483744383644"><ele>65.33333333333334</ele><time>2026-05-03T10:47:31.999Z</time></trkpt><trkpt lat="50.79745102966787" lon="3.771591859731529"><ele>65.66666666666667</ele><time>2026-05-03T10:47:32.999Z</time></trkpt><trkpt lat="50.79739993919089" lon="3.771460620013095"><ele>66.0</ele><time>2026-05-03T10:47:33.999Z</time></trkpt><trkpt lat="50.79736974038367" lon="3.771348167605433"><ele>66.33333333333333</ele><time>2026-05-03T10:47:34.999Z</time></trkpt><trkpt lat="50.79734197618724" lon="3.7712526712245302"><ele>66.66666666666666</ele><time>2026-05-03T10:47:35.999Z</time></trkpt><trkpt lat="50.797299809703354" lon="3.7711236341663743"><ele>67.0</ele><time>2026-05-03T10:47:37.999Z</time></trkpt><trkpt lat="50.79726947468712" lon="3.771009306059412"><ele>67.0</ele><time>2026-05-03T10:47:41.999Z</time></trkpt><trkpt lat="50.79733025076611" lon="3.7708482419072817"><ele>67.0</ele><time>2026-05-03T10:47:44.999Z</time></trkpt><trkpt lat="50.7973861828811" lon="3.7707866627169184"><ele>67.0</ele><time>2026-05-03T10:47:45.999Z</time></trkpt><trkpt lat="50.7974506918793" lon="3.770702362325281"><ele>67.0</ele><time>2026-05-03T10:47:46.998Z</time></trkpt><trkpt lat="50.79751548900363" lon="3.770606274515805"><ele>67.0</ele><time>2026-05-03T10:47:47.998Z</time></trkpt><trkpt lat="50.797586651326704" lon="3.7704951028083533"><ele>64.75</ele><time>2026-05-03T10:47:48.998Z</time></trkpt><trkpt lat="50.79767864075775" lon="3.770399407213695"><ele>62.5</ele><time>2026-05-03T10:47:49.998Z</time></trkpt><trkpt lat="50.797763573388245" lon="3.7702813171400025"><ele>60.25</ele><time>2026-05-03T10:47:50.998Z</time></trkpt><trkpt lat="50.797854616917846" lon="3.7701370608660247"><ele>58.0</ele><time>2026-05-03T10:47:51.998Z</time></trkpt><trkpt lat="50.79793858848821" lon="3.7699940928842453"><ele>57.5</ele><time>2026-05-03T10:47:52.998Z</time></trkpt><trkpt lat="50.79801424962201" lon="3.7698351858010697"><ele>57.0</ele><time>2026-05-03T10:47:53.998Z</time></trkpt><trkpt lat="50.79809542840047" lon="3.769690615421612"><ele>56.5</ele><time>2026-05-03T10:47:54.998Z</time></trkpt><trkpt lat="50.798179604980675" lon="3.76954938991401"><ele>56.0</ele><time>2026-05-03T10:47:55.998Z</time></trkpt><trkpt lat="50.79826046119024" lon="3.769413873460253"><ele>55.5</ele><time>2026-05-03T10:47:56.998Z</time></trkpt><trkpt lat="50.79833859443789" lon="3.76927845191069"><ele>55.0</ele><time>2026-05-03T10:47:57.998Z</time></trkpt><trkpt lat="50.79841991159008" lon="3.7691520769990956"><ele>54.5</ele><time>2026-05-03T10:47:58.998Z</time></trkpt><trkpt lat="50.79850117998102" lon="3.769031146079994"><ele>54.0</ele><time>2026-05-03T10:47:59.998Z</time></trkpt><trkpt lat="50.79859108487166" lon="3.7689095326085535"><ele>52.5</ele><time>2026-05-03T10:48:00.998Z</time></trkpt><trkpt lat="50.7986825058023" lon="3.768797186337422"><ele>51.0</ele><time>2026-05-03T10:48:01.998Z</time></trkpt><trkpt lat="50.798784192149874" lon="3.7687104492326537"><ele>49.5</ele><time>2026-05-03T10:48:02.998Z</time></trkpt><trkpt lat="50.79888017977951" lon="3.7686028551142945"><ele>48.0</ele><time>2026-05-03T10:48:03.998Z</time></trkpt><trkpt lat="50.798978646278755" lon="3.7684924824090222"><ele>47.75</ele><time>2026-05-03T10:48:04.998Z</time></trkpt><trkpt lat="50.79907651961908" lon="3.7683836181613106"><ele>47.5</ele><time>2026-05-03T10:48:05.998Z</time></trkpt><trkpt lat="50.799170616027205" lon="3.768279352486218"><ele>47.25</ele><time>2026-05-03T10:48:06.998Z</time></trkpt><trkpt lat="50.799264191523704" lon="3.7681743193268953"><ele>47.0</ele><time>2026-05-03T10:48:07.998Z</time></trkpt><trkpt lat="50.799352917974176" lon="3.768068259302279"><ele>46.0</ele><time>2026-05-03T10:48:08.998Z</time></trkpt><trkpt lat="50.79944062865305" lon="3.7679549495378333"><ele>45.0</ele><time>2026-05-03T10:48:09.998Z</time></trkpt><trkpt lat="50.79952851301671" lon="3.7678334897705734"><ele>44.0</ele><time>2026-05-03T10:48:10.998Z</time></trkpt><trkpt lat="50.79960731747349" lon="3.76771354686089"><ele>43.0</ele><time>2026-05-03T10:48:11.998Z</time></trkpt><trkpt lat="50.79968484851629" lon="3.767578388733646"><ele>42.66666666666667</ele><time>2026-05-03T10:48:12.998Z</time></trkpt><trkpt lat="50.79975002625274" lon="3.7674489105977065"><ele>42.333333333333336</ele><time>2026-05-03T10:48:13.998Z</time></trkpt><trkpt lat="50.79981909483589" lon="3.7673273748662015"><ele>42.0</ele><time>2026-05-03T10:48:14.998Z</time></trkpt><trkpt lat="50.799880922477726" lon="3.767218825733398"><ele>41.666666666666664</ele><time>2026-05-03T10:48:15.998Z</time></trkpt><trkpt lat="50.799927667202915" lon="3.767119890740061"><ele>41.33333333333333</ele><time>2026-05-03T10:48:16.998Z</time></trkpt><trkpt lat="50.79996954696221" lon="3.7670449563383612"><ele>41.0</ele><time>2026-05-03T10:48:17.998Z</time></trkpt><trkpt lat="50.800047031646315" lon="3.7669749580664895"><ele>41.0</ele><time>2026-05-03T10:48:19.998Z</time></trkpt><trkpt lat="50.8001073255207" lon="3.7670769436087235"><ele>41.0</ele><time>2026-05-03T10:48:21.998Z</time></trkpt><trkpt lat="50.80020138115919" lon="3.7672313343402046"><ele>41.0</ele><time>2026-05-03T10:48:23.998Z</time></trkpt><trkpt lat="50.80026432326821" lon="3.767336754423462"><ele>41.0</ele><time>2026-05-03T10:48:24.998Z</time></trkpt><trkpt lat="50.80033378397974" lon="3.76745679865456"><ele>41.0</ele><time>2026-05-03T10:48:25.998Z</time></trkpt><trkpt lat="50.80040643839223" lon="3.7675871188279557"><ele>40.75</ele><time>2026-05-03T10:48:26.998Z</time></trkpt><trkpt lat="50.800491013591014" lon="3.767737890433866"><ele>40.5</ele><time>2026-05-03T10:48:27.998Z</time></trkpt><trkpt lat="50.80057654033508" lon="3.7678850537817072"><ele>40.25</ele><time>2026-05-03T10:48:28.998Z</time></trkpt><trkpt lat="50.80067437865519" lon="3.7680113194012024"><ele>40.0</ele><time>2026-05-03T10:48:29.998Z</time></trkpt><trkpt lat="50.80076127257384" lon="3.768153858805113"><ele>40.0</ele><time>2026-05-03T10:48:30.998Z</time></trkpt><trkpt lat="50.80082801989615" lon="3.7683027863737895"><ele>40.0</ele><time>2026-05-03T10:48:32Z</time></trkpt><trkpt lat="50.800904994303586" lon="3.7684311665816517"><ele>40.0</ele><time>2026-05-03T10:48:33Z</time></trkpt><trkpt lat="50.80098261093306" lon="3.7685446013095945"><ele>40.0</ele><time>2026-05-03T10:48:34Z</time></trkpt><trkpt lat="50.80105505019033" lon="3.768675188925749"><ele>40.0</ele><time>2026-05-03T10:48:35Z</time></trkpt><trkpt lat="50.801101558786335" lon="3.768838670789946"><ele>39.5</ele><time>2026-05-03T10:48:36Z</time></trkpt><trkpt lat="50.801150839213264" lon="3.76899691012988"><ele>39.0</ele><time>2026-05-03T10:48:37Z</time></trkpt><trkpt lat="50.80120062028493" lon="3.769157328074585"><ele>38.5</ele><time>2026-05-03T10:48:38Z</time></trkpt><trkpt lat="50.80125385554026" lon="3.7693199648152813"><ele>38.0</ele><time>2026-05-03T10:48:39Z</time></trkpt><trkpt lat="50.80131121760597" lon="3.769491799414228"><ele>38.0</ele><time>2026-05-03T10:48:40Z</time></trkpt><trkpt lat="50.801371048587136" lon="3.769660531447731"><ele>38.0</ele><time>2026-05-03T10:48:41Z</time></trkpt><trkpt lat="50.80142769146535" lon="3.769818491687678"><ele>38.0</ele><time>2026-05-03T10:48:42Z</time></trkpt><trkpt lat="50.801476484666836" lon="3.7699544171768777"><ele>38.0</ele><time>2026-05-03T10:48:43Z</time></trkpt><trkpt lat="50.801519154136706" lon="3.7700749363891815"><ele>38.0</ele><time>2026-05-03T10:48:44Z</time></trkpt><trkpt lat="50.80153492279092" lon="3.7701878912430344"><ele>38.199999999999996</ele><time>2026-05-03T10:48:45Z</time></trkpt><trkpt lat="50.80158804694662" lon="3.770315084694431"><ele>38.4</ele><time>2026-05-03T10:48:47Z</time></trkpt><trkpt lat="50.801601873216136" lon="3.770423962605596"><ele>38.599999999999994</ele><time>2026-05-03T10:48:51Z</time></trkpt><trkpt lat="50.80174768048867" lon="3.770378189266534"><ele>38.8</ele><time>2026-05-03T10:48:54Z</time></trkpt><trkpt lat="50.80182556633153" lon="3.7703385252352883"><ele>39.0</ele><time>2026-05-03T10:48:55Z</time></trkpt><trkpt lat="50.80191863158792" lon="3.770308979470011"><ele>38.6</ele><time>2026-05-03T10:48:56Z</time></trkpt><trkpt lat="50.80201160722574" lon="3.7703025433647905"><ele>38.2</ele><time>2026-05-03T10:48:57Z</time></trkpt><trkpt lat="50.80210142912189" lon="3.7702683542207542"><ele>37.800000000000004</ele><time>2026-05-03T10:48:58Z</time></trkpt><trkpt lat="50.8021822610735" lon="3.7701848533535824"><ele>37.4</ele><time>2026-05-03T10:48:59Z</time></trkpt><trkpt lat="50.8022751098307" lon="3.7701450721420584"><ele>37.0</ele><time>2026-05-03T10:49:00Z</time></trkpt><trkpt lat="50.80235503049085" lon="3.770087680181309"><ele>37.0</ele><time>2026-05-03T10:49:01Z</time></trkpt><trkpt lat="50.80242918862035" lon="3.7700311371513"><ele>37.0</ele><time>2026-05-03T10:49:01.999Z</time></trkpt><trkpt lat="50.80249846931077" lon="3.7699396150092834"><ele>37.0</ele><time>2026-05-03T10:49:02.999Z</time></trkpt><trkpt lat="50.802547289928285" lon="3.7698379627423275"><ele>37.0</ele><time>2026-05-03T10:49:03.999Z</time></trkpt><trkpt lat="50.80259135936609" lon="3.769751915149298"><ele>37.0</ele><time>2026-05-03T10:49:04.999Z</time></trkpt><trkpt lat="50.802633086599606" lon="3.7696724462394817"><ele>37.0</ele><time>2026-05-03T10:49:05.999Z</time></trkpt><trkpt lat="50.80270110734792" lon="3.769544217699366"><ele>36.6</ele><time>2026-05-03T10:49:07.999Z</time></trkpt><trkpt lat="50.802754145110185" lon="3.7694477887633018"><ele>36.2</ele><time>2026-05-03T10:49:09.999Z</time></trkpt><trkpt lat="50.802811146415905" lon="3.7693475156785667"><ele>35.8</ele><time>2026-05-03T10:49:13.999Z</time></trkpt><trkpt lat="50.80285371226494" lon="3.7692729656845656"><ele>35.4</ele><time>2026-05-03T10:49:15.999Z</time></trkpt><trkpt lat="50.80278004759534" lon="3.769127165590356"><ele>35.0</ele><time>2026-05-03T10:49:16.999Z</time></trkpt><trkpt lat="50.802679625610736" lon="3.7690084390634526"><ele>35.2</ele><time>2026-05-03T10:49:18.999Z</time></trkpt><trkpt lat="50.802603220149436" lon="3.7689420093363113"><ele>35.4</ele><time>2026-05-03T10:49:19.999Z</time></trkpt><trkpt lat="50.802510938507055" lon="3.768864424655901"><ele>35.6</ele><time>2026-05-03T10:49:20.999Z</time></trkpt><trkpt lat="50.80242128859172" lon="3.768789756613988"><ele>35.8</ele><time>2026-05-03T10:49:21.999Z</time></trkpt><trkpt lat="50.802328160847274" lon="3.7687062328879053"><ele>36.0</ele><time>2026-05-03T10:49:22.999Z</time></trkpt><trkpt lat="50.80223360092056" lon="3.7686151785984974"><ele>35.75</ele><time>2026-05-03T10:49:23.999Z</time></trkpt><trkpt lat="50.80213699099148" lon="3.7685211969296577"><ele>35.5</ele><time>2026-05-03T10:49:24.999Z</time></trkpt><trkpt lat="50.80203937850359" lon="3.768425041985231"><ele>35.25</ele><time>2026-05-03T10:49:25.999Z</time></trkpt><trkpt lat="50.801938420647446" lon="3.7683291270314445"><ele>35.0</ele><time>2026-05-03T10:49:26.999Z</time></trkpt><trkpt lat="50.80183821998207" lon="3.7682358127981885"><ele>35.0</ele><time>2026-05-03T10:49:27.999Z</time></trkpt><trkpt lat="50.80174010428334" lon="3.768143446631798"><ele>35.0</ele><time>2026-05-03T10:49:28.999Z</time></trkpt><trkpt lat="50.80164248929633" lon="3.76804974024134"><ele>35.0</ele><time>2026-05-03T10:49:29.999Z</time></trkpt><trkpt lat="50.801541506250565" lon="3.7679577416789516"><ele>35.0</ele><time>2026-05-03T10:49:30.999Z</time></trkpt><trkpt lat="50.801441110552815" lon="3.767864713218119"><ele>35.0</ele><time>2026-05-03T10:49:31.999Z</time></trkpt><trkpt lat="50.801344563524644" lon="3.767772378106616"><ele>35.0</ele><time>2026-05-03T10:49:32.999Z</time></trkpt><trkpt lat="50.80123853563755" lon="3.7676729354219747"><ele>35.0</ele><time>2026-05-03T10:49:33.999Z</time></trkpt><trkpt lat="50.80112171483342" lon="3.7675638591498433"><ele>35.0</ele><time>2026-05-03T10:49:34.999Z</time></trkpt><trkpt lat="50.800996216985" lon="3.7674487366316662"><ele>36.0</ele><time>2026-05-03T10:49:35.999Z</time></trkpt><trkpt lat="50.80086511423795" lon="3.7673314635277073"><ele>37.0</ele><time>2026-05-03T10:49:36.999Z</time></trkpt><trkpt lat="50.80074106203454" lon="3.767217764656172"><ele>38.0</ele><time>2026-05-03T10:49:37.999Z</time></trkpt><trkpt lat="50.80062660829348" lon="3.767112922972172"><ele>39.0</ele><time>2026-05-03T10:49:38.999Z</time></trkpt><trkpt lat="50.80052456142527" lon="3.7670216516924184"><ele>39.0</ele><time>2026-05-03T10:49:39.999Z</time></trkpt><trkpt lat="50.80043697674706" lon="3.7669432719431866"><ele>39.0</ele><time>2026-05-03T10:49:40.999Z</time></trkpt><trkpt lat="50.800363056359686" lon="3.7668771368255256"><ele>39.0</ele><time>2026-05-03T10:49:41.999Z</time></trkpt><trkpt lat="50.8003009618354" lon="3.7668154522423656"><ele>39.0</ele><time>2026-05-03T10:49:42.999Z</time></trkpt><trkpt lat="50.800256101807506" lon="3.766742102206939"><ele>39.0</ele><time>2026-05-03T10:49:43.999Z</time></trkpt><trkpt lat="50.80020891832109" lon="3.7666284938521293"><ele>39.0</ele><time>2026-05-03T10:49:45.999Z</time></trkpt><trkpt lat="50.80023217443285" lon="3.766511885882027"><ele>38.833333333333336</ele><time>2026-05-03T10:49:46.999Z</time></trkpt><trkpt lat="50.800246315241296" lon="3.766375954361568"><ele>38.666666666666664</ele><time>2026-05-03T10:49:48.999Z</time></trkpt><trkpt lat="50.80034413361945" lon="3.7663344236804863"><ele>38.5</ele><time>2026-05-03T10:49:49.999Z</time></trkpt><trkpt lat="50.800399608805584" lon="3.76627988081551"><ele>38.33333333333333</ele><time>2026-05-03T10:49:50.999Z</time></trkpt><trkpt lat="50.800461529179785" lon="3.7662122082943843"><ele>38.166666666666664</ele><time>2026-05-03T10:49:51.999Z</time></trkpt><trkpt lat="50.800528846588314" lon="3.766128542387219"><ele>38.0</ele><time>2026-05-03T10:49:52.999Z</time></trkpt><trkpt lat="50.8006031047598" lon="3.7660381804085534"><ele>38.0</ele><time>2026-05-03T10:49:53.999Z</time></trkpt><trkpt lat="50.800685582196174" lon="3.7659384303151637"><ele>38.0</ele><time>2026-05-03T10:49:54.999Z</time></trkpt><trkpt lat="50.800775486065724" lon="3.765831862384765"><ele>38.0</ele><time>2026-05-03T10:49:55.999Z</time></trkpt><trkpt lat="50.80086771048186" lon="3.765720096274635"><ele>38.0</ele><time>2026-05-03T10:49:56.999Z</time></trkpt><trkpt lat="50.80096532629164" lon="3.7655991864158898"><ele>38.0</ele><time>2026-05-03T10:49:57.999Z</time></trkpt><trkpt lat="50.80106328962411" lon="3.765476574426918"><ele>38.0</ele><time>2026-05-03T10:49:58.999Z</time></trkpt><trkpt lat="50.8011628580497" lon="3.765352597846236"><ele>38.0</ele><time>2026-05-03T10:49:59.998Z</time></trkpt><trkpt lat="50.801272494730895" lon="3.7652230028512172"><ele>38.0</ele><time>2026-05-03T10:50:00.998Z</time></trkpt><trkpt lat="50.80137928268741" lon="3.7650936565002175"><ele>38.25</ele><time>2026-05-03T10:50:01.998Z</time></trkpt><trkpt lat="50.80148648419569" lon="3.764964246991378"><ele>38.5</ele><time>2026-05-03T10:50:02.998Z</time></trkpt><trkpt lat="50.801593212406964" lon="3.764833911781715"><ele>38.75</ele><time>2026-05-03T10:50:03.998Z</time></trkpt><trkpt lat="50.80170059372441" lon="3.7647190140011486"><ele>39.0</ele><time>2026-05-03T10:50:04.998Z</time></trkpt><trkpt lat="50.80180654399953" lon="3.7646098062383118"><ele>39.25</ele><time>2026-05-03T10:50:05.998Z</time></trkpt><trkpt lat="50.80191154786149" lon="3.7645113376052435"><ele>39.5</ele><time>2026-05-03T10:50:06.998Z</time></trkpt><trkpt lat="50.80202385248955" lon="3.764412594937593"><ele>39.75</ele><time>2026-05-03T10:50:07.998Z</time></trkpt><trkpt lat="50.802138260873285" lon="3.7643200598194797"><ele>40.0</ele><time>2026-05-03T10:50:08.998Z</time></trkpt><trkpt lat="50.802245310862894" lon="3.764225673271787"><ele>40.16666666666667</ele><time>2026-05-03T10:50:09.998Z</time></trkpt><trkpt lat="50.80234380008127" lon="3.7641474383991778"><ele>40.333333333333336</ele><time>2026-05-03T10:50:10.998Z</time></trkpt><trkpt lat="50.80242791601766" lon="3.76408175616775"><ele>40.5</ele><time>2026-05-03T10:50:11.998Z</time></trkpt><trkpt lat="50.802496078816056" lon="3.764024873144323"><ele>40.666666666666664</ele><time>2026-05-03T10:50:12.998Z</time></trkpt><trkpt lat="50.80255607482273" lon="3.7639760257677244"><ele>40.83333333333333</ele><time>2026-05-03T10:50:13.998Z</time></trkpt><trkpt lat="50.802642828642796" lon="3.763902907279125"><ele>41.0</ele><time>2026-05-03T10:50:15.998Z</time></trkpt><trkpt lat="50.802716486347634" lon="3.763848955863586"><ele>41.0</ele><time>2026-05-03T10:50:17.998Z</time></trkpt><trkpt lat="50.8026257233303" lon="3.763618284762195"><ele>41.0</ele><time>2026-05-03T10:50:23.998Z</time></trkpt><trkpt lat="50.80255458305476" lon="3.7635600212477027"><ele>41.0</ele><time>2026-05-03T10:50:24.998Z</time></trkpt><trkpt lat="50.8024774116828" lon="3.763480777577494"><ele>41.0</ele><time>2026-05-03T10:50:25.998Z</time></trkpt><trkpt lat="50.80239668907341" lon="3.763400533859015"><ele>41.0</ele><time>2026-05-03T10:50:26.998Z</time></trkpt><trkpt lat="50.80232320968935" lon="3.7633118905444816"><ele>41.0</ele><time>2026-05-03T10:50:27.998Z</time></trkpt><trkpt lat="50.80224739194399" lon="3.7632184845023042"><ele>41.0</ele><time>2026-05-03T10:50:28.998Z</time></trkpt><trkpt lat="50.80217308777254" lon="3.763111877115996"><ele>41.0</ele><time>2026-05-03T10:50:29.998Z</time></trkpt><trkpt lat="50.80211587662762" lon="3.7629752146538653"><ele>41.0</ele><time>2026-05-03T10:50:30.998Z</time></trkpt><trkpt lat="50.80204636444858" lon="3.7628424479155353"><ele>41.0</ele><time>2026-05-03T10:50:31.998Z</time></trkpt><trkpt lat="50.80196327661929" lon="3.762711195335782"><ele>41.0</ele><time>2026-05-03T10:50:32.998Z</time></trkpt><trkpt lat="50.80187015284096" lon="3.7626021863677406"><ele>41.0</ele><time>2026-05-03T10:50:33.998Z</time></trkpt><trkpt lat="50.801774431030246" lon="3.7625007840427407"><ele>41.0</ele><time>2026-05-03T10:50:34.998Z</time></trkpt><trkpt lat="50.801669581153845" lon="3.7623997556106055"><ele>41.0</ele><time>2026-05-03T10:50:35.998Z</time></trkpt><trkpt lat="50.80155973968986" lon="3.7622996760807346"><ele>41.0</ele><time>2026-05-03T10:50:36.998Z</time></trkpt><trkpt lat="50.80143947148621" lon="3.7622141659088544"><ele>41.0</ele><time>2026-05-03T10:50:38Z</time></trkpt><trkpt lat="50.80134237506645" lon="3.7620755167847193"><ele>41.0</ele><time>2026-05-03T10:50:39Z</time></trkpt><trkpt lat="50.80123989674642" lon="3.761947768333556"><ele>41.0</ele><time>2026-05-03T10:50:40Z</time></trkpt><trkpt lat="50.80113423191867" lon="3.761838690726899"><ele>41.0</ele><time>2026-05-03T10:50:41Z</time></trkpt><trkpt lat="50.8010306051944" lon="3.7617387354988825"><ele>41.0</ele><time>2026-05-03T10:50:42Z</time></trkpt><trkpt lat="50.80093197102228" lon="3.7616444702790104"><ele>41.0</ele><time>2026-05-03T10:50:43Z</time></trkpt><trkpt lat="50.800834302944175" lon="3.761551128861274"><ele>41.0</ele><time>2026-05-03T10:50:44Z</time></trkpt><trkpt lat="50.800735254542836" lon="3.7614398718099817"><ele>41.5</ele><time>2026-05-03T10:50:45Z</time></trkpt><trkpt lat="50.80062753459954" lon="3.7613279536770947"><ele>42.0</ele><time>2026-05-03T10:50:46Z</time></trkpt><trkpt lat="50.800511232476936" lon="3.7612191235997887"><ele>42.5</ele><time>2026-05-03T10:50:47Z</time></trkpt><trkpt lat="50.800390671098356" lon="3.761117742814613"><ele>43.0</ele><time>2026-05-03T10:50:48Z</time></trkpt><trkpt lat="50.800268106609366" lon="3.7610129796598226"><ele>43.25</ele><time>2026-05-03T10:50:49Z</time></trkpt><trkpt lat="50.800148169958035" lon="3.760889066398407"><ele>43.5</ele><time>2026-05-03T10:50:50Z</time></trkpt><trkpt lat="50.8000208202573" lon="3.7607619952698803"><ele>43.75</ele><time>2026-05-03T10:50:51Z</time></trkpt><trkpt lat="50.79988889496112" lon="3.7606336633821504"><ele>44.0</ele><time>2026-05-03T10:50:52Z</time></trkpt><trkpt lat="50.79975244815325" lon="3.760492876589759"><ele>44.0</ele><time>2026-05-03T10:50:53Z</time></trkpt><trkpt lat="50.799611310464506" lon="3.760338434297314"><ele>44.0</ele><time>2026-05-03T10:50:54Z</time></trkpt><trkpt lat="50.79947140988731" lon="3.7601955924465527"><ele>44.0</ele><time>2026-05-03T10:50:55Z</time></trkpt><trkpt lat="50.79934027751099" lon="3.7600735620086487"><ele>44.0</ele><time>2026-05-03T10:50:56Z</time></trkpt><trkpt lat="50.79922110465818" lon="3.759959628146671"><ele>44.0</ele><time>2026-05-03T10:50:57Z</time></trkpt><trkpt lat="50.799107329103464" lon="3.7598501831248305"><ele>44.0</ele><time>2026-05-03T10:50:58Z</time></trkpt><trkpt lat="50.799001483466455" lon="3.7597483662345357"><ele>44.0</ele><time>2026-05-03T10:50:59Z</time></trkpt><trkpt lat="50.79890632954851" lon="3.7596574382925523"><ele>44.0</ele><time>2026-05-03T10:51:00Z</time></trkpt><trkpt lat="50.798824555248586" lon="3.759579755027021"><ele>44.0</ele><time>2026-05-03T10:51:01Z</time></trkpt><trkpt lat="50.79875983639589" lon="3.759517322292651"><ele>44.0</ele><time>2026-05-03T10:51:02Z</time></trkpt><trkpt lat="50.79867736778763" lon="3.7594304250203194"><ele>44.0</ele><time>2026-05-03T10:51:04Z</time></trkpt><trkpt lat="50.798614293874316" lon="3.759373954275972"><ele>44.0</ele><time>2026-05-03T10:51:07Z</time></trkpt><trkpt lat="50.79860393310563" lon="3.7592659941248625"><ele>44.0</ele><time>2026-05-03T10:51:09Z</time></trkpt><trkpt lat="50.79867349561328" lon="3.7591222167941307"><ele>44.0</ele><time>2026-05-03T10:51:11Z</time></trkpt><trkpt lat="50.79880718809049" lon="3.7589983283401467"><ele>44.0</ele><time>2026-05-03T10:51:13Z</time></trkpt><trkpt lat="50.79889028593187" lon="3.7589249638712556"><ele>44.0</ele><time>2026-05-03T10:51:14Z</time></trkpt><trkpt lat="50.79898420541421" lon="3.7588380635063903"><ele>44.0</ele><time>2026-05-03T10:51:15Z</time></trkpt><trkpt lat="50.79908790269928" lon="3.7587415039782575"><ele>44.0</ele><time>2026-05-03T10:51:16Z</time></trkpt><trkpt lat="50.79919751572689" lon="3.758641893637596"><ele>44.0</ele><time>2026-05-03T10:51:16.999Z</time></trkpt><trkpt lat="50.799305340964" lon="3.758549726398585"><ele>44.0</ele><time>2026-05-03T10:51:17.999Z</time></trkpt><trkpt lat="50.79941541315977" lon="3.7584525691738278"><ele>44.0</ele><time>2026-05-03T10:51:18.999Z</time></trkpt><trkpt lat="50.79952760980308" lon="3.7583580871124647"><ele>43.0</ele><time>2026-05-03T10:51:19.999Z</time></trkpt><trkpt lat="50.799644414013784" lon="3.7582596837896163"><ele>42.0</ele><time>2026-05-03T10:51:20.999Z</time></trkpt><trkpt lat="50.799762992661854" lon="3.7581589829320112"><ele>41.0</ele><time>2026-05-03T10:51:21.999Z</time></trkpt><trkpt lat="50.79988759889707" lon="3.758053601575241"><ele>40.0</ele><time>2026-05-03T10:51:22.999Z</time></trkpt><trkpt lat="50.80001282146658" lon="3.7579463536308237"><ele>40.0</ele><time>2026-05-03T10:51:23.999Z</time></trkpt><trkpt lat="50.80013224175496" lon="3.7578457400851306"><ele>40.0</ele><time>2026-05-03T10:51:24.999Z</time></trkpt><trkpt lat="50.800249097805185" lon="3.7577481566602255"><ele>40.0</ele><time>2026-05-03T10:51:25.999Z</time></trkpt><trkpt lat="50.80036395163521" lon="3.757644613611622"><ele>40.0</ele><time>2026-05-03T10:51:26.999Z</time></trkpt><trkpt lat="50.800483910569085" lon="3.757554804814107"><ele>39.75</ele><time>2026-05-03T10:51:27.999Z</time></trkpt><trkpt lat="50.800592711763144" lon="3.757429636926446"><ele>39.5</ele><time>2026-05-03T10:51:28.999Z</time></trkpt><trkpt lat="50.80066957358135" lon="3.7572469844046035"><ele>39.25</ele><time>2026-05-03T10:51:29.999Z</time></trkpt><trkpt lat="50.800752232516686" lon="3.757079756982228"><ele>39.0</ele><time>2026-05-03T10:51:30.999Z</time></trkpt><trkpt lat="50.800832231334475" lon="3.7568924936411507"><ele>38.0</ele><time>2026-05-03T10:51:31.999Z</time></trkpt><trkpt lat="50.80091529824643" lon="3.7566984908621155"><ele>37.0</ele><time>2026-05-03T10:51:32.999Z</time></trkpt><trkpt lat="50.8010091177253" lon="3.7565038577370453"><ele>36.0</ele><time>2026-05-03T10:51:33.999Z</time></trkpt><trkpt lat="50.80111722641463" lon="3.756317371869132"><ele>36.0</ele><time>2026-05-03T10:51:34.999Z</time></trkpt><trkpt lat="50.8012286561661" lon="3.7561280627410016"><ele>36.0</ele><time>2026-05-03T10:51:35.999Z</time></trkpt><trkpt lat="50.80133763386217" lon="3.7559297961735068"><ele>36.0</ele><time>2026-05-03T10:51:36.999Z</time></trkpt><trkpt lat="50.80143774068039" lon="3.7557203932157153"><ele>36.0</ele><time>2026-05-03T10:51:37.999Z</time></trkpt><trkpt lat="50.801526992781874" lon="3.7554970053597136"><ele>36.0</ele><time>2026-05-03T10:51:38.999Z</time></trkpt><trkpt lat="50.80160444126543" lon="3.7552578197503217"><ele>36.0</ele><time>2026-05-03T10:51:39.999Z</time></trkpt><trkpt lat="50.80167845985769" lon="3.755007334567008"><ele>37.0</ele><time>2026-05-03T10:51:40.999Z</time></trkpt><trkpt lat="50.801752072027966" lon="3.754760768315987"><ele>38.0</ele><time>2026-05-03T10:51:41.999Z</time></trkpt><trkpt lat="50.80182557858214" lon="3.7545225905934454"><ele>39.0</ele><time>2026-05-03T10:51:42.999Z</time></trkpt><trkpt lat="50.80189780621391" lon="3.754299767200863"><ele>39.0</ele><time>2026-05-03T10:51:43.999Z</time></trkpt><trkpt lat="50.801972942676734" lon="3.7540865229751517"><ele>39.0</ele><time>2026-05-03T10:51:44.999Z</time></trkpt><trkpt lat="50.80205542680475" lon="3.753879930552067"><ele>39.0</ele><time>2026-05-03T10:51:45.999Z</time></trkpt><trkpt lat="50.80214297703422" lon="3.7536809435276797"><ele>39.666666666666664</ele><time>2026-05-03T10:51:46.999Z</time></trkpt><trkpt lat="50.802234668688286" lon="3.753487068818365"><ele>40.33333333333333</ele><time>2026-05-03T10:51:47.999Z</time></trkpt><trkpt lat="50.80232844897428" lon="3.7532933312573533"><ele>41.0</ele><time>2026-05-03T10:51:48.999Z</time></trkpt><trkpt lat="50.8024222796206" lon="3.7530986712686194"><ele>41.0</ele><time>2026-05-03T10:51:49.999Z</time></trkpt><trkpt lat="50.802517031764374" lon="3.752910204228496"><ele>41.0</ele><time>2026-05-03T10:51:50.999Z</time></trkpt><trkpt lat="50.802617985283625" lon="3.7527411751433344"><ele>41.0</ele><time>2026-05-03T10:51:51.999Z</time></trkpt><trkpt lat="50.80272604192084" lon="3.7526000802592807"><ele>41.0</ele><time>2026-05-03T10:51:52.999Z</time></trkpt><trkpt lat="50.80284184725422" lon="3.752484304573798"><ele>41.25</ele><time>2026-05-03T10:51:53.999Z</time></trkpt><trkpt lat="50.802956635286804" lon="3.752372584705998"><ele>41.5</ele><time>2026-05-03T10:51:54.999Z</time></trkpt><trkpt lat="50.80306422298028" lon="3.7522478266057955"><ele>41.75</ele><time>2026-05-03T10:51:55.999Z</time></trkpt><trkpt lat="50.803160085033575" lon="3.7521038213275113"><ele>42.0</ele><time>2026-05-03T10:51:56.999Z</time></trkpt><trkpt lat="50.80325583457239" lon="3.751953319272867"><ele>42.25</ele><time>2026-05-03T10:51:57.999Z</time></trkpt><trkpt lat="50.803356395844524" lon="3.7518015557884565"><ele>42.5</ele><time>2026-05-03T10:51:58.999Z</time></trkpt><trkpt lat="50.803451836764076" lon="3.7516610068168323"><ele>42.75</ele><time>2026-05-03T10:51:59.999Z</time></trkpt><trkpt lat="50.803549931446234" lon="3.751533399080346"><ele>43.0</ele><time>2026-05-03T10:52:00.999Z</time></trkpt><trkpt lat="50.80365395358043" lon="3.7514253575585257"><ele>43.5</ele><time>2026-05-03T10:52:01.999Z</time></trkpt><trkpt lat="50.80376481493152" lon="3.7513374424685315"><ele>44.0</ele><time>2026-05-03T10:52:02.999Z</time></trkpt><trkpt lat="50.80387761403365" lon="3.751263411824357"><ele>44.5</ele><time>2026-05-03T10:52:03.999Z</time></trkpt><trkpt lat="50.803991704460856" lon="3.7511961974462853"><ele>45.0</ele><time>2026-05-03T10:52:04.999Z</time></trkpt><trkpt lat="50.80410743315024" lon="3.751134849699486"><ele>45.0</ele><time>2026-05-03T10:52:05.999Z</time></trkpt><trkpt lat="50.80422540606937" lon="3.7510830681179566"><ele>45.0</ele><time>2026-05-03T10:52:06.999Z</time></trkpt><trkpt lat="50.80434427797293" lon="3.7510390370851954"><ele>45.0</ele><time>2026-05-03T10:52:07.999Z</time></trkpt><trkpt lat="50.80446386375413" lon="3.750993881238886"><ele>45.0</ele><time>2026-05-03T10:52:08.999Z</time></trkpt><trkpt lat="50.804581022548696" lon="3.750944129821828"><ele>44.75</ele><time>2026-05-03T10:52:09.999Z</time></trkpt><trkpt lat="50.80469775848526" lon="3.750890547383661"><ele>44.5</ele><time>2026-05-03T10:52:10.999Z</time></trkpt><trkpt lat="50.80481160849908" lon="3.7508389126810724"><ele>44.25</ele><time>2026-05-03T10:52:11.999Z</time></trkpt><trkpt lat="50.80492507419554" lon="3.750786253336889"><ele>44.0</ele><time>2026-05-03T10:52:12.998Z</time></trkpt><trkpt lat="50.80503642256213" lon="3.7507327818264904"><ele>44.0</ele><time>2026-05-03T10:52:13.998Z</time></trkpt><trkpt lat="50.80514019077318" lon="3.7506807754810993"><ele>44.0</ele><time>2026-05-03T10:52:14.998Z</time></trkpt><trkpt lat="50.80523771048712" lon="3.750631637165517"><ele>44.0</ele><time>2026-05-03T10:52:15.998Z</time></trkpt><trkpt lat="50.80533375217906" lon="3.7505808128812688"><ele>44.0</ele><time>2026-05-03T10:52:16.998Z</time></trkpt><trkpt lat="50.80542535421147" lon="3.7505315941453747"><ele>44.0</ele><time>2026-05-03T10:52:17.998Z</time></trkpt><trkpt lat="50.80551367290546" lon="3.750475902358823"><ele>44.400000000000006</ele><time>2026-05-03T10:52:18.998Z</time></trkpt><trkpt lat="50.80559416016981" lon="3.750413467532718"><ele>44.8</ele><time>2026-05-03T10:52:19.998Z</time></trkpt><trkpt lat="50.805667792664615" lon="3.750342712846175"><ele>45.2</ele><time>2026-05-03T10:52:20.998Z</time></trkpt><trkpt lat="50.805742044613716" lon="3.750264050539624"><ele>45.599999999999994</ele><time>2026-05-03T10:52:21.998Z</time></trkpt><trkpt lat="50.80581536608164" lon="3.7501764756992837"><ele>46.0</ele><time>2026-05-03T10:52:22.998Z</time></trkpt><trkpt lat="50.805882928603836" lon="3.7500715763838093"><ele>46.0</ele><time>2026-05-03T10:52:23.998Z</time></trkpt><trkpt lat="50.805935868758624" lon="3.7499522557412353"><ele>46.0</ele><time>2026-05-03T10:52:24.998Z</time></trkpt><trkpt lat="50.8059828615903" lon="3.749820530254083"><ele>46.0</ele><time>2026-05-03T10:52:25.998Z</time></trkpt><trkpt lat="50.80599869310489" lon="3.749667397099688"><ele>46.0</ele><time>2026-05-03T10:52:26.998Z</time></trkpt><trkpt lat="50.806004624593605" lon="3.749500080981806"><ele>46.0</ele><time>2026-05-03T10:52:27.998Z</time></trkpt><trkpt lat="50.80598074245356" lon="3.749319280414822"><ele>46.0</ele><time>2026-05-03T10:52:28.998Z</time></trkpt><trkpt lat="50.80597115609862" lon="3.7491257007384178"><ele>46.0</ele><time>2026-05-03T10:52:29.998Z</time></trkpt><trkpt lat="50.8059592479779" lon="3.7489203374403686"><ele>46.0</ele><time>2026-05-03T10:52:30.998Z</time></trkpt><trkpt lat="50.805946199119504" lon="3.7487051558378046"><ele>46.0</ele><time>2026-05-03T10:52:31.998Z</time></trkpt><trkpt lat="50.80593349343023" lon="3.748484876591858"><ele>46.5</ele><time>2026-05-03T10:52:32.998Z</time></trkpt><trkpt lat="50.805921293580774" lon="3.748258384312739"><ele>47.0</ele><time>2026-05-03T10:52:33.998Z</time></trkpt><trkpt lat="50.80590800896907" lon="3.7480234438586084"><ele>47.5</ele><time>2026-05-03T10:52:34.998Z</time></trkpt><trkpt lat="50.80589531091205" lon="3.7477924034041292"><ele>48.0</ele><time>2026-05-03T10:52:35.998Z</time></trkpt><trkpt lat="50.80588380763322" lon="3.7475741347017784"><ele>48.75</ele><time>2026-05-03T10:52:36.998Z</time></trkpt><trkpt lat="50.80587300266241" lon="3.7473571771986696"><ele>49.5</ele><time>2026-05-03T10:52:37.998Z</time></trkpt><trkpt lat="50.805861773094" lon="3.7471442863390267"><ele>50.25</ele><time>2026-05-03T10:52:38.998Z</time></trkpt><trkpt lat="50.80585102182356" lon="3.746936458470351"><ele>51.0</ele><time>2026-05-03T10:52:39.998Z</time></trkpt><trkpt lat="50.80584046325433" lon="3.746735966892228"><ele>51.75</ele><time>2026-05-03T10:52:40.998Z</time></trkpt><trkpt lat="50.80583011965694" lon="3.7465420228484465"><ele>52.5</ele><time>2026-05-03T10:52:41.998Z</time></trkpt><trkpt lat="50.80582003622202" lon="3.746344906456418"><ele>53.25</ele><time>2026-05-03T10:52:43Z</time></trkpt><trkpt lat="50.80580808718925" lon="3.746142403919575"><ele>54.0</ele><time>2026-05-03T10:52:44Z</time></trkpt><trkpt lat="50.805796197967375" lon="3.7459355637487697"><ele>54.75</ele><time>2026-05-03T10:52:45Z</time></trkpt><trkpt lat="50.80578394890267" lon="3.745727762878856"><ele>55.5</ele><time>2026-05-03T10:52:46Z</time></trkpt><trkpt lat="50.805773216027745" lon="3.7455236361901956"><ele>56.25</ele><time>2026-05-03T10:52:47Z</time></trkpt><trkpt lat="50.8057619704056" lon="3.745324478440078"><ele>57.0</ele><time>2026-05-03T10:52:48Z</time></trkpt><trkpt lat="50.80575031839356" lon="3.745126855330334"><ele>57.5</ele><time>2026-05-03T10:52:49Z</time></trkpt><trkpt lat="50.80573779829749" lon="3.744928547308974"><ele>58.0</ele><time>2026-05-03T10:52:50Z</time></trkpt><trkpt lat="50.80572590820513" lon="3.7447249209063673"><ele>58.5</ele><time>2026-05-03T10:52:51Z</time></trkpt><trkpt lat="50.80571786751639" lon="3.7445169781781487"><ele>59.0</ele><time>2026-05-03T10:52:52Z</time></trkpt><trkpt lat="50.8057141377588" lon="3.7443048242778905"><ele>59.75</ele><time>2026-05-03T10:52:53Z</time></trkpt><trkpt lat="50.80571998231496" lon="3.744090768545694"><ele>60.5</ele><time>2026-05-03T10:52:54Z</time></trkpt><trkpt lat="50.8057406044472" lon="3.7438766622173527"><ele>61.25</ele><time>2026-05-03T10:52:55Z</time></trkpt><trkpt lat="50.80577276577416" lon="3.743660515021315"><ele>62.0</ele><time>2026-05-03T10:52:56Z</time></trkpt><trkpt lat="50.80581205886965" lon="3.743444551336366"><ele>63.0</ele><time>2026-05-03T10:52:57Z</time></trkpt><trkpt lat="50.80585556920382" lon="3.7432307096052786"><ele>64.0</ele><time>2026-05-03T10:52:58Z</time></trkpt><trkpt lat="50.805898909026" lon="3.7430164305228404"><ele>65.0</ele><time>2026-05-03T10:52:59Z</time></trkpt><trkpt lat="50.80594262439369" lon="3.7428060774806773"><ele>66.0</ele><time>2026-05-03T10:53:00Z</time></trkpt><trkpt lat="50.80598508440913" lon="3.742597850772331"><ele>68.0</ele><time>2026-05-03T10:53:01Z</time></trkpt><trkpt lat="50.80604499049601" lon="3.742406455509058"><ele>70.0</ele><time>2026-05-03T10:53:02Z</time></trkpt><trkpt lat="50.80608332563961" lon="3.74221806250454"><ele>72.0</ele><time>2026-05-03T10:53:03Z</time></trkpt><trkpt lat="50.80610320692312" lon="3.742034044033255"><ele>74.0</ele><time>2026-05-03T10:53:04Z</time></trkpt><trkpt lat="50.806138060899066" lon="3.7418677510605356"><ele>74.4</ele><time>2026-05-03T10:53:05Z</time></trkpt><trkpt lat="50.8061801870206" lon="3.741709119166801"><ele>74.80000000000001</ele><time>2026-05-03T10:53:06Z</time></trkpt><trkpt lat="50.8062145126045" lon="3.7415438870504585"><ele>75.19999999999999</ele><time>2026-05-03T10:53:07Z</time></trkpt><trkpt lat="50.80625009922812" lon="3.741379671927724"><ele>75.6</ele><time>2026-05-03T10:53:08Z</time></trkpt><trkpt lat="50.806282092117726" lon="3.74122363755864"><ele>76.0</ele><time>2026-05-03T10:53:09Z</time></trkpt><trkpt lat="50.80631134692724" lon="3.7410792600740113"><ele>76.33333333333333</ele><time>2026-05-03T10:53:10Z</time></trkpt><trkpt lat="50.80633928545756" lon="3.7409453646710116"><ele>76.66666666666666</ele><time>2026-05-03T10:53:11Z</time></trkpt><trkpt lat="50.8063664814719" lon="3.7408205928700653"><ele>77.0</ele><time>2026-05-03T10:53:12Z</time></trkpt><trkpt lat="50.8063937977708" lon="3.7407021827623534"><ele>77.33333333333333</ele><time>2026-05-03T10:53:13Z</time></trkpt><trkpt lat="50.806421823022134" lon="3.740576964347875"><ele>77.66666666666667</ele><time>2026-05-03T10:53:14Z</time></trkpt><trkpt lat="50.80644926921817" lon="3.740448073056613"><ele>78.0</ele><time>2026-05-03T10:53:15Z</time></trkpt><trkpt lat="50.806476311604094" lon="3.740316351996009"><ele>78.16666666666667</ele><time>2026-05-03T10:53:16Z</time></trkpt><trkpt lat="50.80650951011838" lon="3.7401863507288566"><ele>78.33333333333333</ele><time>2026-05-03T10:53:17Z</time></trkpt><trkpt lat="50.806549057208485" lon="3.740057456683203"><ele>78.5</ele><time>2026-05-03T10:53:18Z</time></trkpt><trkpt lat="50.80659620968352" lon="3.7399367623026074"><ele>78.66666666666666</ele><time>2026-05-03T10:53:19Z</time></trkpt><trkpt lat="50.80664436563167" lon="3.7398239778773372"><ele>78.83333333333333</ele><time>2026-05-03T10:53:20Z</time></trkpt><trkpt lat="50.80670015810732" lon="3.7397267204768374"><ele>79.0</ele><time>2026-05-03T10:53:21Z</time></trkpt><trkpt lat="50.8067581899008" lon="3.739642126584222"><ele>79.0</ele><time>2026-05-03T10:53:22Z</time></trkpt><trkpt lat="50.806820813083284" lon="3.7395746698226056"><ele>79.0</ele><time>2026-05-03T10:53:23Z</time></trkpt><trkpt lat="50.80688267385903" lon="3.7395240921940096"><ele>79.0</ele><time>2026-05-03T10:53:24Z</time></trkpt><trkpt lat="50.80694906745069" lon="3.7394733608737014"><ele>79.0</ele><time>2026-05-03T10:53:25Z</time></trkpt><trkpt lat="50.80703206043838" lon="3.739431959878586"><ele>79.0</ele><time>2026-05-03T10:53:25.999Z</time></trkpt><trkpt lat="50.807118771137894" lon="3.739393334000248"><ele>79.0</ele><time>2026-05-03T10:53:26.999Z</time></trkpt><trkpt lat="50.80720453869356" lon="3.739337868126369"><ele>81.25</ele><time>2026-05-03T10:53:27.999Z</time></trkpt><trkpt lat="50.807298054490985" lon="3.739283069248032"><ele>83.5</ele><time>2026-05-03T10:53:28.999Z</time></trkpt><trkpt lat="50.80739930901127" lon="3.73922480085932"><ele>85.75</ele><time>2026-05-03T10:53:29.999Z</time></trkpt><trkpt lat="50.80751321180647" lon="3.739164449523669"><ele>88.0</ele><time>2026-05-03T10:53:30.999Z</time></trkpt><trkpt lat="50.80763890518965" lon="3.7391017768311685"><ele>89.25</ele><time>2026-05-03T10:53:31.999Z</time></trkpt><trkpt lat="50.807766612544604" lon="3.739028332467594"><ele>90.5</ele><time>2026-05-03T10:53:32.999Z</time></trkpt><trkpt lat="50.80790201125023" lon="3.738954050843358"><ele>91.75</ele><time>2026-05-03T10:53:33.999Z</time></trkpt><trkpt lat="50.8080456512406" lon="3.7388765091622984"><ele>93.0</ele><time>2026-05-03T10:53:34.999Z</time></trkpt><trkpt lat="50.80818380720453" lon="3.7387979116184127"><ele>93.0</ele><time>2026-05-03T10:53:35.999Z</time></trkpt><trkpt lat="50.80830558610392" lon="3.7387178096017424"><ele>93.0</ele><time>2026-05-03T10:53:36.999Z</time></trkpt><trkpt lat="50.80843001014016" lon="3.738629309801877"><ele>93.0</ele><time>2026-05-03T10:53:37.999Z</time></trkpt><trkpt lat="50.80855558811573" lon="3.738547753870697"><ele>93.0</ele><time>2026-05-03T10:53:38.999Z</time></trkpt><trkpt lat="50.808666085901145" lon="3.738429686570007"><ele>92.75</ele><time>2026-05-03T10:53:39.999Z</time></trkpt><trkpt lat="50.80876300745277" lon="3.7382783812299443"><ele>92.5</ele><time>2026-05-03T10:53:40.999Z</time></trkpt><trkpt lat="50.80885760021528" lon="3.7381128549786076"><ele>92.25</ele><time>2026-05-03T10:53:41.999Z</time></trkpt><trkpt lat="50.80895013823456" lon="3.737939981114849"><ele>92.0</ele><time>2026-05-03T10:53:42.999Z</time></trkpt><trkpt lat="50.80902426065016" lon="3.73776108827382"><ele>92.75</ele><time>2026-05-03T10:53:43.999Z</time></trkpt><trkpt lat="50.80911047318411" lon="3.737608564331236"><ele>93.5</ele><time>2026-05-03T10:53:44.999Z</time></trkpt><trkpt lat="50.80919686072003" lon="3.7374650959180267"><ele>94.25</ele><time>2026-05-03T10:53:45.999Z</time></trkpt><trkpt lat="50.8092914544369" lon="3.737340723058681"><ele>95.0</ele><time>2026-05-03T10:53:46.999Z</time></trkpt><trkpt lat="50.809392665954" lon="3.737237939085336"><ele>95.25</ele><time>2026-05-03T10:53:47.999Z</time></trkpt><trkpt lat="50.80949958040239" lon="3.737151983778892"><ele>95.5</ele><time>2026-05-03T10:53:48.999Z</time></trkpt><trkpt lat="50.809613108743186" lon="3.73707946109606"><ele>95.75</ele><time>2026-05-03T10:53:49.999Z</time></trkpt><trkpt lat="50.80973117844292" lon="3.7370105756172833"><ele>96.0</ele><time>2026-05-03T10:53:50.999Z</time></trkpt><trkpt lat="50.80985138985939" lon="3.736943714385099"><ele>96.75</ele><time>2026-05-03T10:53:51.999Z</time></trkpt><trkpt lat="50.80998006546369" lon="3.7368753145756184"><ele>97.5</ele><time>2026-05-03T10:53:52.999Z</time></trkpt><trkpt lat="50.81011557756178" lon="3.736805755618809"><ele>98.25</ele><time>2026-05-03T10:53:53.999Z</time></trkpt><trkpt lat="50.810258108162714" lon="3.736740715095114"><ele>99.0</ele><time>2026-05-03T10:53:54.999Z</time></trkpt><trkpt lat="50.810404232558085" lon="3.736683113055153"><ele>99.75</ele><time>2026-05-03T10:53:55.999Z</time></trkpt><trkpt lat="50.81054861544412" lon="3.7366357930285847"><ele>100.5</ele><time>2026-05-03T10:53:56.999Z</time></trkpt><trkpt lat="50.81068939213067" lon="3.7365965427952657"><ele>101.25</ele><time>2026-05-03T10:53:57.999Z</time></trkpt><trkpt lat="50.81082277942963" lon="3.736566032818122"><ele>102.0</ele><time>2026-05-03T10:53:58.999Z</time></trkpt><trkpt lat="50.81094959348055" lon="3.7365459810125836"><ele>102.0</ele><time>2026-05-03T10:53:59.999Z</time></trkpt><trkpt lat="50.811073153507564" lon="3.7365303343602654"><ele>102.0</ele><time>2026-05-03T10:54:00.999Z</time></trkpt><trkpt lat="50.81119984558235" lon="3.736518541227183"><ele>102.0</ele><time>2026-05-03T10:54:01.999Z</time></trkpt><trkpt lat="50.8113297289355" lon="3.7365077996582463"><ele>102.0</ele><time>2026-05-03T10:54:02.999Z</time></trkpt><trkpt lat="50.811462737729464" lon="3.7364965356531794"><ele>102.0</ele><time>2026-05-03T10:54:03.999Z</time></trkpt><trkpt lat="50.811596301631674" lon="3.736475996383217"><ele>102.0</ele><time>2026-05-03T10:54:04.999Z</time></trkpt><trkpt lat="50.811725370150704" lon="3.736443210245645"><ele>102.0</ele><time>2026-05-03T10:54:05.999Z</time></trkpt><trkpt lat="50.81185292419086" lon="3.73639641806452"><ele>102.0</ele><time>2026-05-03T10:54:06.999Z</time></trkpt><trkpt lat="50.81198120843703" lon="3.7363440061466715"><ele>102.0</ele><time>2026-05-03T10:54:07.999Z</time></trkpt><trkpt lat="50.81209873023732" lon="3.736287872765034"><ele>102.0</ele><time>2026-05-03T10:54:08.999Z</time></trkpt><trkpt lat="50.81221052844155" lon="3.7362243709236274"><ele>102.0</ele><time>2026-05-03T10:54:09.999Z</time></trkpt><trkpt lat="50.81231509355065" lon="3.7361525331286463"><ele>102.0</ele><time>2026-05-03T10:54:10.999Z</time></trkpt><trkpt lat="50.81241361200971" lon="3.73607403256025"><ele>102.19999999999999</ele><time>2026-05-03T10:54:11.999Z</time></trkpt><trkpt lat="50.812501322909675" lon="3.7359955546549752"><ele>102.4</ele><time>2026-05-03T10:54:12.999Z</time></trkpt><trkpt lat="50.812576272988196" lon="3.7359245997851507"><ele>102.6</ele><time>2026-05-03T10:54:13.999Z</time></trkpt><trkpt lat="50.81263752677356" lon="3.735862762483999"><ele>102.80000000000001</ele><time>2026-05-03T10:54:14.999Z</time></trkpt><trkpt lat="50.81273545205199" lon="3.7357522156905287"><ele>103.0</ele><time>2026-05-03T10:54:16.999Z</time></trkpt><trkpt lat="50.81282848590779" lon="3.7356457087303836"><ele>102.60000000000001</ele><time>2026-05-03T10:54:18.999Z</time></trkpt><trkpt lat="50.812932765876226" lon="3.7355992506587956"><ele>102.2</ele><time>2026-05-03T10:54:20.998Z</time></trkpt><trkpt lat="50.81302077908986" lon="3.7356639882015097"><ele>101.8</ele><time>2026-05-03T10:54:21.998Z</time></trkpt><trkpt lat="50.81309739982882" lon="3.735713169606876"><ele>101.4</ele><time>2026-05-03T10:54:22.998Z</time></trkpt><trkpt lat="50.813179483657215" lon="3.735770669697072"><ele>101.0</ele><time>2026-05-03T10:54:23.998Z</time></trkpt><trkpt lat="50.81326463415684" lon="3.735812819129482"><ele>101.0</ele><time>2026-05-03T10:54:24.998Z</time></trkpt><trkpt lat="50.81336994914952" lon="3.7358222419557756"><ele>101.0</ele><time>2026-05-03T10:54:25.998Z</time></trkpt><trkpt lat="50.81349083219396" lon="3.7358095163048173"><ele>101.0</ele><time>2026-05-03T10:54:26.998Z</time></trkpt><trkpt lat="50.81362772751774" lon="3.735774902385529"><ele>101.0</ele><time>2026-05-03T10:54:27.998Z</time></trkpt><trkpt lat="50.81378167177853" lon="3.7357297256636173"><ele>99.66666666666666</ele><time>2026-05-03T10:54:28.998Z</time></trkpt><trkpt lat="50.813951795295615" lon="3.735677908597455"><ele>98.33333333333334</ele><time>2026-05-03T10:54:29.998Z</time></trkpt><trkpt lat="50.814136958298754" lon="3.7356243726715332"><ele>97.0</ele><time>2026-05-03T10:54:30.998Z</time></trkpt><trkpt lat="50.81433470659328" lon="3.73556362361001"><ele>96.66666666666667</ele><time>2026-05-03T10:54:31.998Z</time></trkpt><trkpt lat="50.81453627276787" lon="3.7354986330693687"><ele>96.33333333333334</ele><time>2026-05-03T10:54:32.998Z</time></trkpt><trkpt lat="50.81474746914381" lon="3.735426423439075"><ele>96.0</ele><time>2026-05-03T10:54:33.998Z</time></trkpt><trkpt lat="50.8149231805825" lon="3.735380583569776"><ele>96.0</ele><time>2026-05-03T10:54:34.998Z</time></trkpt><trkpt lat="50.81510646556938" lon="3.7353241344855244"><ele>96.0</ele><time>2026-05-03T10:54:35.998Z</time></trkpt><trkpt lat="50.81527975709134" lon="3.7352718857208824"><ele>96.0</ele><time>2026-05-03T10:54:36.998Z</time></trkpt><trkpt lat="50.81544641431269" lon="3.735219978378908"><ele>97.0</ele><time>2026-05-03T10:54:37.998Z</time></trkpt><trkpt lat="50.81561113442136" lon="3.735168147720961"><ele>98.0</ele><time>2026-05-03T10:54:38.998Z</time></trkpt><trkpt lat="50.815775724595674" lon="3.735115035912495"><ele>99.0</ele><time>2026-05-03T10:54:39.998Z</time></trkpt><trkpt lat="50.815943229403516" lon="3.735068644286669"><ele>99.0</ele><time>2026-05-03T10:54:40.998Z</time></trkpt><trkpt lat="50.81611362097514" lon="3.7350218437673806"><ele>99.0</ele><time>2026-05-03T10:54:41.998Z</time></trkpt><trkpt lat="50.81628336658148" lon="3.7349723817350498"><ele>99.0</ele><time>2026-05-03T10:54:42.998Z</time></trkpt><trkpt lat="50.81645079523272" lon="3.7349203466662306"><ele>99.0</ele><time>2026-05-03T10:54:43.998Z</time></trkpt><trkpt lat="50.81662037977138" lon="3.734870251310776"><ele>99.0</ele><time>2026-05-03T10:54:44.998Z</time></trkpt><trkpt lat="50.816790371801524" lon="3.7348129647437984"><ele>99.0</ele><time>2026-05-03T10:54:45.998Z</time></trkpt><trkpt lat="50.816965362097825" lon="3.7347664194473906"><ele>99.0</ele><time>2026-05-03T10:54:46.998Z</time></trkpt><trkpt lat="50.81713518669216" lon="3.7347156633687875"><ele>99.0</ele><time>2026-05-03T10:54:47.998Z</time></trkpt><trkpt lat="50.817299995985216" lon="3.734657735262587"><ele>99.0</ele><time>2026-05-03T10:54:49Z</time></trkpt><trkpt lat="50.81749088723177" lon="3.734625176767978"><ele>99.0</ele><time>2026-05-03T10:54:50Z</time></trkpt><trkpt lat="50.817635150741474" lon="3.734587132150664"><ele>99.0</ele><time>2026-05-03T10:54:51Z</time></trkpt><trkpt lat="50.817789454836245" lon="3.7345464395966146"><ele>99.0</ele><time>2026-05-03T10:54:52Z</time></trkpt><trkpt lat="50.817950420467085" lon="3.73450739242615"><ele>99.66666666666666</ele><time>2026-05-03T10:54:53Z</time></trkpt><trkpt lat="50.818109372377585" lon="3.734448840900034"><ele>100.33333333333333</ele><time>2026-05-03T10:54:54Z</time></trkpt><trkpt lat="50.81827610239719" lon="3.734419729592146"><ele>101.0</ele><time>2026-05-03T10:54:55Z</time></trkpt><trkpt lat="50.81844368112376" lon="3.7343898047375848"><ele>100.33333333333333</ele><time>2026-05-03T10:54:56Z</time></trkpt><trkpt lat="50.81861232712246" lon="3.734365152705547"><ele>99.66666666666666</ele><time>2026-05-03T10:54:57Z</time></trkpt><trkpt lat="50.81877737023232" lon="3.7343494525140755"><ele>99.0</ele><time>2026-05-03T10:54:58Z</time></trkpt><trkpt lat="50.81893203382295" lon="3.7343288691219376"><ele>99.0</ele><time>2026-05-03T10:54:59Z</time></trkpt><trkpt lat="50.81908573773889" lon="3.7343161923057453"><ele>99.0</ele><time>2026-05-03T10:55:00Z</time></trkpt><trkpt lat="50.81923908377386" lon="3.7343009672747884"><ele>99.0</ele><time>2026-05-03T10:55:01Z</time></trkpt><trkpt lat="50.81938775033486" lon="3.7342872836893255"><ele>98.33333333333334</ele><time>2026-05-03T10:55:02Z</time></trkpt><trkpt lat="50.81954114438816" lon="3.7342776916255325"><ele>97.66666666666667</ele><time>2026-05-03T10:55:03Z</time></trkpt><trkpt lat="50.81969325510316" lon="3.734285644473895"><ele>97.0</ele><time>2026-05-03T10:55:04Z</time></trkpt><trkpt lat="50.81984093334494" lon="3.7342828949148257"><ele>97.0</ele><time>2026-05-03T10:55:05Z</time></trkpt><trkpt lat="50.82000151789386" lon="3.7342781752488885"><ele>97.0</ele><time>2026-05-03T10:55:06Z</time></trkpt><trkpt lat="50.82016144886234" lon="3.7342786331565674"><ele>97.0</ele><time>2026-05-03T10:55:07Z</time></trkpt><trkpt lat="50.82031693382649" lon="3.7342867112190166"><ele>97.33333333333334</ele><time>2026-05-03T10:55:08Z</time></trkpt><trkpt lat="50.82046525187773" lon="3.7342940082496967"><ele>97.66666666666666</ele><time>2026-05-03T10:55:09Z</time></trkpt><trkpt lat="50.82061760542364" lon="3.734291361969602"><ele>98.0</ele><time>2026-05-03T10:55:10Z</time></trkpt><trkpt lat="50.82076977228811" lon="3.7342850683482727"><ele>98.0</ele><time>2026-05-03T10:55:11Z</time></trkpt><trkpt lat="50.8209247777632" lon="3.7342857418693716"><ele>98.0</ele><time>2026-05-03T10:55:12Z</time></trkpt><trkpt lat="50.821069427811345" lon="3.7342982311114086"><ele>98.0</ele><time>2026-05-03T10:55:13Z</time></trkpt><trkpt lat="50.82122224316788" lon="3.734299957644647"><ele>98.0</ele><time>2026-05-03T10:55:14Z</time></trkpt><trkpt lat="50.8213797065086" lon="3.7342878224082914"><ele>98.0</ele><time>2026-05-03T10:55:15Z</time></trkpt><trkpt lat="50.82153610525078" lon="3.734266401352808"><ele>98.0</ele><time>2026-05-03T10:55:16Z</time></trkpt><trkpt lat="50.8216920127154" lon="3.7342488930447497"><ele>98.66666666666666</ele><time>2026-05-03T10:55:17Z</time></trkpt><trkpt lat="50.82184225189873" lon="3.734213063756274"><ele>99.33333333333334</ele><time>2026-05-03T10:55:18Z</time></trkpt><trkpt lat="50.82198894691799" lon="3.734178106948604"><ele>100.0</ele><time>2026-05-03T10:55:19Z</time></trkpt><trkpt lat="50.82214758252603" lon="3.7341291363458664"><ele>100.0</ele><time>2026-05-03T10:55:20Z</time></trkpt><trkpt lat="50.82230398771327" lon="3.7340701262647227"><ele>100.0</ele><time>2026-05-03T10:55:21Z</time></trkpt><trkpt lat="50.82245978063813" lon="3.7339984303784663"><ele>100.0</ele><time>2026-05-03T10:55:22Z</time></trkpt><trkpt lat="50.82261341606342" lon="3.733924093635328"><ele>100.0</ele><time>2026-05-03T10:55:23Z</time></trkpt><trkpt lat="50.822766798305146" lon="3.733849081236462"><ele>100.0</ele><time>2026-05-03T10:55:24Z</time></trkpt><trkpt lat="50.82292179617587" lon="3.7337727937586185"><ele>100.0</ele><time>2026-05-03T10:55:25Z</time></trkpt><trkpt lat="50.82308042594719" lon="3.7336891429061865"><ele>100.0</ele><time>2026-05-03T10:55:26Z</time></trkpt><trkpt lat="50.823236863240815" lon="3.7336098295050397"><ele>100.0</ele><time>2026-05-03T10:55:26.999Z</time></trkpt><trkpt lat="50.82339513804803" lon="3.7335335500990823"><ele>100.0</ele><time>2026-05-03T10:55:27.999Z</time></trkpt><trkpt lat="50.82355659961031" lon="3.733452021384237"><ele>99.66666666666667</ele><time>2026-05-03T10:55:28.999Z</time></trkpt><trkpt lat="50.82371414041178" lon="3.733383922640306"><ele>99.33333333333334</ele><time>2026-05-03T10:55:29.999Z</time></trkpt><trkpt lat="50.82387872613534" lon="3.7333323831171135"><ele>99.0</ele><time>2026-05-03T10:55:30.999Z</time></trkpt><trkpt lat="50.824045156884786" lon="3.7333066903575776"><ele>99.0</ele><time>2026-05-03T10:55:31.999Z</time></trkpt><trkpt lat="50.82420471173715" lon="3.7332853411033255"><ele>99.0</ele><time>2026-05-03T10:55:32.999Z</time></trkpt><trkpt lat="50.824360751132104" lon="3.7332727424540266"><ele>99.0</ele><time>2026-05-03T10:55:33.999Z</time></trkpt><trkpt lat="50.82451672188278" lon="3.733284141786492"><ele>99.0</ele><time>2026-05-03T10:55:34.999Z</time></trkpt><trkpt lat="50.82467494304941" lon="3.733318021094823"><ele>99.0</ele><time>2026-05-03T10:55:35.999Z</time></trkpt><trkpt lat="50.824829281561904" lon="3.733354381213845"><ele>99.0</ele><time>2026-05-03T10:55:36.999Z</time></trkpt><trkpt lat="50.824985703389665" lon="3.733386865429791"><ele>99.0</ele><time>2026-05-03T10:55:37.999Z</time></trkpt><trkpt lat="50.82514358179996" lon="3.733427767926536"><ele>99.0</ele><time>2026-05-03T10:55:38.999Z</time></trkpt><trkpt lat="50.825301060515656" lon="3.733478620428454"><ele>99.0</ele><time>2026-05-03T10:55:39.999Z</time></trkpt><trkpt lat="50.82545852090741" lon="3.7335234359687517"><ele>99.0</ele><time>2026-05-03T10:55:40.999Z</time></trkpt><trkpt lat="50.82561132039018" lon="3.7335630302755973"><ele>99.0</ele><time>2026-05-03T10:55:41.999Z</time></trkpt><trkpt lat="50.82576896327489" lon="3.7335913474322555"><ele>99.0</ele><time>2026-05-03T10:55:42.999Z</time></trkpt><trkpt lat="50.82592670243262" lon="3.7336063113051075"><ele>98.75</ele><time>2026-05-03T10:55:43.999Z</time></trkpt><trkpt lat="50.82607993477276" lon="3.7335999761910603"><ele>98.5</ele><time>2026-05-03T10:55:44.999Z</time></trkpt><trkpt lat="50.8262203908578" lon="3.733597590926907"><ele>98.25</ele><time>2026-05-03T10:55:45.999Z</time></trkpt><trkpt lat="50.826364483158336" lon="3.7335844389142157"><ele>98.0</ele><time>2026-05-03T10:55:46.999Z</time></trkpt><trkpt lat="50.8265116129929" lon="3.7335578854284126"><ele>98.0</ele><time>2026-05-03T10:55:47.999Z</time></trkpt><trkpt lat="50.826656487088" lon="3.7335162577074854"><ele>98.0</ele><time>2026-05-03T10:55:48.999Z</time></trkpt><trkpt lat="50.82679998678306" lon="3.7334652868732436"><ele>98.0</ele><time>2026-05-03T10:55:49.999Z</time></trkpt><trkpt lat="50.82695441307212" lon="3.733416918841362"><ele>98.33333333333333</ele><time>2026-05-03T10:55:50.999Z</time></trkpt><trkpt lat="50.8271291441136" lon="3.733351776642863"><ele>98.66666666666666</ele><time>2026-05-03T10:55:51.999Z</time></trkpt><trkpt lat="50.827300812290666" lon="3.7332596348871148"><ele>99.0</ele><time>2026-05-03T10:55:52.999Z</time></trkpt><trkpt lat="50.82749513062069" lon="3.7331522767671683"><ele>99.33333333333334</ele><time>2026-05-03T10:55:53.999Z</time></trkpt><trkpt lat="50.82770420672478" lon="3.733036458440635"><ele>99.66666666666667</ele><time>2026-05-03T10:55:54.999Z</time></trkpt><trkpt lat="50.827906507702984" lon="3.7329246025562495"><ele>100.0</ele><time>2026-05-03T10:55:55.999Z</time></trkpt><trkpt lat="50.82808845747665" lon="3.7327965321378183"><ele>100.0</ele><time>2026-05-03T10:55:56.999Z</time></trkpt><trkpt lat="50.82827836429957" lon="3.7327155447256404"><ele>100.0</ele><time>2026-05-03T10:55:57.999Z</time></trkpt><trkpt lat="50.828459761506274" lon="3.732645838944227"><ele>100.0</ele><time>2026-05-03T10:55:58.999Z</time></trkpt><trkpt lat="50.82864177474308" lon="3.732592225706341"><ele>100.0</ele><time>2026-05-03T10:55:59.999Z</time></trkpt><trkpt lat="50.82881896611653" lon="3.73255647182902"><ele>100.0</ele><time>2026-05-03T10:56:00.999Z</time></trkpt><trkpt lat="50.829000017428854" lon="3.7325306776106086"><ele>100.0</ele><time>2026-05-03T10:56:01.999Z</time></trkpt><trkpt lat="50.82917785667196" lon="3.7325100499674466"><ele>100.33333333333334</ele><time>2026-05-03T10:56:02.999Z</time></trkpt><trkpt lat="50.82935438192466" lon="3.7324950524499587"><ele>100.66666666666666</ele><time>2026-05-03T10:56:03.999Z</time></trkpt><trkpt lat="50.82952476315403" lon="3.732475768756963"><ele>101.0</ele><time>2026-05-03T10:56:04.999Z</time></trkpt><trkpt lat="50.82970024637441" lon="3.7324560900538724"><ele>101.0</ele><time>2026-05-03T10:56:05.999Z</time></trkpt><trkpt lat="50.82987320482517" lon="3.7324387551145803"><ele>101.0</ele><time>2026-05-03T10:56:06.999Z</time></trkpt><trkpt lat="50.83004312119594" lon="3.7324193975702737"><ele>101.0</ele><time>2026-05-03T10:56:07.999Z</time></trkpt><trkpt lat="50.83020999903982" lon="3.7323917927122388"><ele>100.33333333333333</ele><time>2026-05-03T10:56:08.999Z</time></trkpt><trkpt lat="50.830380118119805" lon="3.7323557238831206"><ele>99.66666666666666</ele><time>2026-05-03T10:56:09.999Z</time></trkpt><trkpt lat="50.83054808105253" lon="3.7323166939329147"><ele>99.0</ele><time>2026-05-03T10:56:10.999Z</time></trkpt><trkpt lat="50.83071792505725" lon="3.7322782850628844"><ele>99.0</ele><time>2026-05-03T10:56:11.999Z</time></trkpt><trkpt lat="50.83089035482241" lon="3.732243299042987"><ele>99.0</ele><time>2026-05-03T10:56:12.999Z</time></trkpt><trkpt lat="50.831065782318674" lon="3.732211504491312"><ele>99.0</ele><time>2026-05-03T10:56:13.999Z</time></trkpt><trkpt lat="50.83123814749225" lon="3.732178809660985"><ele>99.0</ele><time>2026-05-03T10:56:14.999Z</time></trkpt><trkpt lat="50.831412693546284" lon="3.732143580479016"><ele>99.0</ele><time>2026-05-03T10:56:15.998Z</time></trkpt><trkpt lat="50.83157584759984" lon="3.732110191580781"><ele>99.0</ele><time>2026-05-03T10:56:16.998Z</time></trkpt><trkpt lat="50.83173545821093" lon="3.7320800388758553"><ele>98.66666666666666</ele><time>2026-05-03T10:56:17.998Z</time></trkpt><trkpt lat="50.831897897041664" lon="3.732055731187081"><ele>98.33333333333333</ele><time>2026-05-03T10:56:18.998Z</time></trkpt><trkpt lat="50.83205175395734" lon="3.7320337704354434"><ele>98.0</ele><time>2026-05-03T10:56:19.998Z</time></trkpt><trkpt lat="50.832206173000955" lon="3.732018658944862"><ele>98.0</ele><time>2026-05-03T10:56:20.998Z</time></trkpt><trkpt lat="50.83235985223307" lon="3.7319998934490144"><ele>98.0</ele><time>2026-05-03T10:56:21.998Z</time></trkpt><trkpt lat="50.832510965009874" lon="3.7319806718199997"><ele>98.0</ele><time>2026-05-03T10:56:22.998Z</time></trkpt><trkpt lat="50.83266230281457" lon="3.731962351415305"><ele>98.66666666666666</ele><time>2026-05-03T10:56:23.998Z</time></trkpt><trkpt lat="50.8328205293728" lon="3.731945360794886"><ele>99.33333333333334</ele><time>2026-05-03T10:56:24.998Z</time></trkpt><trkpt lat="50.83298299254559" lon="3.731927976753391"><ele>100.0</ele><time>2026-05-03T10:56:25.998Z</time></trkpt><trkpt lat="50.833147623594286" lon="3.7319120079878174"><ele>100.0</ele><time>2026-05-03T10:56:26.998Z</time></trkpt><trkpt lat="50.833314426899115" lon="3.7318946494551257"><ele>100.0</ele><time>2026-05-03T10:56:27.998Z</time></trkpt><trkpt lat="50.83348608378781" lon="3.7318784024611045"><ele>100.0</ele><time>2026-05-03T10:56:28.998Z</time></trkpt><trkpt lat="50.83365475749098" lon="3.7318652985667913"><ele>99.66666666666667</ele><time>2026-05-03T10:56:29.998Z</time></trkpt><trkpt lat="50.833823963840565" lon="3.7318496437087885"><ele>99.33333333333334</ele><time>2026-05-03T10:56:30.998Z</time></trkpt><trkpt lat="50.83399199644787" lon="3.7318342716085566"><ele>99.0</ele><time>2026-05-03T10:56:31.998Z</time></trkpt><trkpt lat="50.83415844755993" lon="3.731818141799286"><ele>99.33333333333334</ele><time>2026-05-03T10:56:32.998Z</time></trkpt><trkpt lat="50.83432995283661" lon="3.7317995806113817"><ele>99.66666666666667</ele><time>2026-05-03T10:56:33.998Z</time></trkpt><trkpt lat="50.83450207031485" lon="3.7317797463237206"><ele>100.0</ele><time>2026-05-03T10:56:34.998Z</time></trkpt><trkpt lat="50.834677099303406" lon="3.7317604132344577"><ele>100.0</ele><time>2026-05-03T10:56:35.998Z</time></trkpt><trkpt lat="50.834853487149886" lon="3.731743126831921"><ele>100.0</ele><time>2026-05-03T10:56:36.998Z</time></trkpt><trkpt lat="50.83502958820763" lon="3.7317257856810073"><ele>100.0</ele><time>2026-05-03T10:56:37.998Z</time></trkpt><trkpt lat="50.83520476812109" lon="3.7317050758816097"><ele>99.0</ele><time>2026-05-03T10:56:38.998Z</time></trkpt><trkpt lat="50.83538299341327" lon="3.7316870091757255"><ele>98.0</ele><time>2026-05-03T10:56:39.998Z</time></trkpt><trkpt lat="50.83555879941181" lon="3.7316658871037505"><ele>97.0</ele><time>2026-05-03T10:56:40.998Z</time></trkpt><trkpt lat="50.83573479063908" lon="3.7316476253481414"><ele>97.0</ele><time>2026-05-03T10:56:41.998Z</time></trkpt><trkpt lat="50.835910392060036" lon="3.731630346325515"><ele>97.0</ele><time>2026-05-03T10:56:42.998Z</time></trkpt><trkpt lat="50.836086117095874" lon="3.731613759701052"><ele>97.0</ele><time>2026-05-03T10:56:43.998Z</time></trkpt><trkpt lat="50.83626184231818" lon="3.7316003866540988"><ele>97.33333333333334</ele><time>2026-05-03T10:56:44.998Z</time></trkpt><trkpt lat="50.836439475110495" lon="3.7315833602843425"><ele>97.66666666666666</ele><time>2026-05-03T10:56:45.998Z</time></trkpt><trkpt lat="50.83661464101984" lon="3.731564837882818"><ele>98.0</ele><time>2026-05-03T10:56:46.998Z</time></trkpt><trkpt lat="50.836789914776176" lon="3.7315467181383855"><ele>98.33333333333333</ele><time>2026-05-03T10:56:47.998Z</time></trkpt><trkpt lat="50.836964511463414" lon="3.731534331994695"><ele>98.66666666666666</ele><time>2026-05-03T10:56:48.998Z</time></trkpt><trkpt lat="50.83714130591079" lon="3.731527979804798"><ele>99.0</ele><time>2026-05-03T10:56:49.998Z</time></trkpt><trkpt lat="50.83732016040439" lon="3.731530152125774"><ele>99.0</ele><time>2026-05-03T10:56:50.998Z</time></trkpt><trkpt lat="50.83749399238638" lon="3.7315406020409716"><ele>99.0</ele><time>2026-05-03T10:56:51.998Z</time></trkpt><trkpt lat="50.837669694374426" lon="3.73155695460588"><ele>99.0</ele><time>2026-05-03T10:56:52.998Z</time></trkpt><trkpt lat="50.83784357003633" lon="3.7315830619963246"><ele>98.33333333333334</ele><time>2026-05-03T10:56:54Z</time></trkpt><trkpt lat="50.83802169990156" lon="3.7316210104746923"><ele>97.66666666666667</ele><time>2026-05-03T10:56:55Z</time></trkpt><trkpt lat="50.83819317486924" lon="3.731662662504075"><ele>97.0</ele><time>2026-05-03T10:56:56Z</time></trkpt><trkpt lat="50.838365258397936" lon="3.7317131130395165"><ele>97.0</ele><time>2026-05-03T10:56:57Z</time></trkpt><trkpt lat="50.83853752786924" lon="3.7317724131996584"><ele>97.0</ele><time>2026-05-03T10:56:58Z</time></trkpt><trkpt lat="50.83870773907087" lon="3.7318409746183385"><ele>97.0</ele><time>2026-05-03T10:56:59Z</time></trkpt><trkpt lat="50.83887732349432" lon="3.7319187161578777"><ele>97.0</ele><time>2026-05-03T10:57:00Z</time></trkpt><trkpt lat="50.83904517945528" lon="3.732001969800551"><ele>97.0</ele><time>2026-05-03T10:57:01Z</time></trkpt><trkpt lat="50.83920915051134" lon="3.7320941779327215"><ele>97.0</ele><time>2026-05-03T10:57:02Z</time></trkpt><trkpt lat="50.839373623060716" lon="3.7321961806639306"><ele>96.66666666666667</ele><time>2026-05-03T10:57:03Z</time></trkpt><trkpt lat="50.83953579861895" lon="3.7323035072397692"><ele>96.33333333333334</ele><time>2026-05-03T10:57:04Z</time></trkpt><trkpt lat="50.83969671884437" lon="3.73241682779397"><ele>96.0</ele><time>2026-05-03T10:57:05Z</time></trkpt><trkpt lat="50.83985497748457" lon="3.732538932541353"><ele>96.0</ele><time>2026-05-03T10:57:06Z</time></trkpt><trkpt lat="50.84001394552977" lon="3.732666306170591"><ele>96.0</ele><time>2026-05-03T10:57:07Z</time></trkpt><trkpt lat="50.84016800077837" lon="3.7327977534001002"><ele>96.0</ele><time>2026-05-03T10:57:08Z</time></trkpt><trkpt lat="50.84032106818324" lon="3.7329328495895067"><ele>96.0</ele><time>2026-05-03T10:57:09Z</time></trkpt><trkpt lat="50.840475973703185" lon="3.7330668241148834"><ele>96.0</ele><time>2026-05-03T10:57:10Z</time></trkpt><trkpt lat="50.84063201911369" lon="3.7331982846534855"><ele>96.0</ele><time>2026-05-03T10:57:11Z</time></trkpt><trkpt lat="50.84078772230322" lon="3.7333278117343465"><ele>96.0</ele><time>2026-05-03T10:57:12Z</time></trkpt><trkpt lat="50.8409421656241" lon="3.733453721859578"><ele>96.0</ele><time>2026-05-03T10:57:13Z</time></trkpt><trkpt lat="50.841096050031005" lon="3.7335865662662124"><ele>96.0</ele><time>2026-05-03T10:57:14Z</time></trkpt><trkpt lat="50.84125060679026" lon="3.7337190061453005"><ele>95.33333333333333</ele><time>2026-05-03T10:57:15Z</time></trkpt><trkpt lat="50.84140317899796" lon="3.733848605522152"><ele>94.66666666666666</ele><time>2026-05-03T10:57:16Z</time></trkpt><trkpt lat="50.84155850247664" lon="3.7339797283847065"><ele>94.0</ele><time>2026-05-03T10:57:17Z</time></trkpt><trkpt lat="50.84171627935618" lon="3.7341103017377906"><ele>94.0</ele><time>2026-05-03T10:57:18Z</time></trkpt><trkpt lat="50.84187267276589" lon="3.7342402385159765"><ele>94.0</ele><time>2026-05-03T10:57:19Z</time></trkpt><trkpt lat="50.84202996947188" lon="3.734370388889467"><ele>94.0</ele><time>2026-05-03T10:57:20Z</time></trkpt><trkpt lat="50.84218585271063" lon="3.73450296566621"><ele>94.33333333333333</ele><time>2026-05-03T10:57:21Z</time></trkpt><trkpt lat="50.84234146880898" lon="3.7346384639339614"><ele>94.66666666666667</ele><time>2026-05-03T10:57:22Z</time></trkpt><trkpt lat="50.84249525779109" lon="3.7347698374257416"><ele>95.0</ele><time>2026-05-03T10:57:23Z</time></trkpt><trkpt lat="50.84265032311845" lon="3.7348994784438263"><ele>95.0</ele><time>2026-05-03T10:57:24Z</time></trkpt><trkpt lat="50.84280622427202" lon="3.7350289579788765"><ele>95.0</ele><time>2026-05-03T10:57:25Z</time></trkpt><trkpt lat="50.84295998663234" lon="3.7351558355170544"><ele>95.0</ele><time>2026-05-03T10:57:26Z</time></trkpt><trkpt lat="50.843116633844076" lon="3.7352896568318292"><ele>94.33333333333334</ele><time>2026-05-03T10:57:27Z</time></trkpt><trkpt lat="50.84327629332222" lon="3.7354214324323203"><ele>93.66666666666667</ele><time>2026-05-03T10:57:28Z</time></trkpt><trkpt lat="50.843435519835715" lon="3.735540082927181"><ele>93.0</ele><time>2026-05-03T10:57:29Z</time></trkpt><trkpt lat="50.84359660629371" lon="3.735651162731249"><ele>92.66666666666667</ele><time>2026-05-03T10:57:30Z</time></trkpt><trkpt lat="50.84375873284526" lon="3.735756719287885"><ele>92.33333333333334</ele><time>2026-05-03T10:57:31Z</time></trkpt><trkpt lat="50.8439252610803" lon="3.735863795432959"><ele>92.0</ele><time>2026-05-03T10:57:32Z</time></trkpt><trkpt lat="50.84409169801249" lon="3.7359594523383466"><ele>92.0</ele><time>2026-05-03T10:57:33Z</time></trkpt><trkpt lat="50.844257326633446" lon="3.736054770523824"><ele>92.0</ele><time>2026-05-03T10:57:34Z</time></trkpt><trkpt lat="50.844421993102486" lon="3.7361459395623315"><ele>92.0</ele><time>2026-05-03T10:57:35Z</time></trkpt><trkpt lat="50.84458867506123" lon="3.736238288118311"><ele>92.0</ele><time>2026-05-03T10:57:35.999Z</time></trkpt><trkpt lat="50.84475414375468" lon="3.7363285662402514"><ele>92.0</ele><time>2026-05-03T10:57:36.999Z</time></trkpt><trkpt lat="50.84492033656017" lon="3.7364181478640215"><ele>92.0</ele><time>2026-05-03T10:57:37.999Z</time></trkpt><trkpt lat="50.84508556886235" lon="3.7365080778196202"><ele>92.33333333333334</ele><time>2026-05-03T10:57:38.999Z</time></trkpt><trkpt lat="50.84525355096128" lon="3.7366009765155304"><ele>92.66666666666667</ele><time>2026-05-03T10:57:39.999Z</time></trkpt><trkpt lat="50.845420349893026" lon="3.736692600508268"><ele>93.0</ele><time>2026-05-03T10:57:40.999Z</time></trkpt><trkpt lat="50.845586234476016" lon="3.736783718855932"><ele>93.0</ele><time>2026-05-03T10:57:41.999Z</time></trkpt><trkpt lat="50.84575364107608" lon="3.7368766636685207"><ele>93.0</ele><time>2026-05-03T10:57:42.999Z</time></trkpt><trkpt lat="50.84591865304603" lon="3.736971216605957"><ele>93.0</ele><time>2026-05-03T10:57:43.999Z</time></trkpt><trkpt lat="50.84608475694762" lon="3.737072025120169"><ele>93.0</ele><time>2026-05-03T10:57:44.999Z</time></trkpt><trkpt lat="50.846246141333026" lon="3.7371768475512335"><ele>93.0</ele><time>2026-05-03T10:57:45.999Z</time></trkpt><trkpt lat="50.846406890035546" lon="3.73729065441006"><ele>93.0</ele><time>2026-05-03T10:57:46.999Z</time></trkpt><trkpt lat="50.84656487196093" lon="3.737408047452117"><ele>93.0</ele><time>2026-05-03T10:57:47.999Z</time></trkpt><trkpt lat="50.84672256702341" lon="3.7375305304386894"><ele>93.0</ele><time>2026-05-03T10:57:48.999Z</time></trkpt><trkpt lat="50.846881847271646" lon="3.7376572751468564"><ele>93.0</ele><time>2026-05-03T10:57:49.999Z</time></trkpt><trkpt lat="50.84703769829474" lon="3.737786256591705"><ele>93.0</ele><time>2026-05-03T10:57:50.999Z</time></trkpt><trkpt lat="50.84719278141366" lon="3.7379222417389526"><ele>93.0</ele><time>2026-05-03T10:57:51.999Z</time></trkpt><trkpt lat="50.8473458839608" lon="3.73806148788957"><ele>93.0</ele><time>2026-05-03T10:57:52.999Z</time></trkpt><trkpt lat="50.847497786737954" lon="3.738203015804415"><ele>92.0</ele><time>2026-05-03T10:57:53.999Z</time></trkpt><trkpt lat="50.84765020940615" lon="3.7383466278935904"><ele>91.0</ele><time>2026-05-03T10:57:54.999Z</time></trkpt><trkpt lat="50.847800502102736" lon="3.7384889297913424"><ele>90.0</ele><time>2026-05-03T10:57:55.999Z</time></trkpt><trkpt lat="50.84795237938288" lon="3.738632225216469"><ele>90.0</ele><time>2026-05-03T10:57:56.999Z</time></trkpt><trkpt lat="50.848104385990794" lon="3.73877497473333"><ele>90.0</ele><time>2026-05-03T10:57:57.999Z</time></trkpt><trkpt lat="50.84825576638058" lon="3.7389202360318547"><ele>90.0</ele><time>2026-05-03T10:57:58.999Z</time></trkpt><trkpt lat="50.84840635086493" lon="3.7390633315378237"><ele>89.33333333333333</ele><time>2026-05-03T10:57:59.999Z</time></trkpt><trkpt lat="50.84855922207823" lon="3.7392098564460343"><ele>88.66666666666666</ele><time>2026-05-03T10:58:00.999Z</time></trkpt><trkpt lat="50.84870998134426" lon="3.7393557065126486"><ele>88.0</ele><time>2026-05-03T10:58:01.999Z</time></trkpt><trkpt lat="50.84886005453381" lon="3.739498318124869"><ele>88.0</ele><time>2026-05-03T10:58:02.999Z</time></trkpt><trkpt lat="50.849011021369456" lon="3.739642264535025"><ele>88.0</ele><time>2026-05-03T10:58:03.999Z</time></trkpt><trkpt lat="50.84916310856388" lon="3.7397844230690245"><ele>88.0</ele><time>2026-05-03T10:58:04.999Z</time></trkpt><trkpt lat="50.84931533578004" lon="3.739925757113751"><ele>88.33333333333333</ele><time>2026-05-03T10:58:05.999Z</time></trkpt><trkpt lat="50.84946689778723" lon="3.740068337180725"><ele>88.66666666666667</ele><time>2026-05-03T10:58:06.999Z</time></trkpt><trkpt lat="50.84961606227556" lon="3.740210571360994"><ele>89.0</ele><time>2026-05-03T10:58:07.999Z</time></trkpt><trkpt lat="50.8497666394047" lon="3.7403521229656387"><ele>89.0</ele><time>2026-05-03T10:58:08.999Z</time></trkpt><trkpt lat="50.849918235509534" lon="3.740492718438765"><ele>89.0</ele><time>2026-05-03T10:58:09.999Z</time></trkpt><trkpt lat="50.85007291483353" lon="3.740627174703895"><ele>89.0</ele><time>2026-05-03T10:58:10.999Z</time></trkpt><trkpt lat="50.850232534060005" lon="3.7407525369958163"><ele>86.66666666666667</ele><time>2026-05-03T10:58:11.999Z</time></trkpt><trkpt lat="50.85039543063891" lon="3.7408595351190135"><ele>84.33333333333333</ele><time>2026-05-03T10:58:12.999Z</time></trkpt><trkpt lat="50.85056352288656" lon="3.7409518775746973"><ele>82.0</ele><time>2026-05-03T10:58:13.999Z</time></trkpt><trkpt lat="50.85073561425315" lon="3.7410304538489587"><ele>83.0</ele><time>2026-05-03T10:58:14.999Z</time></trkpt><trkpt lat="50.8509069961814" lon="3.741088204353543"><ele>84.0</ele><time>2026-05-03T10:58:15.999Z</time></trkpt><trkpt lat="50.85108131334803" lon="3.7411299634569697"><ele>85.0</ele><time>2026-05-03T10:58:16.999Z</time></trkpt><trkpt lat="50.851258849638604" lon="3.741155761849826"><ele>85.66666666666666</ele><time>2026-05-03T10:58:17.999Z</time></trkpt><trkpt lat="50.851437175817495" lon="3.7411664815061916"><ele>86.33333333333333</ele><time>2026-05-03T10:58:18.999Z</time></trkpt><trkpt lat="50.85161388667356" lon="3.7411630217520218"><ele>87.0</ele><time>2026-05-03T10:58:19.999Z</time></trkpt><trkpt lat="50.851790319715285" lon="3.7411480944089264"><ele>85.33333333333333</ele><time>2026-05-03T10:58:20.999Z</time></trkpt><trkpt lat="50.8519665660463" lon="3.741131988460097"><ele>83.66666666666666</ele><time>2026-05-03T10:58:21.999Z</time></trkpt><trkpt lat="50.85214531771294" lon="3.7411180063291685"><ele>82.0</ele><time>2026-05-03T10:58:22.999Z</time></trkpt><trkpt lat="50.852322414188876" lon="3.7411067149207797"><ele>82.0</ele><time>2026-05-03T10:58:23.999Z</time></trkpt><trkpt lat="50.852498729721226" lon="3.741097548234559"><ele>82.0</ele><time>2026-05-03T10:58:24.999Z</time></trkpt><trkpt lat="50.85267709071787" lon="3.741089017138044"><ele>82.0</ele><time>2026-05-03T10:58:25.999Z</time></trkpt><trkpt lat="50.85285264686655" lon="3.741077877310934"><ele>78.33333333333333</ele><time>2026-05-03T10:58:26.999Z</time></trkpt><trkpt lat="50.853027989793965" lon="3.741060640503972"><ele>74.66666666666667</ele><time>2026-05-03T10:58:27.998Z</time></trkpt><trkpt lat="50.85320444434219" lon="3.7410413659183086"><ele>71.0</ele><time>2026-05-03T10:58:28.998Z</time></trkpt><trkpt lat="50.853379103205334" lon="3.7410232020665934"><ele>69.33333333333334</ele><time>2026-05-03T10:58:29.998Z</time></trkpt><trkpt lat="50.85355329354297" lon="3.7410053295697203"><ele>67.66666666666667</ele><time>2026-05-03T10:58:30.998Z</time></trkpt><trkpt lat="50.853727745879645" lon="3.740991278819347"><ele>66.0</ele><time>2026-05-03T10:58:31.998Z</time></trkpt><trkpt lat="50.85390493995919" lon="3.740974619731047"><ele>66.0</ele><time>2026-05-03T10:58:32.998Z</time></trkpt><trkpt lat="50.854079857042855" lon="3.740958487226031"><ele>66.0</ele><time>2026-05-03T10:58:33.998Z</time></trkpt><trkpt lat="50.85425407868795" lon="3.7409360608498274"><ele>66.0</ele><time>2026-05-03T10:58:34.998Z</time></trkpt><trkpt lat="50.8544260714178" lon="3.740901899369941"><ele>66.0</ele><time>2026-05-03T10:58:35.998Z</time></trkpt><trkpt lat="50.85459853497413" lon="3.7408586009552995"><ele>66.0</ele><time>2026-05-03T10:58:36.998Z</time></trkpt><trkpt lat="50.854769315408745" lon="3.7408021331500234"><ele>66.0</ele><time>2026-05-03T10:58:37.998Z</time></trkpt><trkpt lat="50.854941029957295" lon="3.740735481121417"><ele>66.0</ele><time>2026-05-03T10:58:38.998Z</time></trkpt><trkpt lat="50.855107537729864" lon="3.740655225580031"><ele>66.0</ele><time>2026-05-03T10:58:39.998Z</time></trkpt><trkpt lat="50.85527383428873" lon="3.7405647039579573"><ele>66.0</ele><time>2026-05-03T10:58:40.998Z</time></trkpt><trkpt lat="50.85543991297953" lon="3.7404615945732753"><ele>66.0</ele><time>2026-05-03T10:58:41.998Z</time></trkpt><trkpt lat="50.8556023281014" lon="3.7403553244275995"><ele>66.0</ele><time>2026-05-03T10:58:42.998Z</time></trkpt><trkpt lat="50.855764072819966" lon="3.7402495366939585"><ele>66.0</ele><time>2026-05-03T10:58:43.998Z</time></trkpt><trkpt lat="50.85592513514203" lon="3.7401418174547065"><ele>65.0</ele><time>2026-05-03T10:58:44.998Z</time></trkpt><trkpt lat="50.85608579789708" lon="3.740031464053906"><ele>64.0</ele><time>2026-05-03T10:58:45.998Z</time></trkpt><trkpt lat="50.85624677857834" lon="3.7399212186787194"><ele>63.0</ele><time>2026-05-03T10:58:46.998Z</time></trkpt><trkpt lat="50.85640787879697" lon="3.739811406098956"><ele>63.0</ele><time>2026-05-03T10:58:47.998Z</time></trkpt><trkpt lat="50.856569409962866" lon="3.739703088510421"><ele>63.0</ele><time>2026-05-03T10:58:48.998Z</time></trkpt><trkpt lat="50.856730817551394" lon="3.7395951544875166"><ele>63.0</ele><time>2026-05-03T10:58:49.998Z</time></trkpt><trkpt lat="50.856891597472426" lon="3.739485930798701"><ele>63.0</ele><time>2026-05-03T10:58:50.998Z</time></trkpt><trkpt lat="50.85705282952707" lon="3.739377416482612"><ele>63.0</ele><time>2026-05-03T10:58:51.998Z</time></trkpt><trkpt lat="50.857215614410286" lon="3.7392691085398533"><ele>63.0</ele><time>2026-05-03T10:58:52.998Z</time></trkpt><trkpt lat="50.85737836692985" lon="3.7391608700137686"><ele>63.0</ele><time>2026-05-03T10:58:53.998Z</time></trkpt><trkpt lat="50.85753935172246" lon="3.739052499393649"><ele>63.0</ele><time>2026-05-03T10:58:54.998Z</time></trkpt><trkpt lat="50.85770266672129" lon="3.738941793391904"><ele>63.0</ele><time>2026-05-03T10:58:55.998Z</time></trkpt><trkpt lat="50.85786570469251" lon="3.7388307638175364"><ele>62.0</ele><time>2026-05-03T10:58:56.998Z</time></trkpt><trkpt lat="50.85802841381788" lon="3.7387228949056475"><ele>61.0</ele><time>2026-05-03T10:58:57.998Z</time></trkpt><trkpt lat="50.858192066163426" lon="3.738614403043521"><ele>60.0</ele><time>2026-05-03T10:58:58.998Z</time></trkpt><trkpt lat="50.85835668211236" lon="3.7385088090828065"><ele>58.66666666666667</ele><time>2026-05-03T10:59:00Z</time></trkpt><trkpt lat="50.85852443135864" lon="3.738395864804525"><ele>57.333333333333336</ele><time>2026-05-03T10:59:01Z</time></trkpt><trkpt lat="50.858698307679845" lon="3.7382760710439866"><ele>56.0</ele><time>2026-05-03T10:59:02Z</time></trkpt><trkpt lat="50.85887819648474" lon="3.738152901619146"><ele>56.0</ele><time>2026-05-03T10:59:03Z</time></trkpt><trkpt lat="50.85906072667611" lon="3.7380263865525842"><ele>56.0</ele><time>2026-05-03T10:59:04Z</time></trkpt><trkpt lat="50.8592496376257" lon="3.737897687204151"><ele>56.0</ele><time>2026-05-03T10:59:05Z</time></trkpt><trkpt lat="50.859443733307046" lon="3.737769220241387"><ele>55.333333333333336</ele><time>2026-05-03T10:59:06Z</time></trkpt><trkpt lat="50.85964087453755" lon="3.7376383493151444"><ele>54.66666666666667</ele><time>2026-05-03T10:59:07Z</time></trkpt><trkpt lat="50.859843645442105" lon="3.737508642002052"><ele>54.0</ele><time>2026-05-03T10:59:08Z</time></trkpt><trkpt lat="50.86004802954433" lon="3.7373776738994864"><ele>54.0</ele><time>2026-05-03T10:59:09Z</time></trkpt><trkpt lat="50.86025317581216" lon="3.737241279628139"><ele>54.0</ele><time>2026-05-03T10:59:10Z</time></trkpt><trkpt lat="50.86045741519619" lon="3.737100359902171"><ele>54.0</ele><time>2026-05-03T10:59:11Z</time></trkpt><trkpt lat="50.860664085541956" lon="3.73695495831237"><ele>53.66666666666667</ele><time>2026-05-03T10:59:12Z</time></trkpt><trkpt lat="50.86086907301628" lon="3.736810016536878"><ele>53.333333333333336</ele><time>2026-05-03T10:59:13Z</time></trkpt><trkpt lat="50.861073867103194" lon="3.736667755926334"><ele>53.0</ele><time>2026-05-03T10:59:14Z</time></trkpt><trkpt lat="50.86128206575034" lon="3.7365280173435353"><ele>53.0</ele><time>2026-05-03T10:59:15Z</time></trkpt><trkpt lat="50.861489462722886" lon="3.7363921727544116"><ele>53.0</ele><time>2026-05-03T10:59:16Z</time></trkpt><trkpt lat="50.861697315874956" lon="3.736259932956208"><ele>53.0</ele><time>2026-05-03T10:59:17Z</time></trkpt><trkpt lat="50.86190598885782" lon="3.736135052617602"><ele>51.66666666666667</ele><time>2026-05-03T10:59:18Z</time></trkpt><trkpt lat="50.86211616114512" lon="3.7360186245025693"><ele>50.33333333333333</ele><time>2026-05-03T10:59:19Z</time></trkpt><trkpt lat="50.86232767719531" lon="3.7359171430905964"><ele>49.0</ele><time>2026-05-03T10:59:20Z</time></trkpt><trkpt lat="50.86254161178308" lon="3.735820408523369"><ele>49.0</ele><time>2026-05-03T10:59:21Z</time></trkpt><trkpt lat="50.86275589218369" lon="3.73572768225436"><ele>49.0</ele><time>2026-05-03T10:59:22Z</time></trkpt><trkpt lat="50.86297144194282" lon="3.735637548039314"><ele>49.0</ele><time>2026-05-03T10:59:23Z</time></trkpt><trkpt lat="50.863189983314086" lon="3.735548069690561"><ele>49.0</ele><time>2026-05-03T10:59:24Z</time></trkpt><trkpt lat="50.86340996247174" lon="3.7354624833634946"><ele>49.0</ele><time>2026-05-03T10:59:25Z</time></trkpt><trkpt lat="50.86363082275271" lon="3.7353784639312275"><ele>49.0</ele><time>2026-05-03T10:59:26Z</time></trkpt><trkpt lat="50.863853649770654" lon="3.735290814749374"><ele>49.0</ele><time>2026-05-03T10:59:27Z</time></trkpt><trkpt lat="50.86407664648999" lon="3.7352038327616426"><ele>48.5</ele><time>2026-05-03T10:59:28Z</time></trkpt><trkpt lat="50.86430028795443" lon="3.7351164823295906"><ele>48.0</ele><time>2026-05-03T10:59:29Z</time></trkpt><trkpt lat="50.86452690588981" lon="3.7350259632744764"><ele>48.0</ele><time>2026-05-03T10:59:30Z</time></trkpt><trkpt lat="50.86475843532581" lon="3.7349433332738475"><ele>48.0</ele><time>2026-05-03T10:59:31Z</time></trkpt><trkpt lat="50.86499769410498" lon="3.7348654084358524"><ele>48.0</ele><time>2026-05-03T10:59:32Z</time></trkpt><trkpt lat="50.86524625865639" lon="3.734794214178217"><ele>48.0</ele><time>2026-05-03T10:59:33Z</time></trkpt><trkpt lat="50.8655060474972" lon="3.7347322402266867"><ele>48.0</ele><time>2026-05-03T10:59:34Z</time></trkpt><trkpt lat="50.86578270293452" lon="3.7346837634527805"><ele>48.0</ele><time>2026-05-03T10:59:35Z</time></trkpt><trkpt lat="50.86601711024366" lon="3.7346400978250824"><ele>47.5</ele><time>2026-05-03T10:59:36Z</time></trkpt><trkpt lat="50.866276248558364" lon="3.734612685389317"><ele>47.0</ele><time>2026-05-03T10:59:37Z</time></trkpt><trkpt lat="50.866513078899445" lon="3.734587949063859"><ele>47.0</ele><time>2026-05-03T10:59:38Z</time></trkpt><trkpt lat="50.86670682308575" lon="3.7345749811643665"><ele>47.0</ele><time>2026-05-03T10:59:39Z</time></trkpt><trkpt lat="50.86686643557927" lon="3.7342724288574654"><ele>47.0</ele><time>2026-05-03T10:59:39.999Z</time></trkpt><trkpt lat="50.867052853320985" lon="3.7342277895808085"><ele>46.0</ele><time>2026-05-03T10:59:40.999Z</time></trkpt><trkpt lat="50.86742346836638" lon="3.734352643032964"><ele>45.0</ele><time>2026-05-03T10:59:42.999Z</time></trkpt><trkpt lat="50.86755667454022" lon="3.7344174303611326"><ele>45.0</ele><time>2026-05-03T10:59:43.999Z</time></trkpt><trkpt lat="50.867674344790075" lon="3.7344746615135214"><ele>45.0</ele><time>2026-05-03T10:59:44.999Z</time></trkpt><trkpt lat="50.867803588290485" lon="3.7344959247540737"><ele>45.0</ele><time>2026-05-03T10:59:45.999Z</time></trkpt><trkpt lat="50.867950280720684" lon="3.734484710743529"><ele>45.0</ele><time>2026-05-03T10:59:46.999Z</time></trkpt><trkpt lat="50.86810142021471" lon="3.734473664098434"><ele>45.0</ele><time>2026-05-03T10:59:47.999Z</time></trkpt><trkpt lat="50.868256957701156" lon="3.7344635830253545"><ele>45.0</ele><time>2026-05-03T10:59:48.999Z</time></trkpt><trkpt lat="50.86841404810522" lon="3.734463591565438"><ele>45.0</ele><time>2026-05-03T10:59:49.999Z</time></trkpt><trkpt lat="50.868573710521375" lon="3.734456348913595"><ele>44.666666666666664</ele><time>2026-05-03T10:59:50.999Z</time></trkpt><trkpt lat="50.868734989891905" lon="3.7344585066059865"><ele>44.33333333333333</ele><time>2026-05-03T10:59:51.999Z</time></trkpt><trkpt lat="50.868905931175966" lon="3.734481017608418"><ele>44.0</ele><time>2026-05-03T10:59:52.999Z</time></trkpt><trkpt lat="50.869081589857984" lon="3.7345203581739908"><ele>44.0</ele><time>2026-05-03T10:59:53.999Z</time></trkpt><trkpt lat="50.8692577543518" lon="3.7345669787476097"><ele>44.0</ele><time>2026-05-03T10:59:54.999Z</time></trkpt><trkpt lat="50.86943804606047" lon="3.734615821854377"><ele>44.0</ele><time>2026-05-03T10:59:55.999Z</time></trkpt><trkpt lat="50.86961230962472" lon="3.73465527213518"><ele>43.0</ele><time>2026-05-03T10:59:56.999Z</time></trkpt><trkpt lat="50.86978113186132" lon="3.734698024932447"><ele>42.0</ele><time>2026-05-03T10:59:57.999Z</time></trkpt><trkpt lat="50.86994402744355" lon="3.7347621113005154"><ele>41.0</ele><time>2026-05-03T10:59:58.999Z</time></trkpt><trkpt lat="50.87010395367042" lon="3.734818762059398"><ele>40.33333333333333</ele><time>2026-05-03T10:59:59.999Z</time></trkpt><trkpt lat="50.870261236563714" lon="3.73486544571178"><ele>39.666666666666664</ele><time>2026-05-03T11:00:00.999Z</time></trkpt><trkpt lat="50.87041992288781" lon="3.734888115711021"><ele>39.0</ele><time>2026-05-03T11:00:01.999Z</time></trkpt><trkpt lat="50.87057814761344" lon="3.7348804703418894"><ele>39.0</ele><time>2026-05-03T11:00:02.999Z</time></trkpt><trkpt lat="50.87073674720414" lon="3.7348437019949547"><ele>39.0</ele><time>2026-05-03T11:00:03.999Z</time></trkpt><trkpt lat="50.87089648503861" lon="3.734791693664851"><ele>39.0</ele><time>2026-05-03T11:00:04.999Z</time></trkpt><trkpt lat="50.87105858210872" lon="3.7347372711696036"><ele>37.333333333333336</ele><time>2026-05-03T11:00:05.999Z</time></trkpt><trkpt lat="50.87122490214947" lon="3.7346935724657766"><ele>35.66666666666667</ele><time>2026-05-03T11:00:06.999Z</time></trkpt><trkpt lat="50.87139438508173" lon="3.7346602499516695"><ele>34.0</ele><time>2026-05-03T11:00:07.999Z</time></trkpt><trkpt lat="50.87156497163684" lon="3.7346277739172375"><ele>34.0</ele><time>2026-05-03T11:00:08.999Z</time></trkpt><trkpt lat="50.87173595834897" lon="3.7345942806982726"><ele>34.0</ele><time>2026-05-03T11:00:09.999Z</time></trkpt><trkpt lat="50.871905394311526" lon="3.7345535069825426"><ele>34.0</ele><time>2026-05-03T11:00:10.999Z</time></trkpt><trkpt lat="50.87207152816945" lon="3.7345097519380346"><ele>32.333333333333336</ele><time>2026-05-03T11:00:11.999Z</time></trkpt><trkpt lat="50.87223709702652" lon="3.7344589513630426"><ele>30.666666666666664</ele><time>2026-05-03T11:00:12.999Z</time></trkpt><trkpt lat="50.8724018366681" lon="3.734408107555952"><ele>29.0</ele><time>2026-05-03T11:00:13.999Z</time></trkpt><trkpt lat="50.87256710081421" lon="3.7343661936430395"><ele>28.0</ele><time>2026-05-03T11:00:14.999Z</time></trkpt><trkpt lat="50.87272913176041" lon="3.734325189370943"><ele>27.0</ele><time>2026-05-03T11:00:15.999Z</time></trkpt><trkpt lat="50.8728934703335" lon="3.734287817592527"><ele>26.0</ele><time>2026-05-03T11:00:16.999Z</time></trkpt><trkpt lat="50.87305707787425" lon="3.734247986781116"><ele>26.0</ele><time>2026-05-03T11:00:17.999Z</time></trkpt><trkpt lat="50.87322097298519" lon="3.7342073900777377"><ele>26.0</ele><time>2026-05-03T11:00:18.999Z</time></trkpt><trkpt lat="50.87338755536803" lon="3.7341689315757867"><ele>26.0</ele><time>2026-05-03T11:00:19.999Z</time></trkpt><trkpt lat="50.873557343685434" lon="3.7341369217739215"><ele>24.666666666666664</ele><time>2026-05-03T11:00:20.999Z</time></trkpt><trkpt lat="50.87372938551914" lon="3.734105607271134"><ele>23.333333333333332</ele><time>2026-05-03T11:00:21.999Z</time></trkpt><trkpt lat="50.8738980738677" lon="3.734065764948853"><ele>22.0</ele><time>2026-05-03T11:00:22.999Z</time></trkpt><trkpt lat="50.87406993350908" lon="3.7340192156134178"><ele>22.0</ele><time>2026-05-03T11:00:23.999Z</time></trkpt><trkpt lat="50.874235978399035" lon="3.7339723961052114"><ele>22.0</ele><time>2026-05-03T11:00:24.999Z</time></trkpt><trkpt lat="50.87439597722553" lon="3.733924378590408"><ele>22.0</ele><time>2026-05-03T11:00:25.999Z</time></trkpt><trkpt lat="50.87454815300065" lon="3.733875456402574"><ele>21.75</ele><time>2026-05-03T11:00:26.999Z</time></trkpt><trkpt lat="50.87470117514217" lon="3.7338414828575672"><ele>21.5</ele><time>2026-05-03T11:00:27.999Z</time></trkpt><trkpt lat="50.87484669183145" lon="3.733815100175264"><ele>21.25</ele><time>2026-05-03T11:00:28.998Z</time></trkpt><trkpt lat="50.87497885418079" lon="3.7337904591395223"><ele>21.0</ele><time>2026-05-03T11:00:29.998Z</time></trkpt><trkpt lat="50.875097760906165" lon="3.733760919830228"><ele>20.6</ele><time>2026-05-03T11:00:30.998Z</time></trkpt><trkpt lat="50.87521266170404" lon="3.7337358853919365"><ele>20.200000000000003</ele><time>2026-05-03T11:00:31.998Z</time></trkpt><trkpt lat="50.875319547967244" lon="3.733713114525571"><ele>19.799999999999997</ele><time>2026-05-03T11:00:32.998Z</time></trkpt><trkpt lat="50.87541927037641" lon="3.73368959270403"><ele>19.4</ele><time>2026-05-03T11:00:33.998Z</time></trkpt><trkpt lat="50.87551577374684" lon="3.7336681277758808"><ele>19.0</ele><time>2026-05-03T11:00:34.998Z</time></trkpt><trkpt lat="50.875605164866364" lon="3.7336445936221234"><ele>19.0</ele><time>2026-05-03T11:00:35.998Z</time></trkpt><trkpt lat="50.875694477901696" lon="3.733623484075592"><ele>19.0</ele><time>2026-05-03T11:00:36.998Z</time></trkpt><trkpt lat="50.87578238537203" lon="3.733606178748499"><ele>19.0</ele><time>2026-05-03T11:00:37.998Z</time></trkpt><trkpt lat="50.87587743323251" lon="3.7335850585777646"><ele>19.0</ele><time>2026-05-03T11:00:38.998Z</time></trkpt><trkpt lat="50.875981592950744" lon="3.7335564262097116"><ele>19.0</ele><time>2026-05-03T11:00:39.998Z</time></trkpt><trkpt lat="50.87609054432313" lon="3.733524953265439"><ele>19.0</ele><time>2026-05-03T11:00:40.998Z</time></trkpt><trkpt lat="50.87620569365772" lon="3.733494164638718"><ele>19.0</ele><time>2026-05-03T11:00:41.998Z</time></trkpt><trkpt lat="50.87632874661549" lon="3.733466045593267"><ele>19.0</ele><time>2026-05-03T11:00:42.998Z</time></trkpt><trkpt lat="50.87645263732569" lon="3.7334349566002185"><ele>19.0</ele><time>2026-05-03T11:00:43.998Z</time></trkpt><trkpt lat="50.87658395546949" lon="3.7334014197722234"><ele>19.0</ele><time>2026-05-03T11:00:44.998Z</time></trkpt><trkpt lat="50.87672001243921" lon="3.7333688760188055"><ele>19.0</ele><time>2026-05-03T11:00:45.998Z</time></trkpt><trkpt lat="50.87685467732226" lon="3.733326304552801"><ele>19.0</ele><time>2026-05-03T11:00:46.998Z</time></trkpt><trkpt lat="50.87699790802281" lon="3.733289144608534"><ele>19.0</ele><time>2026-05-03T11:00:47.998Z</time></trkpt><trkpt lat="50.87714150214521" lon="3.733244690868497"><ele>19.333333333333332</ele><time>2026-05-03T11:00:48.998Z</time></trkpt><trkpt lat="50.877288468985945" lon="3.733204324476245"><ele>19.666666666666668</ele><time>2026-05-03T11:00:49.998Z</time></trkpt><trkpt lat="50.877438153640675" lon="3.733172654655516"><ele>20.0</ele><time>2026-05-03T11:00:50.998Z</time></trkpt><trkpt lat="50.87758846302035" lon="3.733146291922285"><ele>19.75</ele><time>2026-05-03T11:00:51.998Z</time></trkpt><trkpt lat="50.87773031310823" lon="3.7331510284093246"><ele>19.5</ele><time>2026-05-03T11:00:52.998Z</time></trkpt><trkpt lat="50.87786064476139" lon="3.7331180058139255"><ele>19.25</ele><time>2026-05-03T11:00:53.998Z</time></trkpt><trkpt lat="50.877979948447134" lon="3.7331148017898146"><ele>19.0</ele><time>2026-05-03T11:00:54.998Z</time></trkpt><trkpt lat="50.87809933443038" lon="3.7331372869979678"><ele>19.0</ele><time>2026-05-03T11:00:55.998Z</time></trkpt><trkpt lat="50.87822238989483" lon="3.7331826079911234"><ele>19.0</ele><time>2026-05-03T11:00:56.998Z</time></trkpt><trkpt lat="50.87834625311146" lon="3.7332068143501953"><ele>19.0</ele><time>2026-05-03T11:00:57.998Z</time></trkpt><trkpt lat="50.87846528531432" lon="3.7332636251606908"><ele>19.0</ele><time>2026-05-03T11:00:58.998Z</time></trkpt><trkpt lat="50.878585784995934" lon="3.7333234142857292"><ele>19.0</ele><time>2026-05-03T11:00:59.998Z</time></trkpt><trkpt lat="50.87870847503111" lon="3.7333887638762118"><ele>19.0</ele><time>2026-05-03T11:01:00.998Z</time></trkpt><trkpt lat="50.87883318275537" lon="3.733454847907161"><ele>19.0</ele><time>2026-05-03T11:01:01.998Z</time></trkpt><trkpt lat="50.87896425555646" lon="3.7335151149538737"><ele>19.0</ele><time>2026-05-03T11:01:02.998Z</time></trkpt><trkpt lat="50.879093996776" lon="3.733579099358843"><ele>19.0</ele><time>2026-05-03T11:01:03.998Z</time></trkpt><trkpt lat="50.87923230421811" lon="3.733660434247592"><ele>19.0</ele><time>2026-05-03T11:01:04.998Z</time></trkpt><trkpt lat="50.87937572910733" lon="3.733738102515986"><ele>19.0</ele><time>2026-05-03T11:01:06Z</time></trkpt><trkpt lat="50.87952193297511" lon="3.733817186912002"><ele>18.5</ele><time>2026-05-03T11:01:07Z</time></trkpt><trkpt lat="50.87966754358248" lon="3.7338902044571274"><ele>18.0</ele><time>2026-05-03T11:01:08Z</time></trkpt><trkpt lat="50.87981062978535" lon="3.7339615209897317"><ele>17.5</ele><time>2026-05-03T11:01:09Z</time></trkpt><trkpt lat="50.87994031445394" lon="3.734027126343273"><ele>17.0</ele><time>2026-05-03T11:01:10Z</time></trkpt><trkpt lat="50.88006200486111" lon="3.7340956364792737"><ele>17.0</ele><time>2026-05-03T11:01:11Z</time></trkpt><trkpt lat="50.880179038620874" lon="3.734181803589899"><ele>17.0</ele><time>2026-05-03T11:01:12Z</time></trkpt><trkpt lat="50.880291324512875" lon="3.7342918832211276"><ele>17.0</ele><time>2026-05-03T11:01:13Z</time></trkpt><trkpt lat="50.88040827425443" lon="3.734412489252391"><ele>17.0</ele><time>2026-05-03T11:01:14Z</time></trkpt><trkpt lat="50.8805260367829" lon="3.734542437031281"><ele>18.0</ele><time>2026-05-03T11:01:15Z</time></trkpt><trkpt lat="50.88065136211413" lon="3.73467039720575"><ele>19.0</ele><time>2026-05-03T11:01:16Z</time></trkpt><trkpt lat="50.88078785502275" lon="3.734779988513289"><ele>20.0</ele><time>2026-05-03T11:01:17Z</time></trkpt><trkpt lat="50.88093330080301" lon="3.7348740018776296"><ele>22.666666666666668</ele><time>2026-05-03T11:01:18Z</time></trkpt><trkpt lat="50.881089295663436" lon="3.7349448658846174"><ele>25.333333333333336</ele><time>2026-05-03T11:01:19Z</time></trkpt><trkpt lat="50.881242265810464" lon="3.734997954765709"><ele>28.0</ele><time>2026-05-03T11:01:20Z</time></trkpt><trkpt lat="50.88139456700597" lon="3.7350471038324953"><ele>28.0</ele><time>2026-05-03T11:01:21Z</time></trkpt><trkpt lat="50.881552094402615" lon="3.7350841489901545"><ele>28.0</ele><time>2026-05-03T11:01:22Z</time></trkpt><trkpt lat="50.88171172385721" lon="3.735096979595375"><ele>28.0</ele><time>2026-05-03T11:01:23Z</time></trkpt><trkpt lat="50.88187275295304" lon="3.7350895274879017"><ele>30.0</ele><time>2026-05-03T11:01:24Z</time></trkpt><trkpt lat="50.882036334645925" lon="3.735061433717893"><ele>32.0</ele><time>2026-05-03T11:01:25Z</time></trkpt><trkpt lat="50.88219839721891" lon="3.735009687349624"><ele>34.0</ele><time>2026-05-03T11:01:26Z</time></trkpt><trkpt lat="50.88235468684674" lon="3.7349395003565387"><ele>34.0</ele><time>2026-05-03T11:01:27Z</time></trkpt><trkpt lat="50.88251359267431" lon="3.7348561560350793"><ele>34.0</ele><time>2026-05-03T11:01:28Z</time></trkpt><trkpt lat="50.88267498945268" lon="3.7347625475902198"><ele>34.0</ele><time>2026-05-03T11:01:29Z</time></trkpt><trkpt lat="50.88283900423114" lon="3.7346671769806683"><ele>36.333333333333336</ele><time>2026-05-03T11:01:30Z</time></trkpt><trkpt lat="50.883006048345784" lon="3.734571498471705"><ele>38.666666666666664</ele><time>2026-05-03T11:01:31Z</time></trkpt><trkpt lat="50.88317800979576" lon="3.7344741563788975"><ele>41.0</ele><time>2026-05-03T11:01:32Z</time></trkpt><trkpt lat="50.883350048727124" lon="3.734371168945158"><ele>43.0</ele><time>2026-05-03T11:01:33Z</time></trkpt><trkpt lat="50.883525397397065" lon="3.7342631171155563"><ele>45.0</ele><time>2026-05-03T11:01:34Z</time></trkpt><trkpt lat="50.883708604862406" lon="3.734149210880573"><ele>47.0</ele><time>2026-05-03T11:01:35Z</time></trkpt><trkpt lat="50.88388888783968" lon="3.7340425741627987"><ele>47.0</ele><time>2026-05-03T11:01:36Z</time></trkpt><trkpt lat="50.88407970694346" lon="3.7339328341626548"><ele>47.0</ele><time>2026-05-03T11:01:37Z</time></trkpt><trkpt lat="50.8842735072905" lon="3.7338141129514075"><ele>47.0</ele><time>2026-05-03T11:01:38Z</time></trkpt><trkpt lat="50.88447255054733" lon="3.7336905467091563"><ele>46.33333333333333</ele><time>2026-05-03T11:01:39Z</time></trkpt><trkpt lat="50.88466896292744" lon="3.7335806675015166"><ele>45.666666666666664</ele><time>2026-05-03T11:01:40Z</time></trkpt><trkpt lat="50.88484736830577" lon="3.733468300763371"><ele>45.0</ele><time>2026-05-03T11:01:41Z</time></trkpt><trkpt lat="50.88501196900708" lon="3.7333577490972223"><ele>44.666666666666664</ele><time>2026-05-03T11:01:42Z</time></trkpt><trkpt lat="50.88516621847443" lon="3.7332560234548553"><ele>44.33333333333333</ele><time>2026-05-03T11:01:43Z</time></trkpt><trkpt lat="50.88532332644562" lon="3.7331971883834356"><ele>44.0</ele><time>2026-05-03T11:01:43.999Z</time></trkpt><trkpt lat="50.88546923740371" lon="3.7331084180796443"><ele>44.0</ele><time>2026-05-03T11:01:44.999Z</time></trkpt><trkpt lat="50.88562566329656" lon="3.733065946884114"><ele>44.0</ele><time>2026-05-03T11:01:45.999Z</time></trkpt><trkpt lat="50.88578560541365" lon="3.7330372853410623"><ele>44.0</ele><time>2026-05-03T11:01:46.999Z</time></trkpt><trkpt lat="50.88594701272653" lon="3.7330267021113697"><ele>44.33333333333333</ele><time>2026-05-03T11:01:47.999Z</time></trkpt><trkpt lat="50.88610882760653" lon="3.733034230421903"><ele>44.666666666666664</ele><time>2026-05-03T11:01:48.999Z</time></trkpt><trkpt lat="50.88626953324405" lon="3.733070983728914"><ele>45.0</ele><time>2026-05-03T11:01:49.999Z</time></trkpt><trkpt lat="50.886428727320265" lon="3.7331247976081454"><ele>45.0</ele><time>2026-05-03T11:01:50.999Z</time></trkpt><trkpt lat="50.88658179450324" lon="3.73319689287699"><ele>45.0</ele><time>2026-05-03T11:01:51.999Z</time></trkpt><trkpt lat="50.88673559183619" lon="3.7332789780950146"><ele>45.0</ele><time>2026-05-03T11:01:52.999Z</time></trkpt><trkpt lat="50.88688425343569" lon="3.733380098622445"><ele>44.666666666666664</ele><time>2026-05-03T11:01:53.999Z</time></trkpt><trkpt lat="50.887029100518944" lon="3.733509277808995"><ele>44.33333333333333</ele><time>2026-05-03T11:01:54.999Z</time></trkpt><trkpt lat="50.88717503454173" lon="3.733655291144444"><ele>44.0</ele><time>2026-05-03T11:01:55.999Z</time></trkpt><trkpt lat="50.8873392935791" lon="3.7338113727682134"><ele>44.0</ele><time>2026-05-03T11:01:56.999Z</time></trkpt><trkpt lat="50.88751474290222" lon="3.733965786473526"><ele>44.0</ele><time>2026-05-03T11:01:57.999Z</time></trkpt><trkpt lat="50.88770308432537" lon="3.734123349080609"><ele>44.0</ele><time>2026-05-03T11:01:58.999Z</time></trkpt><trkpt lat="50.887895312573505" lon="3.734286005859395"><ele>44.5</ele><time>2026-05-03T11:01:59.999Z</time></trkpt><trkpt lat="50.888093223638776" lon="3.734459806557724"><ele>45.0</ele><time>2026-05-03T11:02:00.999Z</time></trkpt><trkpt lat="50.888298310868535" lon="3.7346392967154514"><ele>45.5</ele><time>2026-05-03T11:02:01.999Z</time></trkpt><trkpt lat="50.88850877158666" lon="3.7348258867814312"><ele>46.0</ele><time>2026-05-03T11:02:02.999Z</time></trkpt><trkpt lat="50.88872375816648" lon="3.7350235445376665"><ele>46.0</ele><time>2026-05-03T11:02:03.999Z</time></trkpt><trkpt lat="50.88894050196805" lon="3.735214106278453"><ele>46.0</ele><time>2026-05-03T11:02:04.999Z</time></trkpt><trkpt lat="50.88915604558169" lon="3.735392761833535"><ele>46.5</ele><time>2026-05-03T11:02:05.999Z</time></trkpt><trkpt lat="50.88937226565748" lon="3.7355504546262157"><ele>47.0</ele><time>2026-05-03T11:02:06.999Z</time></trkpt><trkpt lat="50.88958865019106" lon="3.7357004349189036"><ele>47.0</ele><time>2026-05-03T11:02:07.999Z</time></trkpt><trkpt lat="50.88980308401915" lon="3.7358475032223164"><ele>47.0</ele><time>2026-05-03T11:02:08.999Z</time></trkpt><trkpt lat="50.890014348594995" lon="3.7360005936180305"><ele>47.5</ele><time>2026-05-03T11:02:09.999Z</time></trkpt><trkpt lat="50.890222094899386" lon="3.736153152218791"><ele>48.0</ele><time>2026-05-03T11:02:10.999Z</time></trkpt><trkpt lat="50.89042808506317" lon="3.7363067044436016"><ele>48.0</ele><time>2026-05-03T11:02:11.999Z</time></trkpt><trkpt lat="50.89062833313025" lon="3.736451582094677"><ele>48.0</ele><time>2026-05-03T11:02:12.999Z</time></trkpt><trkpt lat="50.890825182364985" lon="3.7365909286340964"><ele>48.0</ele><time>2026-05-03T11:02:13.999Z</time></trkpt><trkpt lat="50.891018749296485" lon="3.7367287989610896"><ele>48.33333333333333</ele><time>2026-05-03T11:02:14.999Z</time></trkpt><trkpt lat="50.89121002620333" lon="3.7368680173349413"><ele>48.666666666666664</ele><time>2026-05-03T11:02:15.999Z</time></trkpt><trkpt lat="50.89140164536474" lon="3.737007365712242"><ele>49.0</ele><time>2026-05-03T11:02:16.999Z</time></trkpt><trkpt lat="50.891587954400144" lon="3.7371432512428404"><ele>49.0</ele><time>2026-05-03T11:02:17.999Z</time></trkpt><trkpt lat="50.89176616247106" lon="3.7372725077768605"><ele>49.0</ele><time>2026-05-03T11:02:18.999Z</time></trkpt><trkpt lat="50.89193523745098" lon="3.737393463633085"><ele>49.0</ele><time>2026-05-03T11:02:19.999Z</time></trkpt><trkpt lat="50.89209433368376" lon="3.7375092906033065"><ele>49.0</ele><time>2026-05-03T11:02:20.999Z</time></trkpt><trkpt lat="50.89223786281853" lon="3.737616296588317"><ele>49.0</ele><time>2026-05-03T11:02:21.999Z</time></trkpt><trkpt lat="50.892372400594645" lon="3.737712953059496"><ele>49.0</ele><time>2026-05-03T11:02:22.999Z</time></trkpt><trkpt lat="50.89248320682189" lon="3.7378273602885836"><ele>49.0</ele><time>2026-05-03T11:02:23.999Z</time></trkpt><trkpt lat="50.89258554980325" lon="3.737908576400072"><ele>49.166666666666664</ele><time>2026-05-03T11:02:24.999Z</time></trkpt><trkpt lat="50.89267071389264" lon="3.7379726414766385"><ele>49.33333333333333</ele><time>2026-05-03T11:02:25.999Z</time></trkpt><trkpt lat="50.892739197050126" lon="3.7380237971369286"><ele>49.5</ele><time>2026-05-03T11:02:26.999Z</time></trkpt><trkpt lat="50.89279811543754" lon="3.7380699899786385"><ele>49.66666666666667</ele><time>2026-05-03T11:02:27.999Z</time></trkpt><trkpt lat="50.892878445510846" lon="3.7381399696601516"><ele>49.833333333333336</ele><time>2026-05-03T11:02:29.999Z</time></trkpt><trkpt lat="50.892956145896896" lon="3.7381897650512155"><ele>50.0</ele><time>2026-05-03T11:02:32.998Z</time></trkpt><trkpt lat="50.89309626367828" lon="3.7380636074790776"><ele>50.0</ele><time>2026-05-03T11:02:35.998Z</time></trkpt><trkpt lat="50.89314917573018" lon="3.7379470721022265"><ele>50.0</ele><time>2026-05-03T11:02:36.998Z</time></trkpt><trkpt lat="50.89320806898059" lon="3.7378010864720337"><ele>50.0</ele><time>2026-05-03T11:02:37.998Z</time></trkpt><trkpt lat="50.89327765416321" lon="3.7376308026626655"><ele>50.0</ele><time>2026-05-03T11:02:38.998Z</time></trkpt><trkpt lat="50.89335649253634" lon="3.737438866140234"><ele>49.66666666666667</ele><time>2026-05-03T11:02:39.998Z</time></trkpt><trkpt lat="50.89344397308938" lon="3.7372192047002977"><ele>49.33333333333333</ele><time>2026-05-03T11:02:40.998Z</time></trkpt><trkpt lat="50.89354201156946" lon="3.7369757086593918"><ele>49.0</ele><time>2026-05-03T11:02:41.998Z</time></trkpt><trkpt lat="50.89365095473558" lon="3.7367054970455746"><ele>49.0</ele><time>2026-05-03T11:02:42.998Z</time></trkpt><trkpt lat="50.89376569789203" lon="3.7364219773148797"><ele>49.0</ele><time>2026-05-03T11:02:43.998Z</time></trkpt><trkpt lat="50.89388458103366" lon="3.7361180993564997"><ele>49.0</ele><time>2026-05-03T11:02:44.998Z</time></trkpt><trkpt lat="50.89401120787927" lon="3.7357930876365417"><ele>49.5</ele><time>2026-05-03T11:02:45.998Z</time></trkpt><trkpt lat="50.894142241000225" lon="3.7354578172721085"><ele>50.0</ele><time>2026-05-03T11:02:46.998Z</time></trkpt><trkpt lat="50.894276006872715" lon="3.735116534044771"><ele>49.0</ele><time>2026-05-03T11:02:47.998Z</time></trkpt><trkpt lat="50.89443416695621" lon="3.7347652761612387"><ele>48.0</ele><time>2026-05-03T11:02:48.998Z</time></trkpt><trkpt lat="50.89458646849958" lon="3.734389213060635"><ele>47.666666666666664</ele><time>2026-05-03T11:02:49.998Z</time></trkpt><trkpt lat="50.894671229693905" lon="3.7341449536513758"><ele>47.33333333333333</ele><time>2026-05-03T11:02:50.998Z</time></trkpt><trkpt lat="50.89480567029902" lon="3.7338209679954426"><ele>47.0</ele><time>2026-05-03T11:02:51.998Z</time></trkpt><trkpt lat="50.89493196514626" lon="3.733505820188034"><ele>46.5</ele><time>2026-05-03T11:02:52.998Z</time></trkpt><trkpt lat="50.89506075962673" lon="3.7331882978221853"><ele>46.0</ele><time>2026-05-03T11:02:53.998Z</time></trkpt><trkpt lat="50.895189355192436" lon="3.732864166268974"><ele>45.5</ele><time>2026-05-03T11:02:54.998Z</time></trkpt><trkpt lat="50.895318901425696" lon="3.7325385463416363"><ele>45.0</ele><time>2026-05-03T11:02:55.998Z</time></trkpt><trkpt lat="50.89545332292928" lon="3.732208254795345"><ele>45.5</ele><time>2026-05-03T11:02:56.998Z</time></trkpt><trkpt lat="50.895590968526754" lon="3.73187536729831"><ele>46.0</ele><time>2026-05-03T11:02:57.998Z</time></trkpt><trkpt lat="50.89572816186244" lon="3.731547361632511"><ele>46.0</ele><time>2026-05-03T11:02:58.998Z</time></trkpt><trkpt lat="50.89586408122929" lon="3.7312105132843514"><ele>46.0</ele><time>2026-05-03T11:02:59.998Z</time></trkpt><trkpt lat="50.89599953247399" lon="3.7308764536917756"><ele>44.5</ele><time>2026-05-03T11:03:00.998Z</time></trkpt><trkpt lat="50.89613352032481" lon="3.73055042136145"><ele>43.0</ele><time>2026-05-03T11:03:01.998Z</time></trkpt><trkpt lat="50.896266225545475" lon="3.730222885606569"><ele>42.0</ele><time>2026-05-03T11:03:02.998Z</time></trkpt><trkpt lat="50.89640112860753" lon="3.7298997508224443"><ele>41.0</ele><time>2026-05-03T11:03:03.998Z</time></trkpt><trkpt lat="50.896540326147026" lon="3.7295781207544323"><ele>40.5</ele><time>2026-05-03T11:03:04.998Z</time></trkpt><trkpt lat="50.89667913407628" lon="3.7292632168052533"><ele>40.0</ele><time>2026-05-03T11:03:05.998Z</time></trkpt><trkpt lat="50.89682739413441" lon="3.728954607342"><ele>39.5</ele><time>2026-05-03T11:03:06.998Z</time></trkpt><trkpt lat="50.89698167193641" lon="3.7286575491773184"><ele>39.0</ele><time>2026-05-03T11:03:07.998Z</time></trkpt><trkpt lat="50.89713697059129" lon="3.728368441407595"><ele>39.0</ele><time>2026-05-03T11:03:08.998Z</time></trkpt><trkpt lat="50.897308251887765" lon="3.7280988493744913"><ele>39.0</ele><time>2026-05-03T11:03:09.998Z</time></trkpt><trkpt lat="50.897474850580096" lon="3.7278197229939822"><ele>37.0</ele><time>2026-05-03T11:03:10.998Z</time></trkpt><trkpt lat="50.89764261840502" lon="3.7275403949714896"><ele>35.0</ele><time>2026-05-03T11:03:12Z</time></trkpt><trkpt lat="50.89780368384085" lon="3.7272500245328732"><ele>35.0</ele><time>2026-05-03T11:03:13Z</time></trkpt><trkpt lat="50.8979710976683" lon="3.7269693569093714"><ele>35.0</ele><time>2026-05-03T11:03:14Z</time></trkpt><trkpt lat="50.8981482512558" lon="3.726706671767039"><ele>34.5</ele><time>2026-05-03T11:03:15Z</time></trkpt><trkpt lat="50.89830037299424" lon="3.726416882828089"><ele>34.0</ele><time>2026-05-03T11:03:16Z</time></trkpt><trkpt lat="50.89847116806717" lon="3.7261718370125636"><ele>33.0</ele><time>2026-05-03T11:03:17Z</time></trkpt><trkpt lat="50.89862636031264" lon="3.725914931220168"><ele>32.0</ele><time>2026-05-03T11:03:18Z</time></trkpt><trkpt lat="50.89877879189924" lon="3.72566275545488"><ele>31.0</ele><time>2026-05-03T11:03:19Z</time></trkpt><trkpt lat="50.8989147782328" lon="3.7254059982187786"><ele>31.333333333333336</ele><time>2026-05-03T11:03:20Z</time></trkpt><trkpt lat="50.8990531765809" lon="3.7251813894629384"><ele>31.666666666666664</ele><time>2026-05-03T11:03:21Z</time></trkpt><trkpt lat="50.89918187544575" lon="3.7249766497109413"><ele>32.0</ele><time>2026-05-03T11:03:22Z</time></trkpt><trkpt lat="50.89930207581548" lon="3.7247812883888813"><ele>30.666666666666664</ele><time>2026-05-03T11:03:23Z</time></trkpt><trkpt lat="50.89941705041029" lon="3.724590878069528"><ele>29.333333333333336</ele><time>2026-05-03T11:03:24Z</time></trkpt><trkpt lat="50.899528042339995" lon="3.7243981111584827"><ele>28.0</ele><time>2026-05-03T11:03:25Z</time></trkpt><trkpt lat="50.89963120953659" lon="3.7241975882563745"><ele>28.0</ele><time>2026-05-03T11:03:26Z</time></trkpt><trkpt lat="50.89972487597608" lon="3.7239841125967432"><ele>28.0</ele><time>2026-05-03T11:03:27Z</time></trkpt><trkpt lat="50.89980470100769" lon="3.7237634582061236"><ele>28.0</ele><time>2026-05-03T11:03:28Z</time></trkpt><trkpt lat="50.89987545400882" lon="3.723534130699201"><ele>28.333333333333336</ele><time>2026-05-03T11:03:29Z</time></trkpt><trkpt lat="50.89993722395339" lon="3.723303141106276"><ele>28.666666666666664</ele><time>2026-05-03T11:03:30Z</time></trkpt><trkpt lat="50.89998934929008" lon="3.723070587019631"><ele>29.0</ele><time>2026-05-03T11:03:31Z</time></trkpt><trkpt lat="50.900028127369495" lon="3.7228388760707247"><ele>29.0</ele><time>2026-05-03T11:03:32Z</time></trkpt><trkpt lat="50.90006407613819" lon="3.7226153804991657"><ele>29.0</ele><time>2026-05-03T11:03:33Z</time></trkpt><trkpt lat="50.90009647441559" lon="3.722401089102887"><ele>29.0</ele><time>2026-05-03T11:03:34Z</time></trkpt><trkpt lat="50.900125322469925" lon="3.7222047620951275"><ele>29.0</ele><time>2026-05-03T11:03:35Z</time></trkpt><trkpt lat="50.90014955313221" lon="3.72202372200794"><ele>28.5</ele><time>2026-05-03T11:03:36Z</time></trkpt><trkpt lat="50.900173799525675" lon="3.721854449530474"><ele>28.0</ele><time>2026-05-03T11:03:37Z</time></trkpt><trkpt lat="50.90019943702107" lon="3.7216857767505878"><ele>27.5</ele><time>2026-05-03T11:03:38Z</time></trkpt><trkpt lat="50.9002270965703" lon="3.7215069894657047"><ele>27.0</ele><time>2026-05-03T11:03:39Z</time></trkpt><trkpt lat="50.90025350858688" lon="3.721313683435545"><ele>27.0</ele><time>2026-05-03T11:03:40Z</time></trkpt><trkpt lat="50.90028639421919" lon="3.721115619221211"><ele>27.0</ele><time>2026-05-03T11:03:41Z</time></trkpt><trkpt lat="50.90033114732613" lon="3.7209162398705593"><ele>27.0</ele><time>2026-05-03T11:03:42Z</time></trkpt><trkpt lat="50.90039155873594" lon="3.720724556950507"><ele>27.0</ele><time>2026-05-03T11:03:43Z</time></trkpt><trkpt lat="50.90046283964916" lon="3.7205440143682416"><ele>27.0</ele><time>2026-05-03T11:03:44Z</time></trkpt><trkpt lat="50.90055722779486" lon="3.7203734720962"><ele>27.0</ele><time>2026-05-03T11:03:45Z</time></trkpt><trkpt lat="50.90064943533056" lon="3.720223048606368"><ele>27.0</ele><time>2026-05-03T11:03:46Z</time></trkpt><trkpt lat="50.90075973282407" lon="3.720074531680452"><ele>27.0</ele><time>2026-05-03T11:03:47Z</time></trkpt><trkpt lat="50.90087616159622" lon="3.7199477407508126"><ele>25.75</ele><time>2026-05-03T11:03:47.999Z</time></trkpt><trkpt lat="50.90100198729904" lon="3.7198380950118284"><ele>24.5</ele><time>2026-05-03T11:03:48.999Z</time></trkpt><trkpt lat="50.90113068571888" lon="3.7197370692582434"><ele>23.25</ele><time>2026-05-03T11:03:49.999Z</time></trkpt><trkpt lat="50.9012651071419" lon="3.7196441263686304"><ele>22.0</ele><time>2026-05-03T11:03:50.999Z</time></trkpt><trkpt lat="50.90139904603385" lon="3.7195611051274584"><ele>22.0</ele><time>2026-05-03T11:03:51.999Z</time></trkpt><trkpt lat="50.901533892044846" lon="3.719485868251639"><ele>22.0</ele><time>2026-05-03T11:03:52.999Z</time></trkpt><trkpt lat="50.90166486057318" lon="3.7194255851210993"><ele>22.0</ele><time>2026-05-03T11:03:53.999Z</time></trkpt><trkpt lat="50.90179270934537" lon="3.7193752648019234"><ele>22.0</ele><time>2026-05-03T11:03:54.999Z</time></trkpt><trkpt lat="50.90192743689843" lon="3.719329163281545"><ele>22.5</ele><time>2026-05-03T11:03:55.999Z</time></trkpt><trkpt lat="50.90206106790038" lon="3.7192848812939183"><ele>23.0</ele><time>2026-05-03T11:03:56.999Z</time></trkpt><trkpt lat="50.90218595042023" lon="3.7192402064185783"><ele>23.5</ele><time>2026-05-03T11:03:57.999Z</time></trkpt><trkpt lat="50.902300138906355" lon="3.719199491436499"><ele>24.0</ele><time>2026-05-03T11:03:58.999Z</time></trkpt><trkpt lat="50.902401591720924" lon="3.719160241809845"><ele>24.0</ele><time>2026-05-03T11:03:59.999Z</time></trkpt><trkpt lat="50.90249370734436" lon="3.7191235938015867"><ele>24.0</ele><time>2026-05-03T11:04:00.999Z</time></trkpt><trkpt lat="50.9025792562649" lon="3.7190861482767508"><ele>24.0</ele><time>2026-05-03T11:04:01.999Z</time></trkpt><trkpt lat="50.90267332933799" lon="3.7190454887680353"><ele>24.0</ele><time>2026-05-03T11:04:02.999Z</time></trkpt><trkpt lat="50.902775934653626" lon="3.718995205407398"><ele>24.0</ele><time>2026-05-03T11:04:03.999Z</time></trkpt><trkpt lat="50.90288900729615" lon="3.7189297508326016"><ele>24.5</ele><time>2026-05-03T11:04:04.999Z</time></trkpt><trkpt lat="50.903009583228325" lon="3.7188580142596352"><ele>25.0</ele><time>2026-05-03T11:04:05.999Z</time></trkpt><trkpt lat="50.90313926392296" lon="3.7187728297646796"><ele>25.5</ele><time>2026-05-03T11:04:06.999Z</time></trkpt><trkpt lat="50.90327996784242" lon="3.718679633861029"><ele>26.0</ele><time>2026-05-03T11:04:07.999Z</time></trkpt><trkpt lat="50.903424886991054" lon="3.718577010238198"><ele>27.0</ele><time>2026-05-03T11:04:08.999Z</time></trkpt><trkpt lat="50.90357293228544" lon="3.718458275299134"><ele>28.0</ele><time>2026-05-03T11:04:09.999Z</time></trkpt><trkpt lat="50.90373368466731" lon="3.7183473240577"><ele>29.0</ele><time>2026-05-03T11:04:10.999Z</time></trkpt><trkpt lat="50.90389545752411" lon="3.7182239466930516"><ele>29.0</ele><time>2026-05-03T11:04:11.999Z</time></trkpt><trkpt lat="50.90405874464065" lon="3.718099238191995"><ele>29.0</ele><time>2026-05-03T11:04:12.999Z</time></trkpt><trkpt lat="50.90422275750584" lon="3.7179765538115843"><ele>29.0</ele><time>2026-05-03T11:04:13.999Z</time></trkpt><trkpt lat="50.904384147329765" lon="3.717852961835255"><ele>31.0</ele><time>2026-05-03T11:04:14.999Z</time></trkpt><trkpt lat="50.904541610608995" lon="3.7177340975648523"><ele>33.0</ele><time>2026-05-03T11:04:15.999Z</time></trkpt><trkpt lat="50.904691807858114" lon="3.7176213230261186"><ele>35.0</ele><time>2026-05-03T11:04:16.999Z</time></trkpt><trkpt lat="50.904839258423834" lon="3.7175051397178036"><ele>35.0</ele><time>2026-05-03T11:04:17.999Z</time></trkpt><trkpt lat="50.90497995013401" lon="3.717399900852085"><ele>35.0</ele><time>2026-05-03T11:04:18.999Z</time></trkpt><trkpt lat="50.90511892020115" lon="3.7172915603478742"><ele>35.0</ele><time>2026-05-03T11:04:19.999Z</time></trkpt><trkpt lat="50.90525082899315" lon="3.7171899311483942"><ele>35.25</ele><time>2026-05-03T11:04:20.999Z</time></trkpt><trkpt lat="50.90537297894035" lon="3.717096878403719"><ele>35.5</ele><time>2026-05-03T11:04:21.999Z</time></trkpt><trkpt lat="50.90548202823998" lon="3.717015496085234"><ele>35.75</ele><time>2026-05-03T11:04:22.999Z</time></trkpt><trkpt lat="50.90558042726332" lon="3.7169418643172483"><ele>36.0</ele><time>2026-05-03T11:04:23.999Z</time></trkpt><trkpt lat="50.90566626825351" lon="3.7168797458176033"><ele>36.4</ele><time>2026-05-03T11:04:24.999Z</time></trkpt><trkpt lat="50.90573814364823" lon="3.716825219110426"><ele>36.8</ele><time>2026-05-03T11:04:25.999Z</time></trkpt><trkpt lat="50.905798423229605" lon="3.7167769338900056"><ele>37.199999999999996</ele><time>2026-05-03T11:04:26.999Z</time></trkpt><trkpt lat="50.905893923439386" lon="3.7167575696613393"><ele>37.6</ele><time>2026-05-03T11:04:28.999Z</time></trkpt><trkpt lat="50.90597315313761" lon="3.71683347930225"><ele>38.0</ele><time>2026-05-03T11:04:30.999Z</time></trkpt><trkpt lat="50.906040027097625" lon="3.7170041648142496"><ele>38.4</ele><time>2026-05-03T11:04:32.999Z</time></trkpt><trkpt lat="50.906084518525674" lon="3.717112856812875"><ele>38.8</ele><time>2026-05-03T11:04:33.999Z</time></trkpt><trkpt lat="50.90613649616257" lon="3.7172333433578797"><ele>39.2</ele><time>2026-05-03T11:04:34.999Z</time></trkpt><trkpt lat="50.90620224569275" lon="3.717356997107655"><ele>39.6</ele><time>2026-05-03T11:04:35.998Z</time></trkpt><trkpt lat="50.90627811764485" lon="3.7174771972566383"><ele>40.0</ele><time>2026-05-03T11:04:36.998Z</time></trkpt><trkpt lat="50.90637072588316" lon="3.7175920294695954"><ele>40.0</ele><time>2026-05-03T11:04:37.998Z</time></trkpt><trkpt lat="50.906470174606596" lon="3.717703422535728"><ele>40.0</ele><time>2026-05-03T11:04:38.998Z</time></trkpt><trkpt lat="50.90657830986813" lon="3.7178104852874565"><ele>40.0</ele><time>2026-05-03T11:04:39.998Z</time></trkpt><trkpt lat="50.906685931292635" lon="3.717907868928059"><ele>40.0</ele><time>2026-05-03T11:04:40.998Z</time></trkpt><trkpt lat="50.906795272112994" lon="3.7180027409360443"><ele>39.5</ele><time>2026-05-03T11:04:41.998Z</time></trkpt><trkpt lat="50.906906187113904" lon="3.7180921132142366"><ele>39.0</ele><time>2026-05-03T11:04:42.998Z</time></trkpt><trkpt lat="50.907027645823" lon="3.7181635978548715"><ele>38.5</ele><time>2026-05-03T11:04:43.998Z</time></trkpt><trkpt lat="50.907157836776115" lon="3.7182176598354375"><ele>38.0</ele><time>2026-05-03T11:04:44.998Z</time></trkpt><trkpt lat="50.90730539999072" lon="3.7182589593841415"><ele>38.0</ele><time>2026-05-03T11:04:45.998Z</time></trkpt><trkpt lat="50.90746463030739" lon="3.71830643567872"><ele>38.0</ele><time>2026-05-03T11:04:46.998Z</time></trkpt><trkpt lat="50.90763183071846" lon="3.7183552468938927"><ele>38.0</ele><time>2026-05-03T11:04:47.998Z</time></trkpt><trkpt lat="50.90780841843755" lon="3.718409844012174"><ele>39.33333333333333</ele><time>2026-05-03T11:04:48.998Z</time></trkpt><trkpt lat="50.90799161038728" lon="3.7184682505792512"><ele>40.666666666666664</ele><time>2026-05-03T11:04:49.998Z</time></trkpt><trkpt lat="50.90817896610397" lon="3.7185326732562407"><ele>42.0</ele><time>2026-05-03T11:04:50.998Z</time></trkpt><trkpt lat="50.90837575048551" lon="3.7185976000429988"><ele>43.0</ele><time>2026-05-03T11:04:51.998Z</time></trkpt><trkpt lat="50.90857360559977" lon="3.7186618445395365"><ele>44.0</ele><time>2026-05-03T11:04:52.998Z</time></trkpt><trkpt lat="50.90876507246554" lon="3.7187174131573504"><ele>45.0</ele><time>2026-05-03T11:04:53.998Z</time></trkpt><trkpt lat="50.90895088591634" lon="3.7187759274981733"><ele>45.0</ele><time>2026-05-03T11:04:54.998Z</time></trkpt><trkpt lat="50.909127557861154" lon="3.718831718170956"><ele>45.0</ele><time>2026-05-03T11:04:55.998Z</time></trkpt><trkpt lat="50.90930558692543" lon="3.7188870430811907"><ele>45.0</ele><time>2026-05-03T11:04:56.998Z</time></trkpt><trkpt lat="50.90947916961662" lon="3.718938969769681"><ele>46.33333333333333</ele><time>2026-05-03T11:04:57.998Z</time></trkpt><trkpt lat="50.90964782643892" lon="3.7189907604308337"><ele>47.666666666666664</ele><time>2026-05-03T11:04:58.998Z</time></trkpt><trkpt lat="50.90981650418657" lon="3.7190460194851975"><ele>49.0</ele><time>2026-05-03T11:04:59.998Z</time></trkpt><trkpt lat="50.909986408153436" lon="3.7191032309685554"><ele>49.666666666666664</ele><time>2026-05-03T11:05:00.998Z</time></trkpt><trkpt lat="50.91015875141662" lon="3.7191588013948698"><ele>50.33333333333333</ele><time>2026-05-03T11:05:01.998Z</time></trkpt><trkpt lat="50.91032757056632" lon="3.7192117076321396"><ele>51.0</ele><time>2026-05-03T11:05:02.998Z</time></trkpt><trkpt lat="50.91048971493547" lon="3.719261596764455"><ele>51.0</ele><time>2026-05-03T11:05:03.998Z</time></trkpt><trkpt lat="50.910643333688526" lon="3.7193054544127397"><ele>51.0</ele><time>2026-05-03T11:05:04.998Z</time></trkpt><trkpt lat="50.91079029056541" lon="3.7193505422819197"><ele>51.0</ele><time>2026-05-03T11:05:05.998Z</time></trkpt><trkpt lat="50.91092550841393" lon="3.719395491716293"><ele>51.0</ele><time>2026-05-03T11:05:06.998Z</time></trkpt><trkpt lat="50.91105186512778" lon="3.7194446130777807"><ele>52.0</ele><time>2026-05-03T11:05:07.998Z</time></trkpt><trkpt lat="50.91116784681051" lon="3.7195036418640655"><ele>53.0</ele><time>2026-05-03T11:05:08.998Z</time></trkpt><trkpt lat="50.911280973051056" lon="3.7195799215678615"><ele>54.0</ele><time>2026-05-03T11:05:09.998Z</time></trkpt><trkpt lat="50.911388710978606" lon="3.7196801129892365"><ele>55.0</ele><time>2026-05-03T11:05:10.998Z</time></trkpt><trkpt lat="50.911496438288935" lon="3.719799746364771"><ele>55.0</ele><time>2026-05-03T11:05:11.998Z</time></trkpt><trkpt lat="50.91160132425429" lon="3.7199345517653954"><ele>55.0</ele><time>2026-05-03T11:05:12.998Z</time></trkpt><trkpt lat="50.91169672884662" lon="3.720089486128178"><ele>55.0</ele><time>2026-05-03T11:05:13.998Z</time></trkpt><trkpt lat="50.9117840506141" lon="3.7202659246806116"><ele>55.0</ele><time>2026-05-03T11:05:14.998Z</time></trkpt><trkpt lat="50.911860020508115" lon="3.7204618651473433"><ele>56.666666666666664</ele><time>2026-05-03T11:05:15.998Z</time></trkpt><trkpt lat="50.91192556884617" lon="3.7206720753889244"><ele>58.33333333333333</ele><time>2026-05-03T11:05:16.998Z</time></trkpt><trkpt lat="50.91198288014384" lon="3.7208929078687896"><ele>60.0</ele><time>2026-05-03T11:05:18Z</time></trkpt><trkpt lat="50.91204701575391" lon="3.7211135656023906"><ele>60.0</ele><time>2026-05-03T11:05:19Z</time></trkpt><trkpt lat="50.9121140352083" lon="3.721338094771467"><ele>60.0</ele><time>2026-05-03T11:05:20Z</time></trkpt><trkpt lat="50.91218232120147" lon="3.7215661654008647"><ele>60.0</ele><time>2026-05-03T11:05:21Z</time></trkpt><trkpt lat="50.91225445236129" lon="3.7218027741272675"><ele>60.0</ele><time>2026-05-03T11:05:22Z</time></trkpt><trkpt lat="50.91232554498978" lon="3.7220471686854366"><ele>60.0</ele><time>2026-05-03T11:05:23Z</time></trkpt><trkpt lat="50.91239901271824" lon="3.7223038683306466"><ele>60.0</ele><time>2026-05-03T11:05:24Z</time></trkpt><trkpt lat="50.9124723550108" lon="3.722560186632381"><ele>60.0</ele><time>2026-05-03T11:05:25Z</time></trkpt><trkpt lat="50.91254861114171" lon="3.7228267953899907"><ele>60.0</ele><time>2026-05-03T11:05:26Z</time></trkpt><trkpt lat="50.912619785868614" lon="3.7230835706603345"><ele>60.0</ele><time>2026-05-03T11:05:27Z</time></trkpt><trkpt lat="50.9126926299216" lon="3.7233374635108687"><ele>59.66666666666667</ele><time>2026-05-03T11:05:28Z</time></trkpt><trkpt lat="50.91276310997066" lon="3.7235857508222487"><ele>59.333333333333336</ele><time>2026-05-03T11:05:29Z</time></trkpt><trkpt lat="50.91283258499915" lon="3.723825499379683"><ele>59.0</ele><time>2026-05-03T11:05:30Z</time></trkpt><trkpt lat="50.91290239657285" lon="3.724065803198265"><ele>59.0</ele><time>2026-05-03T11:05:31Z</time></trkpt><trkpt lat="50.9129709113889" lon="3.7243021801071063"><ele>59.0</ele><time>2026-05-03T11:05:32Z</time></trkpt><trkpt lat="50.91303948489215" lon="3.7245379992391"><ele>59.0</ele><time>2026-05-03T11:05:33Z</time></trkpt><trkpt lat="50.91310643152104" lon="3.724769621373469"><ele>59.0</ele><time>2026-05-03T11:05:34Z</time></trkpt><trkpt lat="50.91316791792369" lon="3.724992042633639"><ele>59.0</ele><time>2026-05-03T11:05:35Z</time></trkpt><trkpt lat="50.9132284877728" lon="3.725202176179168"><ele>59.0</ele><time>2026-05-03T11:05:36Z</time></trkpt><trkpt lat="50.91328529235968" lon="3.7253938494056733"><ele>59.0</ele><time>2026-05-03T11:05:37Z</time></trkpt><trkpt lat="50.9133406366775" lon="3.7255800944982758"><ele>59.25</ele><time>2026-05-03T11:05:38Z</time></trkpt><trkpt lat="50.91339787979822" lon="3.7257608801184423"><ele>59.5</ele><time>2026-05-03T11:05:39Z</time></trkpt><trkpt lat="50.91346563019482" lon="3.725934426640119"><ele>59.75</ele><time>2026-05-03T11:05:40Z</time></trkpt><trkpt lat="50.913545185010335" lon="3.7260994839416246"><ele>60.0</ele><time>2026-05-03T11:05:41Z</time></trkpt><trkpt lat="50.913635279563714" lon="3.7262455204257847"><ele>59.5</ele><time>2026-05-03T11:05:42Z</time></trkpt><trkpt lat="50.91373460294709" lon="3.7263683259047307"><ele>59.0</ele><time>2026-05-03T11:05:43Z</time></trkpt><trkpt lat="50.913841081685824" lon="3.7264610575812953"><ele>58.5</ele><time>2026-05-03T11:05:44Z</time></trkpt><trkpt lat="50.91395860601927" lon="3.7265308515945894"><ele>58.0</ele><time>2026-05-03T11:05:45Z</time></trkpt><trkpt lat="50.91407972559988" lon="3.726581446338951"><ele>58.0</ele><time>2026-05-03T11:05:46Z</time></trkpt><trkpt lat="50.91420673296613" lon="3.7266274349543185"><ele>58.0</ele><time>2026-05-03T11:05:47Z</time></trkpt><trkpt lat="50.914346165822266" lon="3.7266754448410797"><ele>58.0</ele><time>2026-05-03T11:05:48Z</time></trkpt><trkpt lat="50.914493798805" lon="3.726732835717274"><ele>58.0</ele><time>2026-05-03T11:05:49Z</time></trkpt><trkpt lat="50.91464452688165" lon="3.726798537993741"><ele>57.33333333333333</ele><time>2026-05-03T11:05:50Z</time></trkpt><trkpt lat="50.91480234806963" lon="3.726861743413863"><ele>56.66666666666667</ele><time>2026-05-03T11:05:50.999Z</time></trkpt><trkpt lat="50.91496184034626" lon="3.726922874910149"><ele>56.0</ele><time>2026-05-03T11:05:51.999Z</time></trkpt><trkpt lat="50.9151262231148" lon="3.726989939301685"><ele>54.66666666666667</ele><time>2026-05-03T11:05:52.999Z</time></trkpt><trkpt lat="50.9152952856794" lon="3.727056854369041"><ele>53.33333333333333</ele><time>2026-05-03T11:05:53.999Z</time></trkpt><trkpt lat="50.915467236220294" lon="3.7271249222288247"><ele>52.0</ele><time>2026-05-03T11:05:54.999Z</time></trkpt><trkpt lat="50.915641312213666" lon="3.727190775852195"><ele>52.0</ele><time>2026-05-03T11:05:55.999Z</time></trkpt><trkpt lat="50.915816451851946" lon="3.7272598277381457"><ele>52.0</ele><time>2026-05-03T11:05:56.999Z</time></trkpt><trkpt lat="50.915987504360395" lon="3.727325257145446"><ele>52.0</ele><time>2026-05-03T11:05:57.999Z</time></trkpt><trkpt lat="50.916150416340066" lon="3.7273886504529554"><ele>51.666666666666664</ele><time>2026-05-03T11:05:58.999Z</time></trkpt><trkpt lat="50.91631430454526" lon="3.727452561655692"><ele>51.33333333333333</ele><time>2026-05-03T11:05:59.999Z</time></trkpt><trkpt lat="50.91647321178941" lon="3.7275139494519993"><ele>51.0</ele><time>2026-05-03T11:06:00.999Z</time></trkpt><trkpt lat="50.916630069723944" lon="3.7275733216159064"><ele>50.66666666666667</ele><time>2026-05-03T11:06:01.999Z</time></trkpt><trkpt lat="50.91678283414037" lon="3.727629236452798"><ele>50.333333333333336</ele><time>2026-05-03T11:06:02.999Z</time></trkpt><trkpt lat="50.916935487963656" lon="3.7276867977188384"><ele>50.0</ele><time>2026-05-03T11:06:03.999Z</time></trkpt><trkpt lat="50.917087411472714" lon="3.727748655607682"><ele>49.75</ele><time>2026-05-03T11:06:04.999Z</time></trkpt><trkpt lat="50.91723640744633" lon="3.727811446643843"><ele>49.5</ele><time>2026-05-03T11:06:05.999Z</time></trkpt><trkpt lat="50.917378987257635" lon="3.7278708138135377"><ele>49.25</ele><time>2026-05-03T11:06:06.999Z</time></trkpt><trkpt lat="50.917520048290555" lon="3.7279279204815885"><ele>49.0</ele><time>2026-05-03T11:06:07.999Z</time></trkpt><trkpt lat="50.917655671386974" lon="3.727980516773872"><ele>48.75</ele><time>2026-05-03T11:06:08.999Z</time></trkpt><trkpt lat="50.917790263887625" lon="3.728030229472316"><ele>48.5</ele><time>2026-05-03T11:06:09.999Z</time></trkpt><trkpt lat="50.917926629882565" lon="3.728079964437526"><ele>48.25</ele><time>2026-05-03T11:06:10.999Z</time></trkpt><trkpt lat="50.91806114018203" lon="3.7281295130540957"><ele>48.0</ele><time>2026-05-03T11:06:11.999Z</time></trkpt><trkpt lat="50.918191990151925" lon="3.728181618101333"><ele>48.0</ele><time>2026-05-03T11:06:12.999Z</time></trkpt><trkpt lat="50.91832461871352" lon="3.728236522663529"><ele>48.0</ele><time>2026-05-03T11:06:13.999Z</time></trkpt><trkpt lat="50.9184540496609" lon="3.7282913058485794"><ele>48.0</ele><time>2026-05-03T11:06:14.999Z</time></trkpt><trkpt lat="50.91858315251689" lon="3.728343777090738"><ele>48.0</ele><time>2026-05-03T11:06:15.999Z</time></trkpt><trkpt lat="50.91871901271226" lon="3.7283947839109333"><ele>47.666666666666664</ele><time>2026-05-03T11:06:16.999Z</time></trkpt><trkpt lat="50.918859354560716" lon="3.728450107562406"><ele>47.33333333333333</ele><time>2026-05-03T11:06:17.999Z</time></trkpt><trkpt lat="50.919005681428466" lon="3.728513729791097"><ele>47.0</ele><time>2026-05-03T11:06:18.999Z</time></trkpt><trkpt lat="50.91915165316097" lon="3.728595441417599"><ele>46.33333333333333</ele><time>2026-05-03T11:06:19.999Z</time></trkpt><trkpt lat="50.919299913285045" lon="3.7286884271860554"><ele>45.666666666666664</ele><time>2026-05-03T11:06:20.999Z</time></trkpt><trkpt lat="50.919455582705524" lon="3.7287936878845835"><ele>45.0</ele><time>2026-05-03T11:06:21.999Z</time></trkpt><trkpt lat="50.91961639415151" lon="3.728898250438501"><ele>45.0</ele><time>2026-05-03T11:06:22.999Z</time></trkpt><trkpt lat="50.91977712191939" lon="3.7290013330878584"><ele>45.0</ele><time>2026-05-03T11:06:23.999Z</time></trkpt><trkpt lat="50.91993942869196" lon="3.729107676279189"><ele>45.0</ele><time>2026-05-03T11:06:24.999Z</time></trkpt><trkpt lat="50.92010499327121" lon="3.7292148897203727"><ele>44.666666666666664</ele><time>2026-05-03T11:06:25.999Z</time></trkpt><trkpt lat="50.92026704288481" lon="3.7293197118779724"><ele>44.33333333333333</ele><time>2026-05-03T11:06:26.999Z</time></trkpt><trkpt lat="50.92042696976555" lon="3.7294181657313556"><ele>44.0</ele><time>2026-05-03T11:06:27.999Z</time></trkpt><trkpt lat="50.92057959223773" lon="3.7295123451053405"><ele>44.0</ele><time>2026-05-03T11:06:28.999Z</time></trkpt><trkpt lat="50.920731333293055" lon="3.729608839645453"><ele>44.0</ele><time>2026-05-03T11:06:29.999Z</time></trkpt><trkpt lat="50.92087696382613" lon="3.729704526749351"><ele>44.0</ele><time>2026-05-03T11:06:30.999Z</time></trkpt><trkpt lat="50.9210220351542" lon="3.7297990389593543"><ele>43.666666666666664</ele><time>2026-05-03T11:06:31.999Z</time></trkpt><trkpt lat="50.921170429885" lon="3.7298938949710245"><ele>43.333333333333336</ele><time>2026-05-03T11:06:32.999Z</time></trkpt><trkpt lat="50.92132004098121" lon="3.729989957566014"><ele>43.0</ele><time>2026-05-03T11:06:33.999Z</time></trkpt><trkpt lat="50.921469601948246" lon="3.7300904449373746"><ele>43.0</ele><time>2026-05-03T11:06:34.999Z</time></trkpt><trkpt lat="50.92162225729164" lon="3.730189562926125"><ele>43.0</ele><time>2026-05-03T11:06:35.999Z</time></trkpt><trkpt lat="50.92177428965465" lon="3.7302899563552234"><ele>43.0</ele><time>2026-05-03T11:06:36.999Z</time></trkpt><trkpt lat="50.92192829681438" lon="3.7303836507979895"><ele>43.0</ele><time>2026-05-03T11:06:37.999Z</time></trkpt><trkpt lat="50.92208643589199" lon="3.7304646077361645"><ele>43.0</ele><time>2026-05-03T11:06:38.998Z</time></trkpt><trkpt lat="50.92225388084955" lon="3.730528837627608"><ele>43.0</ele><time>2026-05-03T11:06:39.998Z</time></trkpt><trkpt lat="50.92242594279439" lon="3.7305817029962585"><ele>42.66666666666667</ele><time>2026-05-03T11:06:40.998Z</time></trkpt><trkpt lat="50.922601246589245" lon="3.730627616568684"><ele>42.333333333333336</ele><time>2026-05-03T11:06:41.998Z</time></trkpt><trkpt lat="50.922773610624866" lon="3.7306712571579617"><ele>42.0</ele><time>2026-05-03T11:06:42.998Z</time></trkpt><trkpt lat="50.922944709795765" lon="3.730715889494998"><ele>42.0</ele><time>2026-05-03T11:06:43.998Z</time></trkpt><trkpt lat="50.923110116225466" lon="3.7307652150042205"><ele>42.0</ele><time>2026-05-03T11:06:44.998Z</time></trkpt><trkpt lat="50.92327363060746" lon="3.7308116243106593"><ele>42.0</ele><time>2026-05-03T11:06:45.998Z</time></trkpt><trkpt lat="50.923433213495834" lon="3.7308537929227"><ele>42.333333333333336</ele><time>2026-05-03T11:06:46.998Z</time></trkpt><trkpt lat="50.923593194062136" lon="3.7308943813248945"><ele>42.66666666666667</ele><time>2026-05-03T11:06:47.998Z</time></trkpt><trkpt lat="50.92374576252455" lon="3.7309344493632297"><ele>43.0</ele><time>2026-05-03T11:06:48.998Z</time></trkpt><trkpt lat="50.9238946273909" lon="3.7309743538316447"><ele>43.0</ele><time>2026-05-03T11:06:49.998Z</time></trkpt><trkpt lat="50.92403791398552" lon="3.731010752412816"><ele>43.0</ele><time>2026-05-03T11:06:50.998Z</time></trkpt><trkpt lat="50.92418343457243" lon="3.731047813719485"><ele>43.0</ele><time>2026-05-03T11:06:51.998Z</time></trkpt><trkpt lat="50.92432860205592" lon="3.731082636929319"><ele>43.0</ele><time>2026-05-03T11:06:52.998Z</time></trkpt><trkpt lat="50.92447124484948" lon="3.731117434272587"><ele>42.75</ele><time>2026-05-03T11:06:53.998Z</time></trkpt><trkpt lat="50.92461459957295" lon="3.731154545964743"><ele>42.5</ele><time>2026-05-03T11:06:54.998Z</time></trkpt><trkpt lat="50.92475943648609" lon="3.731193182034716"><ele>42.25</ele><time>2026-05-03T11:06:55.998Z</time></trkpt><trkpt lat="50.924908056189075" lon="3.7312366363774854"><ele>42.0</ele><time>2026-05-03T11:06:56.998Z</time></trkpt><trkpt lat="50.92506140652348" lon="3.731290802368234"><ele>42.666666666666664</ele><time>2026-05-03T11:06:57.998Z</time></trkpt><trkpt lat="50.92521250232793" lon="3.7313620958425555"><ele>43.33333333333333</ele><time>2026-05-03T11:06:58.998Z</time></trkpt><trkpt lat="50.92536178608963" lon="3.7314560062598425"><ele>44.0</ele><time>2026-05-03T11:06:59.998Z</time></trkpt><trkpt lat="50.92550439678003" lon="3.7315701590902903"><ele>44.0</ele><time>2026-05-03T11:07:00.998Z</time></trkpt><trkpt lat="50.92564277500758" lon="3.731702647494888"><ele>44.0</ele><time>2026-05-03T11:07:01.998Z</time></trkpt><trkpt lat="50.925781545628524" lon="3.731847474091341"><ele>44.0</ele><time>2026-05-03T11:07:02.998Z</time></trkpt><trkpt lat="50.925918265029516" lon="3.731994243252977"><ele>44.33333333333333</ele><time>2026-05-03T11:07:03.998Z</time></trkpt><trkpt lat="50.92605482283155" lon="3.732140281585657"><ele>44.666666666666664</ele><time>2026-05-03T11:07:04.998Z</time></trkpt><trkpt lat="50.92619047367308" lon="3.732270600527139"><ele>45.0</ele><time>2026-05-03T11:07:05.998Z</time></trkpt><trkpt lat="50.926327510203905" lon="3.732380035959242"><ele>45.0</ele><time>2026-05-03T11:07:06.998Z</time></trkpt><trkpt lat="50.92646924876879" lon="3.732462340025913"><ele>45.0</ele><time>2026-05-03T11:07:07.998Z</time></trkpt><trkpt lat="50.926614727019974" lon="3.7325178149402047"><ele>45.0</ele><time>2026-05-03T11:07:08.998Z</time></trkpt><trkpt lat="50.92676690952576" lon="3.7325462292697735"><ele>45.333333333333336</ele><time>2026-05-03T11:07:09.998Z</time></trkpt><trkpt lat="50.926922630234834" lon="3.732567703139211"><ele>45.66666666666667</ele><time>2026-05-03T11:07:10.998Z</time></trkpt><trkpt lat="50.92707961759222" lon="3.7325846060013763"><ele>46.0</ele><time>2026-05-03T11:07:11.998Z</time></trkpt><trkpt lat="50.92723936573067" lon="3.732605063364875"><ele>46.0</ele><time>2026-05-03T11:07:12.998Z</time></trkpt><trkpt lat="50.9274010134387" lon="3.7326318166117085"><ele>46.0</ele><time>2026-05-03T11:07:13.998Z</time></trkpt><trkpt lat="50.927564810075836" lon="3.7326625506814763"><ele>46.0</ele><time>2026-05-03T11:07:14.998Z</time></trkpt><trkpt lat="50.92772570309783" lon="3.7326878270781725"><ele>45.66666666666667</ele><time>2026-05-03T11:07:15.998Z</time></trkpt><trkpt lat="50.92788299967601" lon="3.732711476419931"><ele>45.333333333333336</ele><time>2026-05-03T11:07:16.998Z</time></trkpt><trkpt lat="50.92804240817687" lon="3.7327351013729992"><ele>45.0</ele><time>2026-05-03T11:07:17.998Z</time></trkpt><trkpt lat="50.928207975496" lon="3.732757342337105"><ele>45.0</ele><time>2026-05-03T11:07:18.998Z</time></trkpt><trkpt lat="50.92837447141608" lon="3.7327756833264547"><ele>45.0</ele><time>2026-05-03T11:07:19.998Z</time></trkpt><trkpt lat="50.92853986032872" lon="3.7327813933132594"><ele>45.0</ele><time>2026-05-03T11:07:20.998Z</time></trkpt><trkpt lat="50.928708702537676" lon="3.7327688436578823"><ele>44.666666666666664</ele><time>2026-05-03T11:07:21.998Z</time></trkpt><trkpt lat="50.928889574573844" lon="3.732724331860878"><ele>44.33333333333333</ele><time>2026-05-03T11:07:23Z</time></trkpt><trkpt lat="50.92909445732344" lon="3.73269936030896"><ele>44.0</ele><time>2026-05-03T11:07:24Z</time></trkpt><trkpt lat="50.92931140520714" lon="3.7326295895460593"><ele>44.0</ele><time>2026-05-03T11:07:25Z</time></trkpt><trkpt lat="50.92953463244535" lon="3.732556455767765"><ele>44.0</ele><time>2026-05-03T11:07:26Z</time></trkpt><trkpt lat="50.92974030125264" lon="3.7324886646386783"><ele>44.0</ele><time>2026-05-03T11:07:27Z</time></trkpt><trkpt lat="50.929933018433445" lon="3.7324267123854735"><ele>44.33333333333333</ele><time>2026-05-03T11:07:28Z</time></trkpt><trkpt lat="50.93011009382082" lon="3.7323700968077844"><ele>44.666666666666664</ele><time>2026-05-03T11:07:29Z</time></trkpt><trkpt lat="50.930280722593" lon="3.73231206628697"><ele>45.0</ele><time>2026-05-03T11:07:30Z</time></trkpt><trkpt lat="50.93045062251527" lon="3.732303679399418"><ele>45.0</ele><time>2026-05-03T11:07:31Z</time></trkpt><trkpt lat="50.93061633434983" lon="3.732311816346124"><ele>45.0</ele><time>2026-05-03T11:07:32Z</time></trkpt><trkpt lat="50.93078562888144" lon="3.73234340948189"><ele>45.0</ele><time>2026-05-03T11:07:33Z</time></trkpt><trkpt lat="50.93096018381081" lon="3.7323814895154164"><ele>45.0</ele><time>2026-05-03T11:07:34Z</time></trkpt><trkpt lat="50.931144010868124" lon="3.7324353118184375"><ele>45.0</ele><time>2026-05-03T11:07:35Z</time></trkpt><trkpt lat="50.9313231474004" lon="3.732490622688845"><ele>45.0</ele><time>2026-05-03T11:07:36Z</time></trkpt><trkpt lat="50.93149689672514" lon="3.7325447669506926"><ele>45.0</ele><time>2026-05-03T11:07:37Z</time></trkpt><trkpt lat="50.93166331305002" lon="3.7325959616707083"><ele>45.0</ele><time>2026-05-03T11:07:38Z</time></trkpt><trkpt lat="50.93182102629593" lon="3.732641512897215"><ele>45.0</ele><time>2026-05-03T11:07:39Z</time></trkpt><trkpt lat="50.93196897126289" lon="3.7326824730188917"><ele>44.75</ele><time>2026-05-03T11:07:40Z</time></trkpt><trkpt lat="50.93210343711803" lon="3.73272088686472"><ele>44.5</ele><time>2026-05-03T11:07:41Z</time></trkpt><trkpt lat="50.93222757508078" lon="3.7327569798755467"><ele>44.25</ele><time>2026-05-03T11:07:42Z</time></trkpt><trkpt lat="50.932336899791686" lon="3.7327921183194044"><ele>44.0</ele><time>2026-05-03T11:07:43Z</time></trkpt><trkpt lat="50.932440811892846" lon="3.7328237849419663"><ele>44.0</ele><time>2026-05-03T11:07:44Z</time></trkpt><trkpt lat="50.9325438619775" lon="3.7328530078581115"><ele>44.0</ele><time>2026-05-03T11:07:45Z</time></trkpt><trkpt lat="50.93265155181502" lon="3.7328829244400987"><ele>44.0</ele><time>2026-05-03T11:07:46Z</time></trkpt><trkpt lat="50.93275343046731" lon="3.7329105999690344"><ele>44.0</ele><time>2026-05-03T11:07:47Z</time></trkpt><trkpt lat="50.93285553014218" lon="3.7329422170818214"><ele>44.0</ele><time>2026-05-03T11:07:48Z</time></trkpt><trkpt lat="50.932980707355334" lon="3.7329975911000344"><ele>44.0</ele><time>2026-05-03T11:07:49Z</time></trkpt><trkpt lat="50.93312653855001" lon="3.7330735757468108"><ele>44.0</ele><time>2026-05-03T11:07:50Z</time></trkpt><trkpt lat="50.93328646906818" lon="3.7331662884383983"><ele>44.0</ele><time>2026-05-03T11:07:51Z</time></trkpt><trkpt lat="50.93346395170207" lon="3.7332713278771834"><ele>43.33333333333333</ele><time>2026-05-03T11:07:52Z</time></trkpt><trkpt lat="50.933657733770886" lon="3.7333885531022997"><ele>42.666666666666664</ele><time>2026-05-03T11:07:53Z</time></trkpt><trkpt lat="50.93386044570195" lon="3.733508524996684"><ele>42.0</ele><time>2026-05-03T11:07:54Z</time></trkpt><trkpt lat="50.934066118342116" lon="3.733628856063379"><ele>42.0</ele><time>2026-05-03T11:07:55Z</time></trkpt><trkpt lat="50.934265883530735" lon="3.7337461878143614"><ele>42.0</ele><time>2026-05-03T11:07:56Z</time></trkpt><trkpt lat="50.934450549268476" lon="3.7338524105629864"><ele>42.0</ele><time>2026-05-03T11:07:57Z</time></trkpt><trkpt lat="50.93463244573591" lon="3.733957883874951"><ele>42.0</ele><time>2026-05-03T11:07:57.999Z</time></trkpt><trkpt lat="50.93480592200617" lon="3.734059019302289"><ele>42.0</ele><time>2026-05-03T11:07:58.999Z</time></trkpt><trkpt lat="50.9349721986005" lon="3.73415329849702"><ele>42.0</ele><time>2026-05-03T11:07:59.999Z</time></trkpt><trkpt lat="50.93513936694181" lon="3.7342344186988465"><ele>42.333333333333336</ele><time>2026-05-03T11:08:00.999Z</time></trkpt><trkpt lat="50.93530946042855" lon="3.734290602097731"><ele>42.66666666666667</ele><time>2026-05-03T11:08:01.999Z</time></trkpt><trkpt lat="50.93548525247969" lon="3.734326731859568"><ele>43.0</ele><time>2026-05-03T11:08:02.999Z</time></trkpt><trkpt lat="50.93566300558116" lon="3.7343445327847564"><ele>43.0</ele><time>2026-05-03T11:08:03.999Z</time></trkpt><trkpt lat="50.935838923026466" lon="3.7343501061015236"><ele>43.0</ele><time>2026-05-03T11:08:04.999Z</time></trkpt><trkpt lat="50.936018608837934" lon="3.7343519351916674"><ele>43.0</ele><time>2026-05-03T11:08:05.999Z</time></trkpt><trkpt lat="50.93619942263477" lon="3.734366333420782"><ele>43.0</ele><time>2026-05-03T11:08:06.999Z</time></trkpt><trkpt lat="50.9363791861636" lon="3.734403569078133"><ele>43.0</ele><time>2026-05-03T11:08:07.999Z</time></trkpt><trkpt lat="50.936559208957284" lon="3.7344621660130897"><ele>43.0</ele><time>2026-05-03T11:08:08.999Z</time></trkpt><trkpt lat="50.9367441829449" lon="3.7345418563187303"><ele>44.0</ele><time>2026-05-03T11:08:09.999Z</time></trkpt><trkpt lat="50.93694203350069" lon="3.734628086033655"><ele>45.0</ele><time>2026-05-03T11:08:10.999Z</time></trkpt><trkpt lat="50.93714524671538" lon="3.734723235057418"><ele>46.0</ele><time>2026-05-03T11:08:11.999Z</time></trkpt><trkpt lat="50.93735888401455" lon="3.7348179849981773"><ele>48.0</ele><time>2026-05-03T11:08:12.999Z</time></trkpt><trkpt lat="50.937576172366164" lon="3.7349111049562302"><ele>50.0</ele><time>2026-05-03T11:08:13.999Z</time></trkpt><trkpt lat="50.937793692393186" lon="3.735004386247803"><ele>50.0</ele><time>2026-05-03T11:08:14.999Z</time></trkpt><trkpt lat="50.93801497512697" lon="3.735097866417525"><ele>50.0</ele><time>2026-05-03T11:08:15.999Z</time></trkpt><trkpt lat="50.93823522946564" lon="3.73519452554967"><ele>50.0</ele><time>2026-05-03T11:08:16.999Z</time></trkpt><trkpt lat="50.93845321106716" lon="3.735293755827466"><ele>50.0</ele><time>2026-05-03T11:08:17.999Z</time></trkpt><trkpt lat="50.93867087176661" lon="3.735402296546219"><ele>50.0</ele><time>2026-05-03T11:08:18.999Z</time></trkpt><trkpt lat="50.938882865331045" lon="3.73550790868001"><ele>50.0</ele><time>2026-05-03T11:08:19.999Z</time></trkpt><trkpt lat="50.93909711723138" lon="3.73561840227806"><ele>50.0</ele><time>2026-05-03T11:08:20.999Z</time></trkpt><trkpt lat="50.93930174334192" lon="3.7357292331438905"><ele>50.66666666666667</ele><time>2026-05-03T11:08:21.999Z</time></trkpt><trkpt lat="50.939504121713185" lon="3.7358397201238702"><ele>51.33333333333333</ele><time>2026-05-03T11:08:22.999Z</time></trkpt><trkpt lat="50.93970529057742" lon="3.7359459200108165"><ele>52.0</ele><time>2026-05-03T11:08:23.999Z</time></trkpt><trkpt lat="50.93990525980789" lon="3.7360439687409284"><ele>51.666666666666664</ele><time>2026-05-03T11:08:24.999Z</time></trkpt><trkpt lat="50.94010993537703" lon="3.7361354905806667"><ele>51.33333333333333</ele><time>2026-05-03T11:08:25.999Z</time></trkpt><trkpt lat="50.94031620358084" lon="3.7362129163821582"><ele>51.0</ele><time>2026-05-03T11:08:26.999Z</time></trkpt><trkpt lat="50.94051865591921" lon="3.736279878852032"><ele>51.0</ele><time>2026-05-03T11:08:27.999Z</time></trkpt><trkpt lat="50.94071590915059" lon="3.7363422111349176"><ele>51.0</ele><time>2026-05-03T11:08:28.999Z</time></trkpt><trkpt lat="50.940899465419136" lon="3.7364005879186157"><ele>51.0</ele><time>2026-05-03T11:08:29.999Z</time></trkpt><trkpt lat="50.94107404475684" lon="3.7364508927152693"><ele>50.0</ele><time>2026-05-03T11:08:30.999Z</time></trkpt><trkpt lat="50.941244835249904" lon="3.736485286555212"><ele>49.0</ele><time>2026-05-03T11:08:31.999Z</time></trkpt><trkpt lat="50.94141130798434" lon="3.7364970314209622"><ele>48.0</ele><time>2026-05-03T11:08:32.999Z</time></trkpt><trkpt lat="50.941578772488846" lon="3.736494825573551"><ele>47.0</ele><time>2026-05-03T11:08:33.999Z</time></trkpt><trkpt lat="50.9417442925518" lon="3.736481892119315"><ele>46.0</ele><time>2026-05-03T11:08:34.999Z</time></trkpt><trkpt lat="50.94190966283771" lon="3.736455007805355"><ele>45.0</ele><time>2026-05-03T11:08:35.999Z</time></trkpt><trkpt lat="50.94206811299188" lon="3.7364147970767334"><ele>45.0</ele><time>2026-05-03T11:08:36.999Z</time></trkpt><trkpt lat="50.94222798259954" lon="3.7363590978014942"><ele>45.0</ele><time>2026-05-03T11:08:37.999Z</time></trkpt><trkpt lat="50.94238023992283" lon="3.7362927180018675"><ele>45.0</ele><time>2026-05-03T11:08:38.999Z</time></trkpt><trkpt lat="50.942533246720444" lon="3.7362141834790115"><ele>44.0</ele><time>2026-05-03T11:08:39.999Z</time></trkpt><trkpt lat="50.942685540779586" lon="3.736126511338752"><ele>43.0</ele><time>2026-05-03T11:08:40.999Z</time></trkpt><trkpt lat="50.942841098322226" lon="3.73602452543528"><ele>42.0</ele><time>2026-05-03T11:08:41.999Z</time></trkpt><trkpt lat="50.9429984766099" lon="3.7359159010541485"><ele>42.0</ele><time>2026-05-03T11:08:42.999Z</time></trkpt><trkpt lat="50.94315989171823" lon="3.7358059394682277"><ele>42.0</ele><time>2026-05-03T11:08:43.999Z</time></trkpt><trkpt lat="50.94332656419187" lon="3.735696313277663"><ele>42.0</ele><time>2026-05-03T11:08:44.999Z</time></trkpt><trkpt lat="50.94348674499439" lon="3.7355902492457354"><ele>41.333333333333336</ele><time>2026-05-03T11:08:45.999Z</time></trkpt><trkpt lat="50.94364804835069" lon="3.7354828256861263"><ele>40.66666666666667</ele><time>2026-05-03T11:08:46.999Z</time></trkpt><trkpt lat="50.943810183208114" lon="3.73538831736415"><ele>40.0</ele><time>2026-05-03T11:08:47.998Z</time></trkpt><trkpt lat="50.94397442968239" lon="3.735307093029532"><ele>40.0</ele><time>2026-05-03T11:08:48.998Z</time></trkpt><trkpt lat="50.9441418789372" lon="3.7352346107710543"><ele>40.0</ele><time>2026-05-03T11:08:49.998Z</time></trkpt><trkpt lat="50.94431211170557" lon="3.735164170955903"><ele>40.0</ele><time>2026-05-03T11:08:50.998Z</time></trkpt><trkpt lat="50.94448688109896" lon="3.735094173283307"><ele>38.333333333333336</ele><time>2026-05-03T11:08:51.998Z</time></trkpt><trkpt lat="50.94466326889033" lon="3.7350221398486143"><ele>36.666666666666664</ele><time>2026-05-03T11:08:52.998Z</time></trkpt><trkpt lat="50.94483295413146" lon="3.7349543940424215"><ele>35.0</ele><time>2026-05-03T11:08:53.998Z</time></trkpt><trkpt lat="50.9449983067474" lon="3.734890711097101"><ele>34.33333333333333</ele><time>2026-05-03T11:08:54.998Z</time></trkpt><trkpt lat="50.94516159354763" lon="3.734834903343372"><ele>33.666666666666664</ele><time>2026-05-03T11:08:55.998Z</time></trkpt><trkpt lat="50.94532605106048" lon="3.734789041672369"><ele>33.0</ele><time>2026-05-03T11:08:56.998Z</time></trkpt><trkpt lat="50.94549131315881" lon="3.734756545711832"><ele>33.0</ele><time>2026-05-03T11:08:57.998Z</time></trkpt><trkpt lat="50.94565782163149" lon="3.7347399341989806"><ele>33.0</ele><time>2026-05-03T11:08:58.998Z</time></trkpt><trkpt lat="50.94582816549872" lon="3.7347385290868003"><ele>33.0</ele><time>2026-05-03T11:08:59.998Z</time></trkpt><trkpt lat="50.9460053913479" lon="3.7347497156796945"><ele>32.0</ele><time>2026-05-03T11:09:00.998Z</time></trkpt><trkpt lat="50.94618577043809" lon="3.7347706702221903"><ele>31.0</ele><time>2026-05-03T11:09:01.998Z</time></trkpt><trkpt lat="50.94636936532035" lon="3.734792874791304"><ele>30.0</ele><time>2026-05-03T11:09:02.998Z</time></trkpt><trkpt lat="50.946559256998725" lon="3.734805608026587"><ele>29.333333333333336</ele><time>2026-05-03T11:09:03.998Z</time></trkpt><trkpt lat="50.94674540342395" lon="3.7348043231289036"><ele>28.666666666666668</ele><time>2026-05-03T11:09:04.998Z</time></trkpt><trkpt lat="50.946927859216416" lon="3.734786726051617"><ele>28.0</ele><time>2026-05-03T11:09:05.998Z</time></trkpt><trkpt lat="50.947104807018235" lon="3.7347582946370093"><ele>28.0</ele><time>2026-05-03T11:09:06.998Z</time></trkpt><trkpt lat="50.94727340662686" lon="3.734724743920842"><ele>28.0</ele><time>2026-05-03T11:09:07.998Z</time></trkpt><trkpt lat="50.947429151044695" lon="3.7346892396097817"><ele>28.0</ele><time>2026-05-03T11:09:08.998Z</time></trkpt><trkpt lat="50.947574416509575" lon="3.7346410173523648"><ele>28.0</ele><time>2026-05-03T11:09:09.998Z</time></trkpt><trkpt lat="50.94771300839655" lon="3.7345698210032414"><ele>28.0</ele><time>2026-05-03T11:09:10.998Z</time></trkpt><trkpt lat="50.947847177059806" lon="3.7344748055212675"><ele>28.0</ele><time>2026-05-03T11:09:11.998Z</time></trkpt><trkpt lat="50.94797756725073" lon="3.7343569310786733"><ele>28.0</ele><time>2026-05-03T11:09:12.998Z</time></trkpt><trkpt lat="50.948102683897204" lon="3.734222126376077"><ele>28.0</ele><time>2026-05-03T11:09:13.998Z</time></trkpt><trkpt lat="50.948223878954956" lon="3.7340760112751155"><ele>28.0</ele><time>2026-05-03T11:09:14.998Z</time></trkpt><trkpt lat="50.94834364780998" lon="3.733926994803888"><ele>28.0</ele><time>2026-05-03T11:09:15.998Z</time></trkpt><trkpt lat="50.94846663057431" lon="3.733789297182068"><ele>28.0</ele><time>2026-05-03T11:09:16.998Z</time></trkpt><trkpt lat="50.948593554935755" lon="3.733671918477417"><ele>28.0</ele><time>2026-05-03T11:09:17.998Z</time></trkpt><trkpt lat="50.948723055189156" lon="3.733574849390123"><ele>28.0</ele><time>2026-05-03T11:09:18.998Z</time></trkpt><trkpt lat="50.94885841281083" lon="3.733503074936893"><ele>28.0</ele><time>2026-05-03T11:09:19.998Z</time></trkpt><trkpt lat="50.948995521723766" lon="3.733457382472009"><ele>28.0</ele><time>2026-05-03T11:09:20.998Z</time></trkpt><trkpt lat="50.94913832532278" lon="3.7334361503725004"><ele>28.0</ele><time>2026-05-03T11:09:21.998Z</time></trkpt><trkpt lat="50.94928408457051" lon="3.733434489108387"><ele>28.0</ele><time>2026-05-03T11:09:22.998Z</time></trkpt><trkpt lat="50.94943145838646" lon="3.7334603382959184"><ele>28.0</ele><time>2026-05-03T11:09:23.998Z</time></trkpt><trkpt lat="50.94958034276583" lon="3.7335041288453823"><ele>28.333333333333336</ele><time>2026-05-03T11:09:24.998Z</time></trkpt><trkpt lat="50.949734496632686" lon="3.7335689536076413"><ele>28.666666666666664</ele><time>2026-05-03T11:09:25.998Z</time></trkpt><trkpt lat="50.94989293183058" lon="3.7336438675753514"><ele>29.0</ele><time>2026-05-03T11:09:26.998Z</time></trkpt><trkpt lat="50.95005965769217" lon="3.733728219561096"><ele>28.333333333333332</ele><time>2026-05-03T11:09:27.998Z</time></trkpt><trkpt lat="50.95023593710859" lon="3.7338180999429946"><ele>27.666666666666664</ele><time>2026-05-03T11:09:29Z</time></trkpt><trkpt lat="50.95042276806105" lon="3.73391261296668"><ele>27.0</ele><time>2026-05-03T11:09:30Z</time></trkpt><trkpt lat="50.95061850483536" lon="3.7340104167039447"><ele>27.0</ele><time>2026-05-03T11:09:31Z</time></trkpt><trkpt lat="50.95081878540343" lon="3.734108746860089"><ele>27.0</ele><time>2026-05-03T11:09:32Z</time></trkpt><trkpt lat="50.95103034091602" lon="3.7342096762875787"><ele>27.0</ele><time>2026-05-03T11:09:33Z</time></trkpt><trkpt lat="50.95124826421403" lon="3.734315043597296"><ele>28.0</ele><time>2026-05-03T11:09:34Z</time></trkpt><trkpt lat="50.95147498031107" lon="3.7344300084352273"><ele>29.0</ele><time>2026-05-03T11:09:35Z</time></trkpt><trkpt lat="50.9517053662119" lon="3.734546386716908"><ele>29.5</ele><time>2026-05-03T11:09:36Z</time></trkpt><trkpt lat="50.951938721627506" lon="3.734662955144224"><ele>30.0</ele><time>2026-05-03T11:09:37Z</time></trkpt><trkpt lat="50.95216861859547" lon="3.7347744398101903"><ele>30.0</ele><time>2026-05-03T11:09:38Z</time></trkpt><trkpt lat="50.95239531934282" lon="3.734885303941694"><ele>30.0</ele><time>2026-05-03T11:09:39Z</time></trkpt><trkpt lat="50.95261858718845" lon="3.73499697651395"><ele>30.0</ele><time>2026-05-03T11:09:40Z</time></trkpt><trkpt lat="50.952833980566034" lon="3.735106906947772"><ele>30.0</ele><time>2026-05-03T11:09:41Z</time></trkpt><trkpt lat="50.953041325964975" lon="3.7352121838832377"><ele>30.0</ele><time>2026-05-03T11:09:42Z</time></trkpt><trkpt lat="50.953246890271004" lon="3.735314442188883"><ele>30.333333333333336</ele><time>2026-05-03T11:09:43Z</time></trkpt><trkpt lat="50.95344785301736" lon="3.7354115602422517"><ele>30.666666666666668</ele><time>2026-05-03T11:09:44Z</time></trkpt><trkpt lat="50.95364273687995" lon="3.7355042045233624"><ele>31.0</ele><time>2026-05-03T11:09:45Z</time></trkpt><trkpt lat="50.95383989530899" lon="3.73559870006096"><ele>31.0</ele><time>2026-05-03T11:09:46Z</time></trkpt><trkpt lat="50.95403629355434" lon="3.7356954621854443"><ele>31.0</ele><time>2026-05-03T11:09:47Z</time></trkpt><trkpt lat="50.954230893032815" lon="3.7357929543313833"><ele>31.0</ele><time>2026-05-03T11:09:48Z</time></trkpt><trkpt lat="50.95442364823423" lon="3.7358888790717484"><ele>31.666666666666668</ele><time>2026-05-03T11:09:49Z</time></trkpt><trkpt lat="50.954610805521085" lon="3.7359806923249885"><ele>32.333333333333336</ele><time>2026-05-03T11:09:50Z</time></trkpt><trkpt lat="50.95479464078207" lon="3.7360699828624404"><ele>33.0</ele><time>2026-05-03T11:09:51Z</time></trkpt><trkpt lat="50.9549734403535" lon="3.736156044317304"><ele>33.0</ele><time>2026-05-03T11:09:52Z</time></trkpt><trkpt lat="50.95514963905799" lon="3.736244313167022"><ele>33.0</ele><time>2026-05-03T11:09:53Z</time></trkpt><trkpt lat="50.95532423926179" lon="3.736335245883474"><ele>33.0</ele><time>2026-05-03T11:09:54Z</time></trkpt><trkpt lat="50.955500063487776" lon="3.736427943288571"><ele>33.0</ele><time>2026-05-03T11:09:55Z</time></trkpt><trkpt lat="50.95567814539063" lon="3.7365207645054412"><ele>33.0</ele><time>2026-05-03T11:09:56Z</time></trkpt><trkpt lat="50.95586099277428" lon="3.7366125590496098"><ele>33.0</ele><time>2026-05-03T11:09:57Z</time></trkpt><trkpt lat="50.95604082729584" lon="3.736731677259514"><ele>31.666666666666664</ele><time>2026-05-03T11:09:58Z</time></trkpt><trkpt lat="50.956228689362696" lon="3.736834379723985"><ele>30.333333333333332</ele><time>2026-05-03T11:09:59Z</time></trkpt><trkpt lat="50.95641970839193" lon="3.7369386844377295"><ele>29.0</ele><time>2026-05-03T11:10:00Z</time></trkpt><trkpt lat="50.95661705359954" lon="3.737022002680325"><ele>29.0</ele><time>2026-05-03T11:10:01Z</time></trkpt><trkpt lat="50.956809278913894" lon="3.7371366819963283"><ele>29.0</ele><time>2026-05-03T11:10:02Z</time></trkpt><trkpt lat="50.95700534591622" lon="3.737251006992269"><ele>29.0</ele><time>2026-05-03T11:10:03Z</time></trkpt><trkpt lat="50.957199312766136" lon="3.7373602472440286"><ele>29.0</ele><time>2026-05-03T11:10:03.999Z</time></trkpt><trkpt lat="50.95739517689649" lon="3.737467855231077"><ele>29.0</ele><time>2026-05-03T11:10:04.999Z</time></trkpt><trkpt lat="50.95759110155049" lon="3.737576228223667"><ele>29.0</ele><time>2026-05-03T11:10:05.999Z</time></trkpt><trkpt lat="50.95778323397633" lon="3.737681938787652"><ele>29.333333333333332</ele><time>2026-05-03T11:10:06.999Z</time></trkpt><trkpt lat="50.957977984473196" lon="3.737789021884009"><ele>29.666666666666664</ele><time>2026-05-03T11:10:07.999Z</time></trkpt><trkpt lat="50.95817214092254" lon="3.737895333067812"><ele>30.0</ele><time>2026-05-03T11:10:08.999Z</time></trkpt><trkpt lat="50.95836694380065" lon="3.738001443893152"><ele>30.0</ele><time>2026-05-03T11:10:09.999Z</time></trkpt><trkpt lat="50.958557352256676" lon="3.7381052541999695"><ele>30.0</ele><time>2026-05-03T11:10:10.999Z</time></trkpt><trkpt lat="50.95874920625364" lon="3.7382089612392404"><ele>30.0</ele><time>2026-05-03T11:10:11.999Z</time></trkpt><trkpt lat="50.95894116960274" lon="3.738312195733006"><ele>30.0</ele><time>2026-05-03T11:10:12.999Z</time></trkpt><trkpt lat="50.95913842073996" lon="3.7384165131438603"><ele>30.0</ele><time>2026-05-03T11:10:13.999Z</time></trkpt><trkpt lat="50.9593403906453" lon="3.7385238622246604"><ele>30.0</ele><time>2026-05-03T11:10:14.999Z</time></trkpt><trkpt lat="50.959551109110734" lon="3.738629678330628"><ele>29.5</ele><time>2026-05-03T11:10:15.999Z</time></trkpt><trkpt lat="50.959768884916116" lon="3.7387292453791203"><ele>29.0</ele><time>2026-05-03T11:10:16.999Z</time></trkpt><trkpt lat="50.95999714427591" lon="3.7388239144641093"><ele>30.0</ele><time>2026-05-03T11:10:17.999Z</time></trkpt><trkpt lat="50.96022953804656" lon="3.738922207083955"><ele>31.0</ele><time>2026-05-03T11:10:18.999Z</time></trkpt><trkpt lat="50.96047203561715" lon="3.739026734302862"><ele>31.0</ele><time>2026-05-03T11:10:19.999Z</time></trkpt><trkpt lat="50.960710144553644" lon="3.7391292681677157"><ele>31.0</ele><time>2026-05-03T11:10:20.999Z</time></trkpt><trkpt lat="50.96094637023577" lon="3.739230424790449"><ele>32.0</ele><time>2026-05-03T11:10:21.999Z</time></trkpt><trkpt lat="50.96116882196584" lon="3.7393255668780045"><ele>33.0</ele><time>2026-05-03T11:10:22.999Z</time></trkpt><trkpt lat="50.9613821429152" lon="3.739418651653008"><ele>33.0</ele><time>2026-05-03T11:10:23.999Z</time></trkpt><trkpt lat="50.96158249708674" lon="3.739504880330982"><ele>33.0</ele><time>2026-05-03T11:10:24.999Z</time></trkpt><trkpt lat="50.9617731432437" lon="3.739585391532601"><ele>33.0</ele><time>2026-05-03T11:10:25.999Z</time></trkpt><trkpt lat="50.96195544349654" lon="3.7396595861827198"><ele>33.333333333333336</ele><time>2026-05-03T11:10:26.999Z</time></trkpt><trkpt lat="50.962125892390965" lon="3.739719216083882"><ele>33.66666666666667</ele><time>2026-05-03T11:10:27.999Z</time></trkpt><trkpt lat="50.96228724905757" lon="3.739761000197755"><ele>34.0</ele><time>2026-05-03T11:10:28.999Z</time></trkpt><trkpt lat="50.962441723443284" lon="3.739783162809513"><ele>33.0</ele><time>2026-05-03T11:10:29.999Z</time></trkpt><trkpt lat="50.96259695476178" lon="3.739787688517731"><ele>32.0</ele><time>2026-05-03T11:10:30.999Z</time></trkpt><trkpt lat="50.96275329230955" lon="3.7397810953911645"><ele>31.0</ele><time>2026-05-03T11:10:31.999Z</time></trkpt><trkpt lat="50.96291080105692" lon="3.739753459600265"><ele>31.0</ele><time>2026-05-03T11:10:32.999Z</time></trkpt><trkpt lat="50.963067183247105" lon="3.739711099918086"><ele>31.0</ele><time>2026-05-03T11:10:33.999Z</time></trkpt><trkpt lat="50.96322473423695" lon="3.739647279685568"><ele>31.0</ele><time>2026-05-03T11:10:34.999Z</time></trkpt><trkpt lat="50.96337997120623" lon="3.739562449362151"><ele>30.0</ele><time>2026-05-03T11:10:35.999Z</time></trkpt><trkpt lat="50.96353136757189" lon="3.739456432395548"><ele>29.0</ele><time>2026-05-03T11:10:36.999Z</time></trkpt><trkpt lat="50.96368036229048" lon="3.739332557228476"><ele>28.0</ele><time>2026-05-03T11:10:37.999Z</time></trkpt><trkpt lat="50.96382460367712" lon="3.7391921331145452"><ele>28.0</ele><time>2026-05-03T11:10:38.999Z</time></trkpt><trkpt lat="50.96396203872435" lon="3.7390387452861575"><ele>28.0</ele><time>2026-05-03T11:10:39.999Z</time></trkpt><trkpt lat="50.96408763507329" lon="3.738878142559121"><ele>28.0</ele><time>2026-05-03T11:10:40.999Z</time></trkpt><trkpt lat="50.9642167249543" lon="3.7387019242529687"><ele>27.333333333333336</ele><time>2026-05-03T11:10:41.999Z</time></trkpt><trkpt lat="50.96435001667882" lon="3.7385163478301418"><ele>26.666666666666664</ele><time>2026-05-03T11:10:42.999Z</time></trkpt><trkpt lat="50.96448885255836" lon="3.738324734364637"><ele>26.0</ele><time>2026-05-03T11:10:43.999Z</time></trkpt><trkpt lat="50.96463425068532" lon="3.738129310990966"><ele>26.0</ele><time>2026-05-03T11:10:44.999Z</time></trkpt><trkpt lat="50.964786961636975" lon="3.737920839227501"><ele>26.0</ele><time>2026-05-03T11:10:45.999Z</time></trkpt><trkpt lat="50.96494665826557" lon="3.7377016365681373"><ele>26.0</ele><time>2026-05-03T11:10:46.999Z</time></trkpt><trkpt lat="50.96511517590533" lon="3.7374750124825624"><ele>26.5</ele><time>2026-05-03T11:10:47.999Z</time></trkpt><trkpt lat="50.96529243210277" lon="3.7372382095680066"><ele>27.0</ele><time>2026-05-03T11:10:48.999Z</time></trkpt><trkpt lat="50.96546882099157" lon="3.737004354888351"><ele>26.333333333333336</ele><time>2026-05-03T11:10:49.999Z</time></trkpt><trkpt lat="50.96560086395163" lon="3.7368131458258187"><ele>25.666666666666668</ele><time>2026-05-03T11:10:50.999Z</time></trkpt><trkpt lat="50.965749604975926" lon="3.736607253699309"><ele>25.0</ele><time>2026-05-03T11:10:51.998Z</time></trkpt><trkpt lat="50.96588893256637" lon="3.7364177452878593"><ele>25.0</ele><time>2026-05-03T11:10:52.998Z</time></trkpt><trkpt lat="50.966022094620016" lon="3.736250589887226"><ele>25.0</ele><time>2026-05-03T11:10:53.998Z</time></trkpt><trkpt lat="50.966145366573464" lon="3.736088933560751"><ele>25.0</ele><time>2026-05-03T11:10:54.998Z</time></trkpt><trkpt lat="50.96627102396609" lon="3.7359562349292332"><ele>25.0</ele><time>2026-05-03T11:10:55.998Z</time></trkpt><trkpt lat="50.96639819846971" lon="3.735845013710716"><ele>25.0</ele><time>2026-05-03T11:10:56.998Z</time></trkpt><trkpt lat="50.96652245830302" lon="3.7357563317094726"><ele>25.0</ele><time>2026-05-03T11:10:57.998Z</time></trkpt><trkpt lat="50.966654802104046" lon="3.7356890420859052"><ele>25.0</ele><time>2026-05-03T11:10:58.998Z</time></trkpt><trkpt lat="50.966795247219395" lon="3.7356320716193636"><ele>24.0</ele><time>2026-05-03T11:10:59.998Z</time></trkpt><trkpt lat="50.96694292152002" lon="3.735594960037948"><ele>23.0</ele><time>2026-05-03T11:11:00.998Z</time></trkpt><trkpt lat="50.96708956538883" lon="3.735555754206165"><ele>22.0</ele><time>2026-05-03T11:11:01.998Z</time></trkpt><trkpt lat="50.96725185456612" lon="3.7355147112784266"><ele>22.0</ele><time>2026-05-03T11:11:02.998Z</time></trkpt><trkpt lat="50.96741743994126" lon="3.7354749439773536"><ele>22.0</ele><time>2026-05-03T11:11:03.998Z</time></trkpt><trkpt lat="50.96758602380451" lon="3.735433237064448"><ele>22.0</ele><time>2026-05-03T11:11:04.998Z</time></trkpt><trkpt lat="50.96775875451274" lon="3.7353808022620716"><ele>21.333333333333332</ele><time>2026-05-03T11:11:05.998Z</time></trkpt><trkpt lat="50.96794209343636" lon="3.735340889738699"><ele>20.666666666666668</ele><time>2026-05-03T11:11:06.998Z</time></trkpt><trkpt lat="50.96812711923102" lon="3.7353087056510383"><ele>20.0</ele><time>2026-05-03T11:11:07.998Z</time></trkpt><trkpt lat="50.9683203740904" lon="3.735288422443012"><ele>21.0</ele><time>2026-05-03T11:11:08.998Z</time></trkpt><trkpt lat="50.9685177177013" lon="3.735283318663499"><ele>22.0</ele><time>2026-05-03T11:11:09.998Z</time></trkpt><trkpt lat="50.968719970626445" lon="3.735287311518448"><ele>23.0</ele><time>2026-05-03T11:11:10.998Z</time></trkpt><trkpt lat="50.96892303970988" lon="3.735296317040545"><ele>23.0</ele><time>2026-05-03T11:11:11.998Z</time></trkpt><trkpt lat="50.96911804888594" lon="3.7353005283453142"><ele>23.0</ele><time>2026-05-03T11:11:12.998Z</time></trkpt><trkpt lat="50.9693168514243" lon="3.735303969742161"><ele>23.0</ele><time>2026-05-03T11:11:13.998Z</time></trkpt><trkpt lat="50.96951062790669" lon="3.7353037142483805"><ele>22.333333333333336</ele><time>2026-05-03T11:11:14.998Z</time></trkpt><trkpt lat="50.96969215878366" lon="3.735302771787182"><ele>21.666666666666668</ele><time>2026-05-03T11:11:15.998Z</time></trkpt><trkpt lat="50.96986052670358" lon="3.7353038726733105"><ele>21.0</ele><time>2026-05-03T11:11:16.998Z</time></trkpt><trkpt lat="50.97001104496036" lon="3.7353084025044567"><ele>21.0</ele><time>2026-05-03T11:11:17.998Z</time></trkpt><trkpt lat="50.970152537282246" lon="3.735315215850957"><ele>21.0</ele><time>2026-05-03T11:11:18.998Z</time></trkpt><trkpt lat="50.970284128736644" lon="3.7353311485254332"><ele>21.0</ele><time>2026-05-03T11:11:19.998Z</time></trkpt><trkpt lat="50.97041941814337" lon="3.7353596710396295"><ele>21.0</ele><time>2026-05-03T11:11:20.998Z</time></trkpt><trkpt lat="50.97056395118507" lon="3.735407731716921"><ele>21.0</ele><time>2026-05-03T11:11:21.998Z</time></trkpt><trkpt lat="50.97070917119245" lon="3.7354688231694357"><ele>21.0</ele><time>2026-05-03T11:11:22.998Z</time></trkpt><trkpt lat="50.970857828422474" lon="3.735545082475071"><ele>21.0</ele><time>2026-05-03T11:11:23.998Z</time></trkpt><trkpt lat="50.97101100469109" lon="3.7356320585173823"><ele>21.0</ele><time>2026-05-03T11:11:24.998Z</time></trkpt><trkpt lat="50.97116640773333" lon="3.73572316742019"><ele>21.0</ele><time>2026-05-03T11:11:25.998Z</time></trkpt><trkpt lat="50.97133187914428" lon="3.7358264475397727"><ele>21.0</ele><time>2026-05-03T11:11:26.998Z</time></trkpt><trkpt lat="50.97149142097566" lon="3.735921932614764"><ele>21.0</ele><time>2026-05-03T11:11:27.998Z</time></trkpt><trkpt lat="50.97164617378009" lon="3.736017861865895"><ele>21.0</ele><time>2026-05-03T11:11:28.998Z</time></trkpt><trkpt lat="50.971794207665475" lon="3.736109381537287"><ele>21.0</ele><time>2026-05-03T11:11:29.998Z</time></trkpt><trkpt lat="50.97194222194335" lon="3.7361998404103782"><ele>19.666666666666668</ele><time>2026-05-03T11:11:30.998Z</time></trkpt><trkpt lat="50.97208528448431" lon="3.736284562429997"><ele>18.333333333333336</ele><time>2026-05-03T11:11:31.998Z</time></trkpt><trkpt lat="50.972227733335934" lon="3.7363709362094917"><ele>17.0</ele><time>2026-05-03T11:11:32.998Z</time></trkpt><trkpt lat="50.97237540779113" lon="3.7364616962767503"><ele>16.666666666666668</ele><time>2026-05-03T11:11:33.998Z</time></trkpt><trkpt lat="50.97253218248728" lon="3.736558870244701"><ele>16.333333333333332</ele><time>2026-05-03T11:11:35Z</time></trkpt><trkpt lat="50.97268391522447" lon="3.7366655551906134"><ele>16.0</ele><time>2026-05-03T11:11:36Z</time></trkpt><trkpt lat="50.97283197016405" lon="3.7367897719910808"><ele>15.666666666666666</ele><time>2026-05-03T11:11:37Z</time></trkpt><trkpt lat="50.97297309562265" lon="3.736926178948446"><ele>15.333333333333332</ele><time>2026-05-03T11:11:38Z</time></trkpt><trkpt lat="50.9731105660089" lon="3.7370718020377103"><ele>15.0</ele><time>2026-05-03T11:11:39Z</time></trkpt><trkpt lat="50.97325103653896" lon="3.737221033970514"><ele>15.333333333333332</ele><time>2026-05-03T11:11:40Z</time></trkpt><trkpt lat="50.973394069872725" lon="3.7373681322781787"><ele>15.666666666666666</ele><time>2026-05-03T11:11:41Z</time></trkpt><trkpt lat="50.97354073251438" lon="3.737513525507049"><ele>16.0</ele><time>2026-05-03T11:11:42Z</time></trkpt><trkpt lat="50.973688866722775" lon="3.737660644340873"><ele>16.0</ele><time>2026-05-03T11:11:43Z</time></trkpt><trkpt lat="50.97383484126222" lon="3.7378084231455224"><ele>16.0</ele><time>2026-05-03T11:11:44Z</time></trkpt><trkpt lat="50.973983858659125" lon="3.737961138048435"><ele>16.0</ele><time>2026-05-03T11:11:45Z</time></trkpt><trkpt lat="50.97413142381335" lon="3.738112986647137"><ele>16.0</ele><time>2026-05-03T11:11:46Z</time></trkpt><trkpt lat="50.97428349537086" lon="3.738264390095836"><ele>16.0</ele><time>2026-05-03T11:11:47Z</time></trkpt><trkpt lat="50.9744343212513" lon="3.7384159864688162"><ele>16.0</ele><time>2026-05-03T11:11:48Z</time></trkpt><trkpt lat="50.97458585820098" lon="3.7385699968493897"><ele>16.0</ele><time>2026-05-03T11:11:49Z</time></trkpt><trkpt lat="50.974735616979856" lon="3.7387246259574547"><ele>16.0</ele><time>2026-05-03T11:11:50Z</time></trkpt><trkpt lat="50.97488866741584" lon="3.738880757650867"><ele>16.0</ele><time>2026-05-03T11:11:51Z</time></trkpt><trkpt lat="50.975038475466064" lon="3.7390323807820676"><ele>16.0</ele><time>2026-05-03T11:11:52Z</time></trkpt><trkpt lat="50.97519010063504" lon="3.739182809265803"><ele>16.0</ele><time>2026-05-03T11:11:53Z</time></trkpt><trkpt lat="50.975343866550816" lon="3.739325252147326"><ele>16.0</ele><time>2026-05-03T11:11:54Z</time></trkpt><trkpt lat="50.97549818578931" lon="3.7394557055719138"><ele>15.666666666666666</ele><time>2026-05-03T11:11:55Z</time></trkpt><trkpt lat="50.97564964550966" lon="3.7395718744406974"><ele>15.333333333333332</ele><time>2026-05-03T11:11:56Z</time></trkpt><trkpt lat="50.97580143642673" lon="3.739682993660756"><ele>15.0</ele><time>2026-05-03T11:11:57Z</time></trkpt><trkpt lat="50.97595083047133" lon="3.739793427652273"><ele>14.333333333333332</ele><time>2026-05-03T11:11:58Z</time></trkpt><trkpt lat="50.97610312822247" lon="3.739916433275843"><ele>13.666666666666666</ele><time>2026-05-03T11:11:59Z</time></trkpt><trkpt lat="50.976250165532186" lon="3.740046934926627"><ele>13.0</ele><time>2026-05-03T11:12:00Z</time></trkpt><trkpt lat="50.97639481093776" lon="3.740182158369041"><ele>13.333333333333332</ele><time>2026-05-03T11:12:01Z</time></trkpt><trkpt lat="50.97653790283977" lon="3.7403219522020517"><ele>13.666666666666668</ele><time>2026-05-03T11:12:02Z</time></trkpt><trkpt lat="50.976679713444405" lon="3.7404666745998987"><ele>14.0</ele><time>2026-05-03T11:12:03Z</time></trkpt><trkpt lat="50.97681676420516" lon="3.7406070655187045"><ele>14.0</ele><time>2026-05-03T11:12:04Z</time></trkpt><trkpt lat="50.976956067450054" lon="3.7407461106253725"><ele>14.0</ele><time>2026-05-03T11:12:05Z</time></trkpt><trkpt lat="50.97710498836206" lon="3.7408874585317626"><ele>14.0</ele><time>2026-05-03T11:12:06Z</time></trkpt><trkpt lat="50.977254792841975" lon="3.7410357313077323"><ele>14.0</ele><time>2026-05-03T11:12:07Z</time></trkpt><trkpt lat="50.97739925523013" lon="3.741185465790046"><ele>14.0</ele><time>2026-05-03T11:12:07.999Z</time></trkpt><trkpt lat="50.977546948688435" lon="3.741335407546642"><ele>14.0</ele><time>2026-05-03T11:12:08.999Z</time></trkpt><trkpt lat="50.97769164404788" lon="3.741485712001938"><ele>14.333333333333334</ele><time>2026-05-03T11:12:09.999Z</time></trkpt><trkpt lat="50.97783573156052" lon="3.741633122355933"><ele>14.666666666666668</ele><time>2026-05-03T11:12:10.999Z</time></trkpt><trkpt lat="50.977982050272836" lon="3.7417784223380166"><ele>15.0</ele><time>2026-05-03T11:12:11.999Z</time></trkpt><trkpt lat="50.97812426080221" lon="3.741920554304026"><ele>15.0</ele><time>2026-05-03T11:12:12.999Z</time></trkpt><trkpt lat="50.978266508484076" lon="3.7420636333491215"><ele>15.0</ele><time>2026-05-03T11:12:13.999Z</time></trkpt><trkpt lat="50.978409750248865" lon="3.7422078148255493"><ele>15.0</ele><time>2026-05-03T11:12:14.999Z</time></trkpt><trkpt lat="50.9785522918173" lon="3.742352507788686"><ele>15.333333333333332</ele><time>2026-05-03T11:12:15.999Z</time></trkpt><trkpt lat="50.9786916265088" lon="3.7424949610654985"><ele>15.666666666666666</ele><time>2026-05-03T11:12:16.999Z</time></trkpt><trkpt lat="50.978833968502066" lon="3.742636873652248"><ele>16.0</ele><time>2026-05-03T11:12:17.999Z</time></trkpt><trkpt lat="50.97896990913452" lon="3.742774228184473"><ele>16.0</ele><time>2026-05-03T11:12:18.999Z</time></trkpt><trkpt lat="50.979106046281544" lon="3.742914210365123"><ele>16.0</ele><time>2026-05-03T11:12:19.999Z</time></trkpt><trkpt lat="50.97924054624777" lon="3.7430476755059963"><ele>16.0</ele><time>2026-05-03T11:12:20.999Z</time></trkpt><trkpt lat="50.97936888559585" lon="3.74317155565323"><ele>16.25</ele><time>2026-05-03T11:12:21.999Z</time></trkpt><trkpt lat="50.9794930500956" lon="3.743290920109602"><ele>16.5</ele><time>2026-05-03T11:12:22.999Z</time></trkpt><trkpt lat="50.97962039150401" lon="3.7434093924056406"><ele>16.75</ele><time>2026-05-03T11:12:23.999Z</time></trkpt><trkpt lat="50.9797494461801" lon="3.7435237313305154"><ele>17.0</ele><time>2026-05-03T11:12:24.999Z</time></trkpt><trkpt lat="50.979878801067315" lon="3.7436363369594856"><ele>17.5</ele><time>2026-05-03T11:12:25.999Z</time></trkpt><trkpt lat="50.98000960606803" lon="3.743748899018895"><ele>18.0</ele><time>2026-05-03T11:12:26.999Z</time></trkpt><trkpt lat="50.980139570215826" lon="3.7438614484740484"><ele>18.5</ele><time>2026-05-03T11:12:27.999Z</time></trkpt><trkpt lat="50.98026842641197" lon="3.7439797213454704"><ele>19.0</ele><time>2026-05-03T11:12:28.999Z</time></trkpt><trkpt lat="50.98039934981743" lon="3.7440939863182994"><ele>19.0</ele><time>2026-05-03T11:12:29.999Z</time></trkpt><trkpt lat="50.980530502847245" lon="3.7442020698947904"><ele>19.0</ele><time>2026-05-03T11:12:30.999Z</time></trkpt><trkpt lat="50.98066701236264" lon="3.7443075551378584"><ele>19.0</ele><time>2026-05-03T11:12:31.999Z</time></trkpt><trkpt lat="50.980809279544225" lon="3.744411263085753"><ele>20.0</ele><time>2026-05-03T11:12:32.999Z</time></trkpt><trkpt lat="50.98095380134578" lon="3.744516373179569"><ele>21.0</ele><time>2026-05-03T11:12:33.999Z</time></trkpt><trkpt lat="50.98110565696184" lon="3.7446217952621286"><ele>22.0</ele><time>2026-05-03T11:12:34.999Z</time></trkpt><trkpt lat="50.98125571081214" lon="3.7447237423546067"><ele>22.0</ele><time>2026-05-03T11:12:35.999Z</time></trkpt><trkpt lat="50.98140260168827" lon="3.7448172703031037"><ele>22.0</ele><time>2026-05-03T11:12:36.999Z</time></trkpt><trkpt lat="50.98154994957168" lon="3.7449066169918592"><ele>22.0</ele><time>2026-05-03T11:12:37.999Z</time></trkpt><trkpt lat="50.98169890926394" lon="3.744991069728381"><ele>22.0</ele><time>2026-05-03T11:12:38.999Z</time></trkpt><trkpt lat="50.98184804426863" lon="3.7450661177881055"><ele>22.0</ele><time>2026-05-03T11:12:39.999Z</time></trkpt><trkpt lat="50.98199745760986" lon="3.745139030295553"><ele>22.0</ele><time>2026-05-03T11:12:40.999Z</time></trkpt><trkpt lat="50.98214925487448" lon="3.7452094568004943"><ele>22.0</ele><time>2026-05-03T11:12:41.999Z</time></trkpt><trkpt lat="50.98229887993138" lon="3.7452756793065975"><ele>22.0</ele><time>2026-05-03T11:12:42.999Z</time></trkpt><trkpt lat="50.98245241383796" lon="3.7453454366049113"><ele>22.0</ele><time>2026-05-03T11:12:43.999Z</time></trkpt><trkpt lat="50.98260649104257" lon="3.745406852538985"><ele>22.666666666666664</ele><time>2026-05-03T11:12:44.999Z</time></trkpt><trkpt lat="50.982758493339006" lon="3.745465229603039"><ele>23.333333333333332</ele><time>2026-05-03T11:12:45.999Z</time></trkpt><trkpt lat="50.98290713107095" lon="3.745515460773133"><ele>24.0</ele><time>2026-05-03T11:12:46.999Z</time></trkpt><trkpt lat="50.98305263282082" lon="3.7455589584904465"><ele>24.0</ele><time>2026-05-03T11:12:47.999Z</time></trkpt><trkpt lat="50.98318971688245" lon="3.7455963519783584"><ele>24.0</ele><time>2026-05-03T11:12:48.999Z</time></trkpt><trkpt lat="50.98331353883224" lon="3.745628154375342"><ele>24.0</ele><time>2026-05-03T11:12:49.999Z</time></trkpt><trkpt lat="50.98343029254374" lon="3.745657413412141"><ele>24.0</ele><time>2026-05-03T11:12:50.999Z</time></trkpt><trkpt lat="50.98354679104457" lon="3.7456849750575674"><ele>24.0</ele><time>2026-05-03T11:12:51.999Z</time></trkpt><trkpt lat="50.983669391593125" lon="3.745710377071191"><ele>24.0</ele><time>2026-05-03T11:12:52.999Z</time></trkpt><trkpt lat="50.98379142957925" lon="3.7457340869955957"><ele>24.0</ele><time>2026-05-03T11:12:53.999Z</time></trkpt><trkpt lat="50.98390819593439" lon="3.7457571050958425"><ele>24.0</ele><time>2026-05-03T11:12:54.999Z</time></trkpt><trkpt lat="50.984019596006" lon="3.7457777378856476"><ele>24.0</ele><time>2026-05-03T11:12:55.999Z</time></trkpt><trkpt lat="50.984128075120914" lon="3.745796861638476"><ele>24.0</ele><time>2026-05-03T11:12:56.998Z</time></trkpt><trkpt lat="50.984235505910895" lon="3.7458144526015382"><ele>24.0</ele><time>2026-05-03T11:12:57.998Z</time></trkpt><trkpt lat="50.98434474672737" lon="3.7458328922847177"><ele>24.0</ele><time>2026-05-03T11:12:58.998Z</time></trkpt><trkpt lat="50.98446077645482" lon="3.745852132001318"><ele>24.0</ele><time>2026-05-03T11:12:59.998Z</time></trkpt><trkpt lat="50.9845793644212" lon="3.745873269465908"><ele>24.0</ele><time>2026-05-03T11:13:00.998Z</time></trkpt><trkpt lat="50.98469670356045" lon="3.745893614467443"><ele>24.0</ele><time>2026-05-03T11:13:01.998Z</time></trkpt><trkpt lat="50.98481455934716" lon="3.745912876042968"><ele>24.0</ele><time>2026-05-03T11:13:02.998Z</time></trkpt><trkpt lat="50.98493112483178" lon="3.745931948251902"><ele>24.0</ele><time>2026-05-03T11:13:03.998Z</time></trkpt><trkpt lat="50.98504929152845" lon="3.7459526117836983"><ele>24.0</ele><time>2026-05-03T11:13:04.998Z</time></trkpt><trkpt lat="50.985166498497954" lon="3.7459723784493817"><ele>24.0</ele><time>2026-05-03T11:13:05.998Z</time></trkpt><trkpt lat="50.98527632812267" lon="3.745993522399194"><ele>24.0</ele><time>2026-05-03T11:13:06.998Z</time></trkpt><trkpt lat="50.98538437237982" lon="3.7460119310916475"><ele>24.0</ele><time>2026-05-03T11:13:07.998Z</time></trkpt><trkpt lat="50.98549111302625" lon="3.7460326434196483"><ele>24.0</ele><time>2026-05-03T11:13:08.998Z</time></trkpt><trkpt lat="50.98558861082899" lon="3.746048999720281"><ele>24.0</ele><time>2026-05-03T11:13:09.998Z</time></trkpt><trkpt lat="50.985683745248735" lon="3.7460650716928283"><ele>24.0</ele><time>2026-05-03T11:13:10.998Z</time></trkpt><trkpt lat="50.98578314701695" lon="3.746084014163209"><ele>24.0</ele><time>2026-05-03T11:13:11.998Z</time></trkpt><trkpt lat="50.98587808133298" lon="3.746103469924745"><ele>24.0</ele><time>2026-05-03T11:13:12.998Z</time></trkpt><trkpt lat="50.985973050670225" lon="3.7461196476083143"><ele>24.0</ele><time>2026-05-03T11:13:13.998Z</time></trkpt><trkpt lat="50.98606056124051" lon="3.7461343486021166"><ele>24.0</ele><time>2026-05-03T11:13:14.998Z</time></trkpt><trkpt lat="50.98614001593362" lon="3.746143351773438"><ele>24.0</ele><time>2026-05-03T11:13:15.998Z</time></trkpt><trkpt lat="50.986220051552834" lon="3.7461763529474754"><ele>24.0</ele><time>2026-05-03T11:13:16.998Z</time></trkpt><trkpt lat="50.98631333113074" lon="3.7461936975023113"><ele>24.0</ele><time>2026-05-03T11:13:17.998Z</time></trkpt><trkpt lat="50.98641633483747" lon="3.746212654696908"><ele>24.0</ele><time>2026-05-03T11:13:18.998Z</time></trkpt><trkpt lat="50.98652523762565" lon="3.7462322071412126"><ele>24.0</ele><time>2026-05-03T11:13:19.998Z</time></trkpt><trkpt lat="50.98664369194753" lon="3.7462339273964376"><ele>24.0</ele><time>2026-05-03T11:13:20.998Z</time></trkpt><trkpt lat="50.98676680247711" lon="3.746259576489026"><ele>24.0</ele><time>2026-05-03T11:13:21.998Z</time></trkpt><trkpt lat="50.9868894194871" lon="3.7462784457457805"><ele>24.0</ele><time>2026-05-03T11:13:22.998Z</time></trkpt><trkpt lat="50.98701255898864" lon="3.7463009566083714"><ele>23.75</ele><time>2026-05-03T11:13:23.998Z</time></trkpt><trkpt lat="50.98714401877802" lon="3.7463205314264507"><ele>23.5</ele><time>2026-05-03T11:13:24.998Z</time></trkpt><trkpt lat="50.98727766483348" lon="3.746342527552838"><ele>23.25</ele><time>2026-05-03T11:13:25.998Z</time></trkpt><trkpt lat="50.98741488897406" lon="3.7463678136057124"><ele>23.0</ele><time>2026-05-03T11:13:26.998Z</time></trkpt><trkpt lat="50.98755719418897" lon="3.746391099496749"><ele>22.5</ele><time>2026-05-03T11:13:27.998Z</time></trkpt><trkpt lat="50.98770046283308" lon="3.746411167171898"><ele>22.0</ele><time>2026-05-03T11:13:28.998Z</time></trkpt><trkpt lat="50.98784413869303" lon="3.746424988338669"><ele>21.5</ele><time>2026-05-03T11:13:29.998Z</time></trkpt><trkpt lat="50.987984874532934" lon="3.7464327098117463"><ele>21.0</ele><time>2026-05-03T11:13:30.998Z</time></trkpt><trkpt lat="50.98812326637922" lon="3.7464323839062446"><ele>21.0</ele><time>2026-05-03T11:13:31.998Z</time></trkpt><trkpt lat="50.98825846031796" lon="3.7464272440993533"><ele>21.0</ele><time>2026-05-03T11:13:32.998Z</time></trkpt><trkpt lat="50.988394107542824" lon="3.7464153552473993"><ele>21.0</ele><time>2026-05-03T11:13:33.998Z</time></trkpt><trkpt lat="50.988528261212934" lon="3.7464007906122805"><ele>21.0</ele><time>2026-05-03T11:13:34.998Z</time></trkpt><trkpt lat="50.98866238981743" lon="3.74638834126469"><ele>20.75</ele><time>2026-05-03T11:13:35.998Z</time></trkpt><trkpt lat="50.98879522380417" lon="3.746374871548803"><ele>20.5</ele><time>2026-05-03T11:13:36.998Z</time></trkpt><trkpt lat="50.98892776710616" lon="3.746359844794875"><ele>20.25</ele><time>2026-05-03T11:13:37.998Z</time></trkpt><trkpt lat="50.98905813365308" lon="3.746346359971617"><ele>20.0</ele><time>2026-05-03T11:13:38.998Z</time></trkpt><trkpt lat="50.989185156585094" lon="3.7463322757154827"><ele>19.75</ele><time>2026-05-03T11:13:40Z</time></trkpt><trkpt lat="50.98930884560271" lon="3.746322186518961"><ele>19.5</ele><time>2026-05-03T11:13:41Z</time></trkpt><trkpt lat="50.989429377189346" lon="3.746316761431722"><ele>19.25</ele><time>2026-05-03T11:13:42Z</time></trkpt><trkpt lat="50.989549784879785" lon="3.7463170591323567"><ele>19.0</ele><time>2026-05-03T11:13:43Z</time></trkpt><trkpt lat="50.98966583094857" lon="3.7463210304131334"><ele>19.0</ele><time>2026-05-03T11:13:44Z</time></trkpt><trkpt lat="50.989780680154006" lon="3.7463304123086765"><ele>19.0</ele><time>2026-05-03T11:13:45Z</time></trkpt><trkpt lat="50.989893422829965" lon="3.74634270149378"><ele>19.0</ele><time>2026-05-03T11:13:46Z</time></trkpt><trkpt lat="50.990005510772946" lon="3.746355586399576"><ele>19.0</ele><time>2026-05-03T11:13:47Z</time></trkpt><trkpt lat="50.99011647746491" lon="3.746372086632206"><ele>18.599999999999998</ele><time>2026-05-03T11:13:48Z</time></trkpt><trkpt lat="50.99022314200184" lon="3.7463907045387144"><ele>18.2</ele><time>2026-05-03T11:13:49Z</time></trkpt><trkpt lat="50.99032707259463" lon="3.7464102848496323"><ele>17.799999999999997</ele><time>2026-05-03T11:13:50Z</time></trkpt><trkpt lat="50.990427406580096" lon="3.746427458009244"><ele>17.4</ele><time>2026-05-03T11:13:51Z</time></trkpt><trkpt lat="50.990526424736224" lon="3.7464464099301704"><ele>17.0</ele><time>2026-05-03T11:13:52Z</time></trkpt><trkpt lat="50.990621509044914" lon="3.746462234218867"><ele>17.0</ele><time>2026-05-03T11:13:53Z</time></trkpt><trkpt lat="50.99071640762715" lon="3.746477966541497"><ele>17.0</ele><time>2026-05-03T11:13:54Z</time></trkpt><trkpt lat="50.99080961594227" lon="3.7464951414574803"><ele>17.0</ele><time>2026-05-03T11:13:55Z</time></trkpt><trkpt lat="50.99090096508405" lon="3.7465052799167053"><ele>17.0</ele><time>2026-05-03T11:13:56Z</time></trkpt><trkpt lat="50.990990551748084" lon="3.7465109944375303"><ele>17.0</ele><time>2026-05-03T11:13:57Z</time></trkpt><trkpt lat="50.99107655337385" lon="3.746512677028036"><ele>16.5</ele><time>2026-05-03T11:13:58Z</time></trkpt><trkpt lat="50.99116132518365" lon="3.746511682430756"><ele>16.0</ele><time>2026-05-03T11:13:59Z</time></trkpt><trkpt lat="50.991242287499574" lon="3.7465347295188143"><ele>15.5</ele><time>2026-05-03T11:14:00Z</time></trkpt><trkpt lat="50.99132018611475" lon="3.7465337211934377"><ele>15.0</ele><time>2026-05-03T11:14:01Z</time></trkpt><trkpt lat="50.9913973682768" lon="3.746532594142156"><ele>14.500000000000002</ele><time>2026-05-03T11:14:02Z</time></trkpt><trkpt lat="50.991473981025095" lon="3.7465068136068966"><ele>14.0</ele><time>2026-05-03T11:14:03Z</time></trkpt><trkpt lat="50.99155005979951" lon="3.7465054421891133"><ele>14.000000000000002</ele><time>2026-05-03T11:14:04Z</time></trkpt><trkpt lat="50.99162462039068" lon="3.7465304235111025"><ele>14.0</ele><time>2026-05-03T11:14:05Z</time></trkpt><trkpt lat="50.99169772504808" lon="3.746529832490643"><ele>14.0</ele><time>2026-05-03T11:14:06Z</time></trkpt><trkpt lat="50.99177604706076" lon="3.7465291992972003"><ele>14.0</ele><time>2026-05-03T11:14:07Z</time></trkpt><trkpt lat="50.99185519754595" lon="3.7465281007957096"><ele>14.000000000000002</ele><time>2026-05-03T11:14:08Z</time></trkpt><trkpt lat="50.99193285789215" lon="3.7465273273468216"><ele>14.0</ele><time>2026-05-03T11:14:09Z</time></trkpt><trkpt lat="50.99201337361425" lon="3.746526615984432"><ele>13.833333333333334</ele><time>2026-05-03T11:14:10Z</time></trkpt><trkpt lat="50.992090367434734" lon="3.7465259357376524"><ele>13.666666666666668</ele><time>2026-05-03T11:14:10.999Z</time></trkpt><trkpt lat="50.9921688315693" lon="3.746525242499451"><ele>13.5</ele><time>2026-05-03T11:14:11.999Z</time></trkpt><trkpt lat="50.992247555040265" lon="3.746522712532283"><ele>13.333333333333332</ele><time>2026-05-03T11:14:12.999Z</time></trkpt><trkpt lat="50.99232400845343" lon="3.7465199691116102"><ele>13.166666666666666</ele><time>2026-05-03T11:14:13.999Z</time></trkpt><trkpt lat="50.992402530025785" lon="3.7465111610624446"><ele>13.0</ele><time>2026-05-03T11:14:14.999Z</time></trkpt><trkpt lat="50.992478773923345" lon="3.7464987881454874"><ele>13.0</ele><time>2026-05-03T11:14:15.999Z</time></trkpt><trkpt lat="50.992550934980535" lon="3.7464870778006887"><ele>13.0</ele><time>2026-05-03T11:14:16.999Z</time></trkpt><trkpt lat="50.9926223659288" lon="3.746475093813519"><ele>13.0</ele><time>2026-05-03T11:14:17.999Z</time></trkpt><trkpt lat="50.99269172084171" lon="3.746461721207571"><ele>13.0</ele><time>2026-05-03T11:14:18.999Z</time></trkpt><trkpt lat="50.99275748380193" lon="3.74644646239632"><ele>13.0</ele><time>2026-05-03T11:14:19.999Z</time></trkpt><trkpt lat="50.99282447892837" lon="3.746406464117461"><ele>13.0</ele><time>2026-05-03T11:14:20.999Z</time></trkpt><trkpt lat="50.9928951421005" lon="3.7463975792991002"><ele>13.0</ele><time>2026-05-03T11:14:21.999Z</time></trkpt><trkpt lat="50.99296469797332" lon="3.7463862862696917"><ele>13.0</ele><time>2026-05-03T11:14:22.999Z</time></trkpt><trkpt lat="50.99303514275416" lon="3.746367905674237"><ele>13.0</ele><time>2026-05-03T11:14:23.999Z</time></trkpt><trkpt lat="50.99310530397906" lon="3.7463470634937672"><ele>13.0</ele><time>2026-05-03T11:14:24.999Z</time></trkpt><trkpt lat="50.993175209925276" lon="3.74631815805968"><ele>13.0</ele><time>2026-05-03T11:14:25.999Z</time></trkpt><trkpt lat="50.993248076723816" lon="3.7463108006937595"><ele>13.0</ele><time>2026-05-03T11:14:26.999Z</time></trkpt><trkpt lat="50.9933217333709" lon="3.746273160569964"><ele>13.0</ele><time>2026-05-03T11:14:27.999Z</time></trkpt><trkpt lat="50.99339650551851" lon="3.7462257854101857"><ele>13.0</ele><time>2026-05-03T11:14:28.999Z</time></trkpt><trkpt lat="50.99347307498484" lon="3.7461730324851388"><ele>13.0</ele><time>2026-05-03T11:14:29.999Z</time></trkpt><trkpt lat="50.99355119938086" lon="3.746119001983309"><ele>13.0</ele><time>2026-05-03T11:14:30.999Z</time></trkpt><trkpt lat="50.9936318276392" lon="3.7460637067651565"><ele>13.0</ele><time>2026-05-03T11:14:31.999Z</time></trkpt><trkpt lat="50.99371538850828" lon="3.746006673575444"><ele>13.0</ele><time>2026-05-03T11:14:32.999Z</time></trkpt><trkpt lat="50.9938009361624" lon="3.7459497111531017"><ele>13.0</ele><time>2026-05-03T11:14:33.999Z</time></trkpt><trkpt lat="50.99388924436889" lon="3.745900485211365"><ele>12.833333333333332</ele><time>2026-05-03T11:14:34.999Z</time></trkpt><trkpt lat="50.99397610220052" lon="3.745858179452028"><ele>12.666666666666666</ele><time>2026-05-03T11:14:35.999Z</time></trkpt><trkpt lat="50.99405736622583" lon="3.7458196262728873"><ele>12.5</ele><time>2026-05-03T11:14:36.999Z</time></trkpt><trkpt lat="50.994131847767704" lon="3.7457808052942627"><ele>12.333333333333332</ele><time>2026-05-03T11:14:37.999Z</time></trkpt><trkpt lat="50.99419615980955" lon="3.7457140492402985"><ele>12.166666666666666</ele><time>2026-05-03T11:14:38.999Z</time></trkpt><trkpt lat="50.99426313111198" lon="3.7456812679056575"><ele>12.0</ele><time>2026-05-03T11:14:39.999Z</time></trkpt><trkpt lat="50.99432583368429" lon="3.7456502234636977"><ele>11.714285714285714</ele><time>2026-05-03T11:14:40.999Z</time></trkpt><trkpt lat="50.994392584286864" lon="3.7456490896087935"><ele>11.428571428571429</ele><time>2026-05-03T11:14:41.999Z</time></trkpt><trkpt lat="50.994459147616034" lon="3.7456247377191985"><ele>11.142857142857142</ele><time>2026-05-03T11:14:42.999Z</time></trkpt><trkpt lat="50.994521836745264" lon="3.7455781149237635"><ele>10.857142857142858</ele><time>2026-05-03T11:14:43.999Z</time></trkpt><trkpt lat="50.99459224132952" lon="3.745558287439174"><ele>10.571428571428571</ele><time>2026-05-03T11:14:44.999Z</time></trkpt><trkpt lat="50.99466738747221" lon="3.7455806385133212"><ele>10.285714285714285</ele><time>2026-05-03T11:14:45.999Z</time></trkpt><trkpt lat="50.994738343175186" lon="3.7455649263672766"><ele>10.0</ele><time>2026-05-03T11:14:46.999Z</time></trkpt><trkpt lat="50.99481046906984" lon="3.7455463861205187"><ele>10.0</ele><time>2026-05-03T11:14:47.999Z</time></trkpt><trkpt lat="50.99488171131257" lon="3.745528144454493"><ele>10.0</ele><time>2026-05-03T11:14:48.999Z</time></trkpt><trkpt lat="50.994949040027564" lon="3.7455144117084753"><ele>10.0</ele><time>2026-05-03T11:14:49.999Z</time></trkpt><trkpt lat="50.99501196709595" lon="3.745502932294531"><ele>10.0</ele><time>2026-05-03T11:14:50.999Z</time></trkpt><trkpt lat="50.99512838219385" lon="3.745476162564235"><ele>10.0</ele><time>2026-05-03T11:14:52.999Z</time></trkpt><trkpt lat="50.99524279447004" lon="3.745511812144061"><ele>10.0</ele><time>2026-05-03T11:14:54.999Z</time></trkpt><trkpt lat="50.99535846989878" lon="3.7455265464675778"><ele>9.857142857142858</ele><time>2026-05-03T11:14:56.999Z</time></trkpt><trkpt lat="50.995423918748564" lon="3.745537248867493"><ele>9.714285714285715</ele><time>2026-05-03T11:14:57.999Z</time></trkpt><trkpt lat="50.99549148103704" lon="3.7455484721476546"><ele>9.571428571428573</ele><time>2026-05-03T11:14:58.998Z</time></trkpt><trkpt lat="50.995559743290436" lon="3.7455394378759452"><ele>9.428571428571429</ele><time>2026-05-03T11:14:59.998Z</time></trkpt><trkpt lat="50.99562377746919" lon="3.7455667575306273"><ele>9.285714285714286</ele><time>2026-05-03T11:15:00.998Z</time></trkpt><trkpt lat="50.9956864779248" lon="3.7455934051962494"><ele>9.142857142857144</ele><time>2026-05-03T11:15:01.998Z</time></trkpt><trkpt lat="50.995748778182325" lon="3.7456162797680816"><ele>9.0</ele><time>2026-05-03T11:15:02.998Z</time></trkpt><trkpt lat="50.99586796328013" lon="3.7456727854445964"><ele>9.6</ele><time>2026-05-03T11:15:04.998Z</time></trkpt><trkpt lat="50.995978470877354" lon="3.7456886240930882"><ele>10.2</ele><time>2026-05-03T11:15:06.998Z</time></trkpt><trkpt lat="50.996047588409006" lon="3.7456108226088953"><ele>10.799999999999999</ele><time>2026-05-03T11:15:08.998Z</time></trkpt><trkpt lat="50.996024488506976" lon="3.745464174086835"><ele>11.4</ele><time>2026-05-03T11:15:09.998Z</time></trkpt><trkpt lat="50.99606735430626" lon="3.7452994029030577"><ele>12.0</ele><time>2026-05-03T11:15:11.998Z</time></trkpt><trkpt lat="50.996116943348625" lon="3.745228309365542"><ele>11.8</ele><time>2026-05-03T11:15:12.998Z</time></trkpt><trkpt lat="50.99619247728103" lon="3.745184324067437"><ele>11.6</ele><time>2026-05-03T11:15:13.998Z</time></trkpt><trkpt lat="50.99626389096042" lon="3.745095845465534"><ele>11.4</ele><time>2026-05-03T11:15:14.998Z</time></trkpt><trkpt lat="50.996343814332405" lon="3.7449968241663503"><ele>11.200000000000001</ele><time>2026-05-03T11:15:15.998Z</time></trkpt><trkpt lat="50.99643762244483" lon="3.7448807147808187"><ele>11.0</ele><time>2026-05-03T11:15:16.998Z</time></trkpt><trkpt lat="50.9965469138378" lon="3.7447456048593257"><ele>11.0</ele><time>2026-05-03T11:15:17.998Z</time></trkpt><trkpt lat="50.99666253563833" lon="3.7446017183523863"><ele>11.0</ele><time>2026-05-03T11:15:18.998Z</time></trkpt><trkpt lat="50.99678230078664" lon="3.7444526322885676"><ele>11.0</ele><time>2026-05-03T11:15:19.998Z</time></trkpt><trkpt lat="50.99689879777087" lon="3.7443076168099685"><ele>11.0</ele><time>2026-05-03T11:15:20.998Z</time></trkpt><trkpt lat="50.99700894798922" lon="3.744173169073819"><ele>10.5</ele><time>2026-05-03T11:15:21.998Z</time></trkpt><trkpt lat="50.99710303972728" lon="3.744019193829011"><ele>10.0</ele><time>2026-05-03T11:15:22.998Z</time></trkpt><trkpt lat="50.997209004118595" lon="3.7438845793995132"><ele>9.5</ele><time>2026-05-03T11:15:23.998Z</time></trkpt><trkpt lat="50.99731507744038" lon="3.743754959100787"><ele>9.0</ele><time>2026-05-03T11:15:24.998Z</time></trkpt><trkpt lat="50.99741905159031" lon="3.7436247064253827"><ele>8.75</ele><time>2026-05-03T11:15:25.998Z</time></trkpt><trkpt lat="50.99753465460179" lon="3.7435190024878926"><ele>8.5</ele><time>2026-05-03T11:15:26.998Z</time></trkpt><trkpt lat="50.9976399473844" lon="3.7433888680252667"><ele>8.25</ele><time>2026-05-03T11:15:27.998Z</time></trkpt><trkpt lat="50.99774358553764" lon="3.7432590467064366"><ele>8.0</ele><time>2026-05-03T11:15:28.998Z</time></trkpt><trkpt lat="50.99783373640636" lon="3.743117313989308"><ele>8.0</ele><time>2026-05-03T11:15:29.998Z</time></trkpt><trkpt lat="50.99793393856193" lon="3.7430093043875936"><ele>8.0</ele><time>2026-05-03T11:15:30.998Z</time></trkpt><trkpt lat="50.998031926509036" lon="3.7429119167527287"><ele>8.0</ele><time>2026-05-03T11:15:31.998Z</time></trkpt><trkpt lat="50.99812260483247" lon="3.7428042726394453"><ele>8.0</ele><time>2026-05-03T11:15:32.998Z</time></trkpt><trkpt lat="50.99820352287049" lon="3.742687607126293"><ele>8.0</ele><time>2026-05-03T11:15:33.998Z</time></trkpt><trkpt lat="50.998276889436106" lon="3.742562377672478"><ele>8.0</ele><time>2026-05-03T11:15:34.998Z</time></trkpt><trkpt lat="50.998355448589095" lon="3.742434906147604"><ele>8.0</ele><time>2026-05-03T11:15:35.998Z</time></trkpt><trkpt lat="50.99846195841847" lon="3.7423295429909342"><ele>8.0</ele><time>2026-05-03T11:15:36.998Z</time></trkpt><trkpt lat="50.99857012254023" lon="3.7421905528363077"><ele>8.0</ele><time>2026-05-03T11:15:37.998Z</time></trkpt><trkpt lat="50.998664230417695" lon="3.742013742774341"><ele>8.0</ele><time>2026-05-03T11:15:38.998Z</time></trkpt><trkpt lat="50.99878838372508" lon="3.7418886666937676"><ele>8.0</ele><time>2026-05-03T11:15:39.998Z</time></trkpt><trkpt lat="50.998903820707305" lon="3.7417459901091696"><ele>8.0</ele><time>2026-05-03T11:15:40.998Z</time></trkpt><trkpt lat="50.9990191689258" lon="3.741602347131664"><ele>7.5</ele><time>2026-05-03T11:15:41.998Z</time></trkpt><trkpt lat="50.99912560158899" lon="3.741441839142895"><ele>7.0</ele><time>2026-05-03T11:15:42.998Z</time></trkpt><trkpt lat="50.99923632440537" lon="3.741302670628153"><ele>6.5</ele><time>2026-05-03T11:15:43.998Z</time></trkpt><trkpt lat="50.99935728246474" lon="3.7411792488808686"><ele>6.0</ele><time>2026-05-03T11:15:45Z</time></trkpt><trkpt lat="50.99946204674402" lon="3.741031832627537"><ele>5.75</ele><time>2026-05-03T11:15:46Z</time></trkpt><trkpt lat="50.99954750377034" lon="3.7408636689136774"><ele>5.5</ele><time>2026-05-03T11:15:47Z</time></trkpt><trkpt lat="50.99963905325646" lon="3.740710256510935"><ele>5.25</ele><time>2026-05-03T11:15:48Z</time></trkpt><trkpt lat="50.99974297675037" lon="3.7405779106332027"><ele>5.0</ele><time>2026-05-03T11:15:49Z</time></trkpt><trkpt lat="50.999831673371745" lon="3.74042255459927"><ele>5.0</ele><time>2026-05-03T11:15:50Z</time></trkpt><trkpt lat="50.99990161784927" lon="3.7402370561651415"><ele>5.0</ele><time>2026-05-03T11:15:51Z</time></trkpt><trkpt lat="50.999970217789354" lon="3.7400592129658796"><ele>5.0</ele><time>2026-05-03T11:15:52Z</time></trkpt><trkpt lat="51.00002628466526" lon="3.7398727902837967"><ele>5.0</ele><time>2026-05-03T11:15:53Z</time></trkpt><trkpt lat="51.00008538125375" lon="3.7396851098408077"><ele>4.75</ele><time>2026-05-03T11:15:54Z</time></trkpt><trkpt lat="51.00010815125721" lon="3.7394698977668472"><ele>4.5</ele><time>2026-05-03T11:15:55Z</time></trkpt><trkpt lat="51.00013627464502" lon="3.7392564270957096"><ele>4.25</ele><time>2026-05-03T11:15:56Z</time></trkpt><trkpt lat="51.00016154108773" lon="3.739038466614441"><ele>4.0</ele><time>2026-05-03T11:15:57Z</time></trkpt><trkpt lat="51.00018769086274" lon="3.7388226951740218"><ele>4.0</ele><time>2026-05-03T11:15:58Z</time></trkpt><trkpt lat="51.000210367660785" lon="3.7385991701285723"><ele>4.0</ele><time>2026-05-03T11:15:59Z</time></trkpt><trkpt lat="51.00023325014442" lon="3.7383709068349433"><ele>4.0</ele><time>2026-05-03T11:16:00Z</time></trkpt><trkpt lat="51.000258414664536" lon="3.7381313371710743"><ele>4.0</ele><time>2026-05-03T11:16:01Z</time></trkpt><trkpt lat="51.00028380304032" lon="3.7378852482979457"><ele>3.6666666666666665</ele><time>2026-05-03T11:16:02Z</time></trkpt><trkpt lat="51.00031092100628" lon="3.7376349163352147"><ele>3.333333333333333</ele><time>2026-05-03T11:16:03Z</time></trkpt><trkpt lat="51.000334968408076" lon="3.737393978929105"><ele>3.0</ele><time>2026-05-03T11:16:04Z</time></trkpt><trkpt lat="51.000360696099946" lon="3.737161567790095"><ele>3.0</ele><time>2026-05-03T11:16:05Z</time></trkpt><trkpt lat="51.000401892809414" lon="3.7369415860327586"><ele>3.0</ele><time>2026-05-03T11:16:06Z</time></trkpt><trkpt lat="51.000410234601496" lon="3.736712347930412"><ele>3.0</ele><time>2026-05-03T11:16:07Z</time></trkpt><trkpt lat="51.00045225924382" lon="3.736496139115065"><ele>3.0</ele><time>2026-05-03T11:16:08Z</time></trkpt><trkpt lat="51.00046341219241" lon="3.736273832619175"><ele>3.0</ele><time>2026-05-03T11:16:09Z</time></trkpt><trkpt lat="51.00049004945585" lon="3.7360586131406364"><ele>3.0</ele><time>2026-05-03T11:16:10Z</time></trkpt><trkpt lat="51.00051255483201" lon="3.7358416667072705"><ele>3.0</ele><time>2026-05-03T11:16:11Z</time></trkpt><trkpt lat="51.00053595949238" lon="3.7356360081176416"><ele>3.0</ele><time>2026-05-03T11:16:12Z</time></trkpt><trkpt lat="51.00055920444317" lon="3.735427799307247"><ele>3.0</ele><time>2026-05-03T11:16:13Z</time></trkpt><trkpt lat="51.00058014303877" lon="3.735237584044231"><ele>3.0</ele><time>2026-05-03T11:16:14Z</time></trkpt><trkpt lat="51.00060025425048" lon="3.7350558471769153"><ele>3.0</ele><time>2026-05-03T11:16:14.999Z</time></trkpt><trkpt lat="51.00061953646531" lon="3.73487947380385"><ele>3.0</ele><time>2026-05-03T11:16:15.999Z</time></trkpt><trkpt lat="51.000636652729504" lon="3.734710005522186"><ele>3.5999999999999996</ele><time>2026-05-03T11:16:16.999Z</time></trkpt><trkpt lat="51.00065456760564" lon="3.7345485098122313"><ele>4.199999999999999</ele><time>2026-05-03T11:16:17.999Z</time></trkpt><trkpt lat="51.00067196517388" lon="3.734387412319357"><ele>4.8</ele><time>2026-05-03T11:16:18.999Z</time></trkpt><trkpt lat="51.00070537482037" lon="3.734237082800514"><ele>5.3999999999999995</ele><time>2026-05-03T11:16:19.999Z</time></trkpt><trkpt lat="51.000720047375744" lon="3.734076152301552"><ele>6.0</ele><time>2026-05-03T11:16:20.999Z</time></trkpt><trkpt lat="51.00071648264264" lon="3.733915671039004"><ele>6.0</ele><time>2026-05-03T11:16:21.999Z</time></trkpt><trkpt lat="51.00072911458666" lon="3.7337611160980475"><ele>6.0</ele><time>2026-05-03T11:16:22.999Z</time></trkpt><trkpt lat="51.00074603201063" lon="3.733609194289753"><ele>6.0</ele><time>2026-05-03T11:16:23.999Z</time></trkpt><trkpt lat="51.00076745623136" lon="3.733453034366563"><ele>6.0</ele><time>2026-05-03T11:16:24.999Z</time></trkpt><trkpt lat="51.00078924347121" lon="3.733298314064696"><ele>6.0</ele><time>2026-05-03T11:16:25.999Z</time></trkpt><trkpt lat="51.00080886170244" lon="3.7331431978329546"><ele>6.0</ele><time>2026-05-03T11:16:26.999Z</time></trkpt><trkpt lat="51.00082820188068" lon="3.7329894523001927"><ele>6.0</ele><time>2026-05-03T11:16:27.999Z</time></trkpt><trkpt lat="51.000845933385925" lon="3.7328352979964428"><ele>6.0</ele><time>2026-05-03T11:16:28.999Z</time></trkpt><trkpt lat="51.00086390283508" lon="3.732677950268692"><ele>6.0</ele><time>2026-05-03T11:16:29.999Z</time></trkpt><trkpt lat="51.0008845594714" lon="3.7325186779889012"><ele>6.0</ele><time>2026-05-03T11:16:30.999Z</time></trkpt><trkpt lat="51.00090723391342" lon="3.7323547110483055"><ele>6.0</ele><time>2026-05-03T11:16:31.999Z</time></trkpt><trkpt lat="51.000929697895565" lon="3.7321889568374713"><ele>6.0</ele><time>2026-05-03T11:16:32.999Z</time></trkpt><trkpt lat="51.00094979232742" lon="3.732023674990789"><ele>6.0</ele><time>2026-05-03T11:16:33.999Z</time></trkpt><trkpt lat="51.00096835053303" lon="3.7318564486938133"><ele>6.0</ele><time>2026-05-03T11:16:34.999Z</time></trkpt><trkpt lat="51.00098668673364" lon="3.7316942250791083"><ele>6.0</ele><time>2026-05-03T11:16:35.999Z</time></trkpt><trkpt lat="51.001004916686576" lon="3.73153568802367"><ele>6.0</ele><time>2026-05-03T11:16:36.999Z</time></trkpt><trkpt lat="51.001021239374325" lon="3.731370287578497"><ele>6.0</ele><time>2026-05-03T11:16:37.999Z</time></trkpt><trkpt lat="51.001039291476886" lon="3.7312004190185606"><ele>6.0</ele><time>2026-05-03T11:16:38.999Z</time></trkpt><trkpt lat="51.00105880376883" lon="3.731024022201963"><ele>6.0</ele><time>2026-05-03T11:16:39.999Z</time></trkpt><trkpt lat="51.001080248545136" lon="3.7308416637744193"><ele>6.0</ele><time>2026-05-03T11:16:40.999Z</time></trkpt><trkpt lat="51.00110256592758" lon="3.7306557928771253"><ele>5.75</ele><time>2026-05-03T11:16:41.999Z</time></trkpt><trkpt lat="51.00112367229583" lon="3.7304714441369806"><ele>5.5</ele><time>2026-05-03T11:16:42.999Z</time></trkpt><trkpt lat="51.00114543750283" lon="3.7302892661640707"><ele>5.25</ele><time>2026-05-03T11:16:43.999Z</time></trkpt><trkpt lat="51.00116862489208" lon="3.7301105450327485"><ele>5.0</ele><time>2026-05-03T11:16:44.999Z</time></trkpt><trkpt lat="51.00119200237437" lon="3.7299331123818766"><ele>4.75</ele><time>2026-05-03T11:16:45.999Z</time></trkpt><trkpt lat="51.00121341055227" lon="3.729753520862604"><ele>4.5</ele><time>2026-05-03T11:16:46.999Z</time></trkpt><trkpt lat="51.00123547427967" lon="3.72957577393213"><ele>4.25</ele><time>2026-05-03T11:16:47.999Z</time></trkpt><trkpt lat="51.00125495761527" lon="3.729402220584806"><ele>4.0</ele><time>2026-05-03T11:16:48.999Z</time></trkpt><trkpt lat="51.001273524397575" lon="3.729229196038725"><ele>4.0</ele><time>2026-05-03T11:16:49.999Z</time></trkpt><trkpt lat="51.001293752703084" lon="3.729058157025686"><ele>4.0</ele><time>2026-05-03T11:16:50.999Z</time></trkpt><trkpt lat="51.001312567589856" lon="3.728888760733806"><ele>4.0</ele><time>2026-05-03T11:16:51.999Z</time></trkpt><trkpt lat="51.00133082446328" lon="3.7287193454456045"><ele>4.0</ele><time>2026-05-03T11:16:52.999Z</time></trkpt><trkpt lat="51.001349147873036" lon="3.7285564650238814"><ele>4.0</ele><time>2026-05-03T11:16:53.999Z</time></trkpt><trkpt lat="51.0013663125107" lon="3.7284002962426284"><ele>4.2</ele><time>2026-05-03T11:16:54.999Z</time></trkpt><trkpt lat="51.00138336815546" lon="3.7282536155801496"><ele>4.4</ele><time>2026-05-03T11:16:55.999Z</time></trkpt><trkpt lat="51.001398442736104" lon="3.728107929496924"><ele>4.6</ele><time>2026-05-03T11:16:56.999Z</time></trkpt><trkpt lat="51.001413384723435" lon="3.727959392687602"><ele>4.8</ele><time>2026-05-03T11:16:57.999Z</time></trkpt><trkpt lat="51.00142927773357" lon="3.727809286104911"><ele>5.0</ele><time>2026-05-03T11:16:58.999Z</time></trkpt><trkpt lat="51.00144731419837" lon="3.727659604061375"><ele>5.0</ele><time>2026-05-03T11:16:59.999Z</time></trkpt><trkpt lat="51.00146498472079" lon="3.7275118523682544"><ele>5.0</ele><time>2026-05-03T11:17:00.999Z</time></trkpt><trkpt lat="51.001480983098695" lon="3.727360044638664"><ele>5.0</ele><time>2026-05-03T11:17:01.999Z</time></trkpt><trkpt lat="51.0014976983191" lon="3.72720724899202"><ele>5.0</ele><time>2026-05-03T11:17:02.999Z</time></trkpt><trkpt lat="51.00151609317528" lon="3.7270522631087935"><ele>5.0</ele><time>2026-05-03T11:17:03.999Z</time></trkpt><trkpt lat="51.00153346253576" lon="3.726902776422914"><ele>4.6</ele><time>2026-05-03T11:17:04.998Z</time></trkpt><trkpt lat="51.00155164400234" lon="3.726754460836927"><ele>4.2</ele><time>2026-05-03T11:17:05.998Z</time></trkpt><trkpt lat="51.00156897100861" lon="3.726606695101692"><ele>3.8</ele><time>2026-05-03T11:17:06.998Z</time></trkpt><trkpt lat="51.001586048460574" lon="3.7264589256875627"><ele>3.4</ele><time>2026-05-03T11:17:07.998Z</time></trkpt><trkpt lat="51.00160274442811" lon="3.7263044682697246"><ele>3.0</ele><time>2026-05-03T11:17:08.998Z</time></trkpt><trkpt lat="51.0016194086359" lon="3.726149327690158"><ele>3.0</ele><time>2026-05-03T11:17:09.998Z</time></trkpt><trkpt lat="51.00163731673126" lon="3.7259918030239514"><ele>3.0</ele><time>2026-05-03T11:17:10.998Z</time></trkpt><trkpt lat="51.00165433699963" lon="3.7258366586564207"><ele>3.0</ele><time>2026-05-03T11:17:11.998Z</time></trkpt><trkpt lat="51.00167009151362" lon="3.725676399540416"><ele>3.0</ele><time>2026-05-03T11:17:12.998Z</time></trkpt><trkpt lat="51.00168686907821" lon="3.725516426133501"><ele>3.0</ele><time>2026-05-03T11:17:13.998Z</time></trkpt><trkpt lat="51.001705301074914" lon="3.7253476225106636"><ele>3.4</ele><time>2026-05-03T11:17:14.998Z</time></trkpt><trkpt lat="51.00172588286134" lon="3.725174516118445"><ele>3.8</ele><time>2026-05-03T11:17:15.998Z</time></trkpt><trkpt lat="51.00174610467751" lon="3.7249976980833135"><ele>4.2</ele><time>2026-05-03T11:17:16.998Z</time></trkpt><trkpt lat="51.00176529565285" lon="3.7248221192166575"><ele>4.6</ele><time>2026-05-03T11:17:17.998Z</time></trkpt><trkpt lat="51.0017852205269" lon="3.7246541552009527"><ele>5.0</ele><time>2026-05-03T11:17:18.998Z</time></trkpt><trkpt lat="51.00180597755171" lon="3.7244929978374777"><ele>5.2</ele><time>2026-05-03T11:17:19.998Z</time></trkpt><trkpt lat="51.0018238842425" lon="3.724332759917933"><ele>5.4</ele><time>2026-05-03T11:17:20.998Z</time></trkpt><trkpt lat="51.00184134179007" lon="3.7241777756960217"><ele>5.6</ele><time>2026-05-03T11:17:21.998Z</time></trkpt><trkpt lat="51.001858776261926" lon="3.7240264700594943"><ele>5.8</ele><time>2026-05-03T11:17:22.998Z</time></trkpt><trkpt lat="51.0018766854158" lon="3.7238769758738557"><ele>6.0</ele><time>2026-05-03T11:17:23.998Z</time></trkpt><trkpt lat="51.001892699131375" lon="3.7237284895868017"><ele>6.0</ele><time>2026-05-03T11:17:24.998Z</time></trkpt><trkpt lat="51.00190846823361" lon="3.723576628741563"><ele>6.0</ele><time>2026-05-03T11:17:25.998Z</time></trkpt><trkpt lat="51.00192418018691" lon="3.723423100644491"><ele>6.0</ele><time>2026-05-03T11:17:26.998Z</time></trkpt><trkpt lat="51.001942667020906" lon="3.723264360852029"><ele>6.0</ele><time>2026-05-03T11:17:27.998Z</time></trkpt><trkpt lat="51.00196241698667" lon="3.7231022709194104"><ele>6.0</ele><time>2026-05-03T11:17:28.998Z</time></trkpt><trkpt lat="51.0019856334228" lon="3.722936900601894"><ele>6.6</ele><time>2026-05-03T11:17:29.998Z</time></trkpt><trkpt lat="51.00200942554486" lon="3.7227672689471842"><ele>7.199999999999999</ele><time>2026-05-03T11:17:30.998Z</time></trkpt><trkpt lat="51.00203362886784" lon="3.7225970849935446"><ele>7.800000000000001</ele><time>2026-05-03T11:17:31.998Z</time></trkpt><trkpt lat="51.002060436731625" lon="3.722422390521629"><ele>8.4</ele><time>2026-05-03T11:17:32.998Z</time></trkpt><trkpt lat="51.00208912339903" lon="3.722245005811899"><ele>9.0</ele><time>2026-05-03T11:17:33.998Z</time></trkpt><trkpt lat="51.00212096441329" lon="3.7220649372505803"><ele>10.25</ele><time>2026-05-03T11:17:34.998Z</time></trkpt><trkpt lat="51.002155904961604" lon="3.7218860709186585"><ele>11.5</ele><time>2026-05-03T11:17:35.998Z</time></trkpt><trkpt lat="51.00219201630197" lon="3.7217133787262537"><ele>12.75</ele><time>2026-05-03T11:17:36.998Z</time></trkpt><trkpt lat="51.00223092072863" lon="3.7215449102484537"><ele>14.0</ele><time>2026-05-03T11:17:37.998Z</time></trkpt><trkpt lat="51.002273122937815" lon="3.7213870853775752"><ele>14.0</ele><time>2026-05-03T11:17:38.998Z</time></trkpt><trkpt lat="51.002318779553846" lon="3.7212359072621726"><ele>13.999999999999998</ele><time>2026-05-03T11:17:39.998Z</time></trkpt><trkpt lat="51.00237052097055" lon="3.721080551801465"><ele>13.999999999999998</ele><time>2026-05-03T11:17:40.998Z</time></trkpt><trkpt lat="51.0024295458923" lon="3.7209252357866576"><ele>14.0</ele><time>2026-05-03T11:17:41.998Z</time></trkpt><trkpt lat="51.00249488768419" lon="3.7207703713743383"><ele>14.0</ele><time>2026-05-03T11:17:42.998Z</time></trkpt><trkpt lat="51.00256357496339" lon="3.720618866688803"><ele>13.75</ele><time>2026-05-03T11:17:43.998Z</time></trkpt><trkpt lat="51.002636468569904" lon="3.720470524455218"><ele>13.5</ele><time>2026-05-03T11:17:44.998Z</time></trkpt><trkpt lat="51.00271592252948" lon="3.720323359232847"><ele>13.25</ele><time>2026-05-03T11:17:45.998Z</time></trkpt><trkpt lat="51.002794718823004" lon="3.7201825776949513"><ele>13.0</ele><time>2026-05-03T11:17:46.998Z</time></trkpt><trkpt lat="51.002867690978675" lon="3.7200464900696995"><ele>11.8</ele><time>2026-05-03T11:17:47.998Z</time></trkpt><trkpt lat="51.002931920904715" lon="3.719904049960885"><ele>10.600000000000001</ele><time>2026-05-03T11:17:48.998Z</time></trkpt><trkpt lat="51.002993915454056" lon="3.7197784968479626"><ele>9.399999999999999</ele><time>2026-05-03T11:17:49.998Z</time></trkpt><trkpt lat="51.003052134783715" lon="3.7196475235885513"><ele>8.2</ele><time>2026-05-03T11:17:51Z</time></trkpt><trkpt lat="51.003110420515156" lon="3.7195185637661954"><ele>7.0</ele><time>2026-05-03T11:17:52Z</time></trkpt><trkpt lat="51.00316556042734" lon="3.7193938333599053"><ele>6.8</ele><time>2026-05-03T11:17:53Z</time></trkpt><trkpt lat="51.0032204859769" lon="3.7192698935053334"><ele>6.6</ele><time>2026-05-03T11:17:54Z</time></trkpt><trkpt lat="51.003275435435754" lon="3.7191473500744374"><ele>6.3999999999999995</ele><time>2026-05-03T11:17:55Z</time></trkpt><trkpt lat="51.003330261315675" lon="3.7190266112097827"><ele>6.199999999999999</ele><time>2026-05-03T11:17:56Z</time></trkpt><trkpt lat="51.00338303008556" lon="3.7189058202879934"><ele>6.0</ele><time>2026-05-03T11:17:57Z</time></trkpt><trkpt lat="51.00343656787697" lon="3.718784916156643"><ele>6.0</ele><time>2026-05-03T11:17:58Z</time></trkpt><trkpt lat="51.00348926430718" lon="3.7186609697682873"><ele>6.0</ele><time>2026-05-03T11:17:59Z</time></trkpt><trkpt lat="51.00354300035255" lon="3.7185341795708"><ele>6.0</ele><time>2026-05-03T11:18:00Z</time></trkpt><trkpt lat="51.00359617404478" lon="3.7184041692315684"><ele>6.0</ele><time>2026-05-03T11:18:01Z</time></trkpt><trkpt lat="51.003650449627195" lon="3.7182744661495795"><ele>6.0</ele><time>2026-05-03T11:18:02Z</time></trkpt><trkpt lat="51.00370428215273" lon="3.718141486424009"><ele>6.4</ele><time>2026-05-03T11:18:03Z</time></trkpt><trkpt lat="51.00376012646974" lon="3.7180101621748882"><ele>6.8</ele><time>2026-05-03T11:18:04Z</time></trkpt><trkpt lat="51.003815844047985" lon="3.7178766349577432"><ele>7.200000000000001</ele><time>2026-05-03T11:18:05Z</time></trkpt><trkpt lat="51.00386969200597" lon="3.7177439411571984"><ele>7.6000000000000005</ele><time>2026-05-03T11:18:06Z</time></trkpt><trkpt lat="51.00392112316054" lon="3.7176124492167415"><ele>8.0</ele><time>2026-05-03T11:18:07Z</time></trkpt><trkpt lat="51.00396912631649" lon="3.7174824903449166"><ele>7.999999999999999</ele><time>2026-05-03T11:18:08Z</time></trkpt><trkpt lat="51.00401481790201" lon="3.71735908255149"><ele>8.0</ele><time>2026-05-03T11:18:09Z</time></trkpt><trkpt lat="51.004059902746896" lon="3.7172452994921974"><ele>8.0</ele><time>2026-05-03T11:18:10Z</time></trkpt><trkpt lat="51.004103734530155" lon="3.717142308839982"><ele>8.0</ele><time>2026-05-03T11:18:11Z</time></trkpt><trkpt lat="51.00414519949186" lon="3.7170473872813816"><ele>7.999999999999999</ele><time>2026-05-03T11:18:12Z</time></trkpt><trkpt lat="51.0041841303928" lon="3.7169604104469056"><ele>8.0</ele><time>2026-05-03T11:18:13Z</time></trkpt><trkpt lat="51.004256084596435" lon="3.716806120580509"><ele>7.666666666666666</ele><time>2026-05-03T11:18:15Z</time></trkpt><trkpt lat="51.0043274090108" lon="3.7166530590703433"><ele>7.333333333333333</ele><time>2026-05-03T11:18:17Z</time></trkpt><trkpt lat="51.00436489649626" lon="3.716568834186427"><ele>7.0</ele><time>2026-05-03T11:18:18Z</time></trkpt><trkpt lat="51.004404187791096" lon="3.7164812057677743"><ele>6.666666666666666</ele><time>2026-05-03T11:18:19Z</time></trkpt><trkpt lat="51.004446298838495" lon="3.71638959375688"><ele>6.333333333333333</ele><time>2026-05-03T11:18:19.999Z</time></trkpt><trkpt lat="51.004490125183175" lon="3.7162878650859064"><ele>6.0</ele><time>2026-05-03T11:18:20.999Z</time></trkpt><trkpt lat="51.00453730415354" lon="3.7161749641139656"><ele>6.0</ele><time>2026-05-03T11:18:21.999Z</time></trkpt><trkpt lat="51.00458572670835" lon="3.7160568292451024"><ele>6.0</ele><time>2026-05-03T11:18:22.999Z</time></trkpt><trkpt lat="51.00463285661387" lon="3.715940752851731"><ele>6.0</ele><time>2026-05-03T11:18:23.999Z</time></trkpt><trkpt lat="51.00467499889421" lon="3.7158401488338604"><ele>6.0</ele><time>2026-05-03T11:18:24.999Z</time></trkpt><trkpt lat="51.0047121636303" lon="3.715750888587182"><ele>6.0</ele><time>2026-05-03T11:18:25.999Z</time></trkpt><trkpt lat="51.00479643722472" lon="3.7156234072796455"><ele>6.0</ele><time>2026-05-03T11:18:27.999Z</time></trkpt><trkpt lat="51.004895664371446" lon="3.715608298904052"><ele>6.333333333333333</ele><time>2026-05-03T11:18:29.999Z</time></trkpt><trkpt lat="51.00500364076422" lon="3.715681600023424"><ele>6.666666666666666</ele><time>2026-05-03T11:18:31.999Z</time></trkpt><trkpt lat="51.00506834082346" lon="3.715732454875234"><ele>7.0</ele><time>2026-05-03T11:18:32.999Z</time></trkpt><trkpt lat="51.005138789241" lon="3.715785402792497"><ele>7.333333333333333</ele><time>2026-05-03T11:18:33.999Z</time></trkpt><trkpt lat="51.00521369804188" lon="3.715840340236247"><ele>7.666666666666666</ele><time>2026-05-03T11:18:34.999Z</time></trkpt><trkpt lat="51.00529280333104" lon="3.715901640146925"><ele>8.0</ele><time>2026-05-03T11:18:35.999Z</time></trkpt><trkpt lat="51.00537158650079" lon="3.7159683285634935"><ele>7.999999999999999</ele><time>2026-05-03T11:18:36.999Z</time></trkpt><trkpt lat="51.00544795375928" lon="3.716036971925657"><ele>8.0</ele><time>2026-05-03T11:18:37.999Z</time></trkpt><trkpt lat="51.00552391020196" lon="3.716107732100691"><ele>8.0</ele><time>2026-05-03T11:18:38.999Z</time></trkpt><trkpt lat="51.00559959847763" lon="3.7161794385015394"><ele>8.0</ele><time>2026-05-03T11:18:39.999Z</time></trkpt><trkpt lat="51.0056695186214" lon="3.716254999471373"><ele>7.999999999999999</ele><time>2026-05-03T11:18:40.999Z</time></trkpt><trkpt lat="51.00574542541359" lon="3.7163335682417733"><ele>8.0</ele><time>2026-05-03T11:18:41.999Z</time></trkpt><trkpt lat="51.00582493393353" lon="3.7164113407084187"><ele>7.800000000000001</ele><time>2026-05-03T11:18:42.999Z</time></trkpt><trkpt lat="51.00590798805149" lon="3.716491489641513"><ele>7.6000000000000005</ele><time>2026-05-03T11:18:43.999Z</time></trkpt><trkpt lat="51.00599513652247" lon="3.7165751891935175"><ele>7.3999999999999995</ele><time>2026-05-03T11:18:44.999Z</time></trkpt><trkpt lat="51.00608241337672" lon="3.716660756663955"><ele>7.199999999999999</ele><time>2026-05-03T11:18:45.999Z</time></trkpt><trkpt lat="51.006172621965376" lon="3.7167486812751744"><ele>7.0</ele><time>2026-05-03T11:18:46.999Z</time></trkpt><trkpt lat="51.00626372371097" lon="3.716837951421069"><ele>7.0</ele><time>2026-05-03T11:18:47.999Z</time></trkpt><trkpt lat="51.0063573651776" lon="3.7169272152517165"><ele>6.999999999999999</ele><time>2026-05-03T11:18:48.999Z</time></trkpt><trkpt lat="51.00645259512369" lon="3.7170153252555247"><ele>6.999999999999999</ele><time>2026-05-03T11:18:49.999Z</time></trkpt><trkpt lat="51.00654972034608" lon="3.7171004813989437"><ele>7.0</ele><time>2026-05-03T11:18:50.999Z</time></trkpt><trkpt lat="51.00664640593618" lon="3.7171823815198"><ele>7.0</ele><time>2026-05-03T11:18:51.999Z</time></trkpt><trkpt lat="51.00674128953932" lon="3.717258365085384"><ele>6.6</ele><time>2026-05-03T11:18:52.999Z</time></trkpt><trkpt lat="51.00683286428627" lon="3.717330254872198"><ele>6.199999999999999</ele><time>2026-05-03T11:18:53.999Z</time></trkpt><trkpt lat="51.00692165347266" lon="3.717397946029249"><ele>5.8</ele><time>2026-05-03T11:18:54.999Z</time></trkpt><trkpt lat="51.007009608464585" lon="3.7174521547124955"><ele>5.4</ele><time>2026-05-03T11:18:55.999Z</time></trkpt><trkpt lat="51.007107112260826" lon="3.717500340892688"><ele>5.0</ele><time>2026-05-03T11:18:56.999Z</time></trkpt><trkpt lat="51.00720013593449" lon="3.717537889119995"><ele>5.0</ele><time>2026-05-03T11:18:57.999Z</time></trkpt><trkpt lat="51.00729517575449" lon="3.7175710292692186"><ele>5.0</ele><time>2026-05-03T11:18:58.999Z</time></trkpt><trkpt lat="51.007396671716265" lon="3.717606855358656"><ele>5.0</ele><time>2026-05-03T11:18:59.999Z</time></trkpt><trkpt lat="51.007499123227795" lon="3.717641742512831"><ele>5.0</ele><time>2026-05-03T11:19:00.999Z</time></trkpt><trkpt lat="51.00760798628802" lon="3.717678648940031"><ele>5.0</ele><time>2026-05-03T11:19:01.999Z</time></trkpt><trkpt lat="51.00772158561452" lon="3.717717727582768"><ele>5.25</ele><time>2026-05-03T11:19:02.999Z</time></trkpt><trkpt lat="51.00783909191446" lon="3.7177482072738437"><ele>5.5</ele><time>2026-05-03T11:19:03.999Z</time></trkpt><trkpt lat="51.0079598866451" lon="3.7177771078022044"><ele>5.75</ele><time>2026-05-03T11:19:04.999Z</time></trkpt><trkpt lat="51.00808524327344" lon="3.717804937436986"><ele>6.0</ele><time>2026-05-03T11:19:05.999Z</time></trkpt><trkpt lat="51.00821057456137" lon="3.717838395543104"><ele>6.0</ele><time>2026-05-03T11:19:06.999Z</time></trkpt><trkpt lat="51.0083298872791" lon="3.717869800604352"><ele>6.0</ele><time>2026-05-03T11:19:07.999Z</time></trkpt><trkpt lat="51.00844170489817" lon="3.7178967269440055"><ele>6.0</ele><time>2026-05-03T11:19:08.999Z</time></trkpt><trkpt lat="51.008556215960816" lon="3.7179341572893323"><ele>6.0</ele><time>2026-05-03T11:19:09.998Z</time></trkpt><trkpt lat="51.008664492966716" lon="3.7179792526250783"><ele>6.0</ele><time>2026-05-03T11:19:10.998Z</time></trkpt><trkpt lat="51.00876765573189" lon="3.718029585134934"><ele>6.0</ele><time>2026-05-03T11:19:11.998Z</time></trkpt><trkpt lat="51.0088643824214" lon="3.718077089016392"><ele>6.0</ele><time>2026-05-03T11:19:12.998Z</time></trkpt><trkpt lat="51.00895852243231" lon="3.7181226600511845"><ele>6.0</ele><time>2026-05-03T11:19:13.998Z</time></trkpt><trkpt lat="51.00905425340353" lon="3.7181638355721125"><ele>6.0</ele><time>2026-05-03T11:19:14.998Z</time></trkpt><trkpt lat="51.00914346280645" lon="3.7181966551256114"><ele>5.3999999999999995</ele><time>2026-05-03T11:19:15.998Z</time></trkpt><trkpt lat="51.00923230336428" lon="3.7182172637224107"><ele>4.8</ele><time>2026-05-03T11:19:16.998Z</time></trkpt><trkpt lat="51.00932266693307" lon="3.718226571656323"><ele>4.199999999999999</ele><time>2026-05-03T11:19:17.998Z</time></trkpt><trkpt lat="51.00941673404075" lon="3.7182462648895647"><ele>3.5999999999999996</ele><time>2026-05-03T11:19:18.998Z</time></trkpt><trkpt lat="51.009519778809384" lon="3.718289476498456"><ele>3.0</ele><time>2026-05-03T11:19:19.998Z</time></trkpt><trkpt lat="51.009632219559904" lon="3.718350020082932"><ele>3.0</ele><time>2026-05-03T11:19:20.998Z</time></trkpt><trkpt lat="51.00975969189663" lon="3.7184179031660998"><ele>3.0</ele><time>2026-05-03T11:19:21.998Z</time></trkpt><trkpt lat="51.00990184134848" lon="3.718495829205473"><ele>3.0</ele><time>2026-05-03T11:19:22.998Z</time></trkpt><trkpt lat="51.01005292925736" lon="3.7185902157468833"><ele>3.0</ele><time>2026-05-03T11:19:23.998Z</time></trkpt><trkpt lat="51.010216164893215" lon="3.7187006181439743"><ele>3.0</ele><time>2026-05-03T11:19:24.998Z</time></trkpt><trkpt lat="51.0103951813086" lon="3.718822903950128"><ele>3.0</ele><time>2026-05-03T11:19:25.998Z</time></trkpt><trkpt lat="51.01058429459949" lon="3.7189478291100397"><ele>3.0</ele><time>2026-05-03T11:19:26.998Z</time></trkpt><trkpt lat="51.01078486139502" lon="3.7190764961218745"><ele>4.0</ele><time>2026-05-03T11:19:27.998Z</time></trkpt><trkpt lat="51.010986335032115" lon="3.7191944079726578"><ele>5.0</ele><time>2026-05-03T11:19:28.998Z</time></trkpt><trkpt lat="51.01119385410639" lon="3.719317335457389"><ele>6.0</ele><time>2026-05-03T11:19:29.998Z</time></trkpt><trkpt lat="51.01140704929801" lon="3.7194511408825663"><ele>6.0</ele><time>2026-05-03T11:19:30.998Z</time></trkpt><trkpt lat="51.01162128529154" lon="3.7195795177381665"><ele>6.0</ele><time>2026-05-03T11:19:31.998Z</time></trkpt><trkpt lat="51.011810569683085" lon="3.7197091334375134"><ele>6.0</ele><time>2026-05-03T11:19:32.998Z</time></trkpt><trkpt lat="51.011986012353944" lon="3.7198123341406775"><ele>6.0</ele><time>2026-05-03T11:19:33.998Z</time></trkpt><trkpt lat="51.012242064471344" lon="3.719929127624156"><ele>6.0</ele><time>2026-05-03T11:19:34.998Z</time></trkpt><trkpt lat="51.0124145853334" lon="3.7200316713507555"><ele>6.333333333333334</ele><time>2026-05-03T11:19:35.998Z</time></trkpt><trkpt lat="51.01257692187822" lon="3.720126321399979"><ele>6.666666666666667</ele><time>2026-05-03T11:19:36.998Z</time></trkpt><trkpt lat="51.01272584801118" lon="3.7202136765268206"><ele>7.0</ele><time>2026-05-03T11:19:37.998Z</time></trkpt><trkpt lat="51.01287283736405" lon="3.7202856113853433"><ele>6.333333333333334</ele><time>2026-05-03T11:19:38.998Z</time></trkpt><trkpt lat="51.01302982163588" lon="3.7203434404328077"><ele>5.666666666666667</ele><time>2026-05-03T11:19:39.998Z</time></trkpt><trkpt lat="51.013185952224774" lon="3.7203914450492386"><ele>5.0</ele><time>2026-05-03T11:19:40.998Z</time></trkpt><trkpt lat="51.01335025180285" lon="3.7204172196095375"><ele>4.0</ele><time>2026-05-03T11:19:41.998Z</time></trkpt><trkpt lat="51.01352243110433" lon="3.720433790068142"><ele>3.0</ele><time>2026-05-03T11:19:42.998Z</time></trkpt><trkpt lat="51.013699170892394" lon="3.720452885181918"><ele>2.0</ele><time>2026-05-03T11:19:43.998Z</time></trkpt><trkpt lat="51.01388081961965" lon="3.720475481634319"><ele>2.0</ele><time>2026-05-03T11:19:44.998Z</time></trkpt><trkpt lat="51.01406745286878" lon="3.7204959091367993"><ele>2.0</ele><time>2026-05-03T11:19:45.998Z</time></trkpt><trkpt lat="51.01425429158166" lon="3.720523971385739"><ele>2.0</ele><time>2026-05-03T11:19:46.998Z</time></trkpt><trkpt lat="51.01443317578025" lon="3.720549159772795"><ele>2.333333333333333</ele><time>2026-05-03T11:19:47.998Z</time></trkpt><trkpt lat="51.014609399268544" lon="3.720569526041479"><ele>2.6666666666666665</ele><time>2026-05-03T11:19:48.998Z</time></trkpt><trkpt lat="51.01478866225282" lon="3.7205904478044096"><ele>3.0</ele><time>2026-05-03T11:19:49.998Z</time></trkpt><trkpt lat="51.01496518016468" lon="3.7206112584566324"><ele>4.333333333333334</ele><time>2026-05-03T11:19:50.998Z</time></trkpt><trkpt lat="51.01512709965163" lon="3.720630316550801"><ele>5.666666666666667</ele><time>2026-05-03T11:19:51.998Z</time></trkpt><trkpt lat="51.01528493891097" lon="3.7206540547269316"><ele>7.0</ele><time>2026-05-03T11:19:52.998Z</time></trkpt><trkpt lat="51.01543426837034" lon="3.7206754627684755"><ele>7.0</ele><time>2026-05-03T11:19:53.998Z</time></trkpt><trkpt lat="51.01557109385908" lon="3.720683937016581"><ele>7.0</ele><time>2026-05-03T11:19:54.998Z</time></trkpt><trkpt lat="51.01570948789749" lon="3.7206742883175035"><ele>7.0</ele><time>2026-05-03T11:19:55.998Z</time></trkpt><trkpt lat="51.01584533433593" lon="3.7206524441750646"><ele>7.0</ele><time>2026-05-03T11:19:57Z</time></trkpt><trkpt lat="51.01596138128756" lon="3.7206036390650485"><ele>6.3999999999999995</ele><time>2026-05-03T11:19:58Z</time></trkpt><trkpt lat="51.01606858856303" lon="3.7205622670157807"><ele>5.799999999999999</ele><time>2026-05-03T11:19:59Z</time></trkpt><trkpt lat="51.01616951313777" lon="3.720517474161147"><ele>5.2</ele><time>2026-05-03T11:20:00Z</time></trkpt><trkpt lat="51.01625963002366" lon="3.7204625488220526"><ele>4.6</ele><time>2026-05-03T11:20:01Z</time></trkpt><trkpt lat="51.016335569180185" lon="3.7204176975159196"><ele>4.0</ele><time>2026-05-03T11:20:02Z</time></trkpt><trkpt lat="51.01639461687476" lon="3.7203800828865954"><ele>4.0</ele><time>2026-05-03T11:20:03Z</time></trkpt><trkpt lat="51.016473482915536" lon="3.720335299352198"><ele>4.0</ele><time>2026-05-03T11:20:05Z</time></trkpt><trkpt lat="51.01654992041861" lon="3.720283043519837"><ele>4.0</ele><time>2026-05-03T11:20:27.999Z</time></trkpt><trkpt lat="51.01666990598874" lon="3.7202200872954254"><ele>4.0</ele><time>2026-05-03T11:20:29.999Z</time></trkpt><trkpt lat="51.01675562090664" lon="3.7201821005652747"><ele>4.0</ele><time>2026-05-03T11:20:30.999Z</time></trkpt><trkpt lat="51.016851408494766" lon="3.7201553676327817"><ele>4.2</ele><time>2026-05-03T11:20:31.999Z</time></trkpt><trkpt lat="51.01693975881103" lon="3.720138864487397"><ele>4.4</ele><time>2026-05-03T11:20:32.999Z</time></trkpt><trkpt lat="51.01704110044961" lon="3.720120145187014"><ele>4.6</ele><time>2026-05-03T11:20:33.999Z</time></trkpt><trkpt lat="51.017139733124985" lon="3.7200962218979146"><ele>4.8</ele><time>2026-05-03T11:20:34.999Z</time></trkpt><trkpt lat="51.017239026085726" lon="3.7200629347445338"><ele>5.0</ele><time>2026-05-03T11:20:35.999Z</time></trkpt><trkpt lat="51.01734025245301" lon="3.720014176310533"><ele>5.0</ele><time>2026-05-03T11:20:36.999Z</time></trkpt><trkpt lat="51.01744323857397" lon="3.719956600352536"><ele>5.0</ele><time>2026-05-03T11:20:37.999Z</time></trkpt><trkpt lat="51.01755032957275" lon="3.7198961424678907"><ele>5.0</ele><time>2026-05-03T11:20:38.999Z</time></trkpt><trkpt lat="51.01766421792145" lon="3.7198483108950313"><ele>5.0</ele><time>2026-05-03T11:20:39.999Z</time></trkpt><trkpt lat="51.01777318283375" lon="3.719819380536638"><ele>5.0</ele><time>2026-05-03T11:20:40.999Z</time></trkpt><trkpt lat="51.01788295195932" lon="3.719814703999321"><ele>5.0</ele><time>2026-05-03T11:20:41.999Z</time></trkpt><trkpt lat="51.01798295231235" lon="3.7198243800559565"><ele>5.0</ele><time>2026-05-03T11:20:42.999Z</time></trkpt><trkpt lat="51.01807377825488" lon="3.719833426444065"><ele>5.0</ele><time>2026-05-03T11:20:43.999Z</time></trkpt><trkpt lat="51.01815704994181" lon="3.7198463856600665"><ele>5.0</ele><time>2026-05-03T11:20:44.999Z</time></trkpt><trkpt lat="51.01823796187829" lon="3.71985478493333"><ele>5.0</ele><time>2026-05-03T11:20:45.999Z</time></trkpt><trkpt lat="51.01831366581028" lon="3.7198630365686967"><ele>5.0</ele><time>2026-05-03T11:20:46.999Z</time></trkpt><trkpt lat="51.01842660764994" lon="3.7198796186031187"><ele>5.0</ele><time>2026-05-03T11:20:48.999Z</time></trkpt><trkpt lat="51.01850505187579" lon="3.7198894393204354"><ele>5.0</ele><time>2026-05-03T11:20:50.999Z</time></trkpt><trkpt lat="51.01860772181292" lon="3.719902565020512"><ele>5.0</ele><time>2026-05-03T11:20:52.999Z</time></trkpt><trkpt lat="51.018684841830215" lon="3.7199118658476684"><ele>5.0</ele><time>2026-05-03T11:20:53.999Z</time></trkpt><trkpt lat="51.01877047691609" lon="3.7199240374005904"><ele>5.285714285714286</ele><time>2026-05-03T11:20:54.999Z</time></trkpt><trkpt lat="51.01885893313443" lon="3.719936982181154"><ele>5.571428571428571</ele><time>2026-05-03T11:20:55.999Z</time></trkpt><trkpt lat="51.01893052582731" lon="3.71995220678006"><ele>5.857142857142858</ele><time>2026-05-03T11:20:56.999Z</time></trkpt><trkpt lat="51.01899585229387" lon="3.7199604962121198"><ele>6.142857142857142</ele><time>2026-05-03T11:20:57.999Z</time></trkpt><trkpt lat="51.01906233937775" lon="3.7199702977272087"><ele>6.428571428571429</ele><time>2026-05-03T11:20:58.999Z</time></trkpt><trkpt lat="51.019131955143884" lon="3.719980829569344"><ele>6.714285714285714</ele><time>2026-05-03T11:20:59.999Z</time></trkpt><trkpt lat="51.01921098340214" lon="3.719989597393302"><ele>7.0</ele><time>2026-05-03T11:21:00.999Z</time></trkpt><trkpt lat="51.01929376247623" lon="3.720000621415924"><ele>7.6</ele><time>2026-05-03T11:21:01.999Z</time></trkpt><trkpt lat="51.019382658227784" lon="3.7200157683831625"><ele>8.2</ele><time>2026-05-03T11:21:02.999Z</time></trkpt><trkpt lat="51.01947966797371" lon="3.720031158255403"><ele>8.8</ele><time>2026-05-03T11:21:03.999Z</time></trkpt><trkpt lat="51.019577659651965" lon="3.720044623550941"><ele>9.4</ele><time>2026-05-03T11:21:04.999Z</time></trkpt><trkpt lat="51.01967967695928" lon="3.7200570123744994"><ele>10.0</ele><time>2026-05-03T11:21:05.999Z</time></trkpt><trkpt lat="51.01978005568905" lon="3.720073250725942"><ele>10.0</ele><time>2026-05-03T11:21:06.999Z</time></trkpt><trkpt lat="51.01988070303255" lon="3.7200883981091577"><ele>10.0</ele><time>2026-05-03T11:21:07.999Z</time></trkpt><trkpt lat="51.019984266812926" lon="3.7201033506157146"><ele>10.0</ele><time>2026-05-03T11:21:08.999Z</time></trkpt><trkpt lat="51.02008574504944" lon="3.7201196006576938"><ele>10.0</ele><time>2026-05-03T11:21:09.999Z</time></trkpt><trkpt lat="51.020191515093785" lon="3.720135329969617"><ele>10.0</ele><time>2026-05-03T11:21:10.999Z</time></trkpt><trkpt lat="51.02030844235455" lon="3.720152844306811"><ele>9.25</ele><time>2026-05-03T11:21:11.999Z</time></trkpt><trkpt lat="51.02042810449033" lon="3.720174473083817"><ele>8.5</ele><time>2026-05-03T11:21:12.999Z</time></trkpt><trkpt lat="51.020554711342335" lon="3.7201919346891397"><ele>7.75</ele><time>2026-05-03T11:21:13.999Z</time></trkpt><trkpt lat="51.02068497247736" lon="3.7202201070930285"><ele>7.0</ele><time>2026-05-03T11:21:14.999Z</time></trkpt><trkpt lat="51.02081187747041" lon="3.7202397879749802"><ele>7.0</ele><time>2026-05-03T11:21:15.998Z</time></trkpt><trkpt lat="51.02092910673248" lon="3.720257683663603"><ele>6.999999999999999</ele><time>2026-05-03T11:21:16.998Z</time></trkpt><trkpt lat="51.02104172553631" lon="3.7202723808074243"><ele>6.999999999999999</ele><time>2026-05-03T11:21:17.998Z</time></trkpt><trkpt lat="51.0211446845051" lon="3.7202902516975387"><ele>7.0</ele><time>2026-05-03T11:21:18.998Z</time></trkpt><trkpt lat="51.02124222133566" lon="3.720304751848251"><ele>7.0</ele><time>2026-05-03T11:21:19.998Z</time></trkpt><trkpt lat="51.02132927872254" lon="3.7203198823710313"><ele>7.0</ele><time>2026-05-03T11:21:20.998Z</time></trkpt><trkpt lat="51.02141488765453" lon="3.7203320841802188"><ele>6.999999999999999</ele><time>2026-05-03T11:21:21.998Z</time></trkpt><trkpt lat="51.02150386568217" lon="3.72034114620241"><ele>6.999999999999999</ele><time>2026-05-03T11:21:22.998Z</time></trkpt><trkpt lat="51.021592423391986" lon="3.720357224760844"><ele>7.0</ele><time>2026-05-03T11:21:23.998Z</time></trkpt><trkpt lat="51.02168074256878" lon="3.72036989365632"><ele>7.0</ele><time>2026-05-03T11:21:24.998Z</time></trkpt><trkpt lat="51.021778349438016" lon="3.7203869361144255"><ele>7.0</ele><time>2026-05-03T11:21:25.998Z</time></trkpt><trkpt lat="51.0218901124264" lon="3.720411838223747"><ele>7.0</ele><time>2026-05-03T11:21:26.998Z</time></trkpt><trkpt lat="51.02200619471105" lon="3.72043599225622"><ele>7.0</ele><time>2026-05-03T11:21:27.998Z</time></trkpt><trkpt lat="51.022132049540545" lon="3.720452475283776"><ele>7.0</ele><time>2026-05-03T11:21:28.998Z</time></trkpt><trkpt lat="51.02226097538767" lon="3.72046631114942"><ele>7.0</ele><time>2026-05-03T11:21:29.998Z</time></trkpt><trkpt lat="51.02239074050457" lon="3.72048352865402"><ele>7.0</ele><time>2026-05-03T11:21:30.998Z</time></trkpt><trkpt lat="51.02251933640827" lon="3.7205030660852456"><ele>7.0</ele><time>2026-05-03T11:21:31.998Z</time></trkpt><trkpt lat="51.022646118847064" lon="3.720519087694973"><ele>7.0</ele><time>2026-05-03T11:21:32.998Z</time></trkpt><trkpt lat="51.02277134793245" lon="3.720533054044076"><ele>7.0</ele><time>2026-05-03T11:21:33.998Z</time></trkpt><trkpt lat="51.02289707617323" lon="3.7205466648963825"><ele>7.0</ele><time>2026-05-03T11:21:34.998Z</time></trkpt><trkpt lat="51.023021082798124" lon="3.720556553362489"><ele>7.0</ele><time>2026-05-03T11:21:35.998Z</time></trkpt><trkpt lat="51.02314704746807" lon="3.7205660912002503"><ele>7.0</ele><time>2026-05-03T11:21:36.998Z</time></trkpt><trkpt lat="51.02327310675677" lon="3.720580548139037"><ele>7.0</ele><time>2026-05-03T11:21:37.998Z</time></trkpt><trkpt lat="51.02339902839338" lon="3.720580666906854"><ele>7.0</ele><time>2026-05-03T11:21:38.998Z</time></trkpt><trkpt lat="51.02353408305604" lon="3.720621107974016"><ele>7.0</ele><time>2026-05-03T11:21:39.998Z</time></trkpt><trkpt lat="51.02367229274967" lon="3.72064039282767"><ele>7.0</ele><time>2026-05-03T11:21:40.998Z</time></trkpt><trkpt lat="51.02381636347241" lon="3.720660301379875"><ele>7.0</ele><time>2026-05-03T11:21:41.998Z</time></trkpt><trkpt lat="51.0239611667669" lon="3.720683221805447"><ele>7.0</ele><time>2026-05-03T11:21:42.998Z</time></trkpt><trkpt lat="51.024097468379644" lon="3.7207032168459873"><ele>7.0</ele><time>2026-05-03T11:21:43.998Z</time></trkpt><trkpt lat="51.02422818079577" lon="3.720717342169456"><ele>7.0</ele><time>2026-05-03T11:21:44.998Z</time></trkpt><trkpt lat="51.02435761789627" lon="3.72072206449014"><ele>7.5</ele><time>2026-05-03T11:21:45.998Z</time></trkpt><trkpt lat="51.02449329441804" lon="3.7207153615394994"><ele>8.0</ele><time>2026-05-03T11:21:46.998Z</time></trkpt><trkpt lat="51.02463495957067" lon="3.720700497512467"><ele>8.5</ele><time>2026-05-03T11:21:47.998Z</time></trkpt><trkpt lat="51.02478637991881" lon="3.720684262924888"><ele>9.0</ele><time>2026-05-03T11:21:48.998Z</time></trkpt><trkpt lat="51.024928351942876" lon="3.7206720278812835"><ele>8.5</ele><time>2026-05-03T11:21:49.998Z</time></trkpt><trkpt lat="51.02505948068491" lon="3.720659777117083"><ele>8.0</ele><time>2026-05-03T11:21:50.998Z</time></trkpt><trkpt lat="51.02518702576768" lon="3.72064873285808"><ele>7.5</ele><time>2026-05-03T11:21:51.998Z</time></trkpt><trkpt lat="51.02530855894954" lon="3.720639893780671"><ele>7.0</ele><time>2026-05-03T11:21:52.998Z</time></trkpt><trkpt lat="51.025423622126915" lon="3.720628019337529"><ele>7.000000000000001</ele><time>2026-05-03T11:21:53.998Z</time></trkpt><trkpt lat="51.02552028788241" lon="3.720617266548044"><ele>7.0</ele><time>2026-05-03T11:21:54.998Z</time></trkpt><trkpt lat="51.02560807846987" lon="3.7206101001991065"><ele>7.0</ele><time>2026-05-03T11:21:55.998Z</time></trkpt><trkpt lat="51.02569812469979" lon="3.720598832479063"><ele>7.0</ele><time>2026-05-03T11:21:56.998Z</time></trkpt><trkpt lat="51.02578722263622" lon="3.720588500323843"><ele>7.000000000000001</ele><time>2026-05-03T11:21:57.998Z</time></trkpt><trkpt lat="51.02586370564345" lon="3.7205821169173285"><ele>7.0</ele><time>2026-05-03T11:21:58.998Z</time></trkpt><trkpt lat="51.025929622897" lon="3.720576927870752"><ele>7.500000000000001</ele><time>2026-05-03T11:21:59.998Z</time></trkpt><trkpt lat="51.02603414671906" lon="3.7205749499036536"><ele>8.0</ele><time>2026-05-03T11:22:01.998Z</time></trkpt><trkpt lat="51.02611004661001" lon="3.7205726457641157"><ele>8.5</ele><time>2026-05-03T11:22:04Z</time></trkpt><trkpt lat="51.026177759774676" lon="3.7205670054560853"><ele>9.0</ele><time>2026-05-03T11:22:07Z</time></trkpt><trkpt lat="51.026242891749874" lon="3.7205548700749724"><ele>9.5</ele><time>2026-05-03T11:22:15Z</time></trkpt><trkpt lat="51.026326168358906" lon="3.720549707506487"><ele>10.0</ele><time>2026-05-03T11:22:17Z</time></trkpt><trkpt lat="51.02642934139813" lon="3.7205355834508027"><ele>10.0</ele><time>2026-05-03T11:22:19Z</time></trkpt><trkpt lat="51.026515155506615" lon="3.7205190878298127"><ele>10.0</ele><time>2026-05-03T11:22:21Z</time></trkpt><trkpt lat="51.02659178569111" lon="3.7206881148481004"><ele>10.0</ele><time>2026-05-03T11:22:23Z</time></trkpt><trkpt lat="51.026658413432735" lon="3.720849969561182"><ele>10.0</ele><time>2026-05-03T11:22:25Z</time></trkpt><trkpt lat="51.02670549266817" lon="3.720966568758714"><ele>10.0</ele><time>2026-05-03T11:22:26Z</time></trkpt><trkpt lat="51.02675557365009" lon="3.721099816813963"><ele>9.833333333333334</ele><time>2026-05-03T11:22:27Z</time></trkpt><trkpt lat="51.026807658281044" lon="3.7212221165465453"><ele>9.666666666666668</ele><time>2026-05-03T11:22:28Z</time></trkpt><trkpt lat="51.02686091364945" lon="3.7213352445191146"><ele>9.5</ele><time>2026-05-03T11:22:28.999Z</time></trkpt><trkpt lat="51.026909400808385" lon="3.7214421915585696"><ele>9.333333333333334</ele><time>2026-05-03T11:22:29.999Z</time></trkpt><trkpt lat="51.02695182197559" lon="3.7215519020932395"><ele>9.166666666666666</ele><time>2026-05-03T11:22:30.999Z</time></trkpt><trkpt lat="51.026990720414965" lon="3.721650661710704"><ele>9.0</ele><time>2026-05-03T11:22:31.999Z</time></trkpt><trkpt lat="51.027026701785694" lon="3.7217499879214455"><ele>9.0</ele><time>2026-05-03T11:22:32.999Z</time></trkpt><trkpt lat="51.027062482339815" lon="3.7218426267465943"><ele>9.0</ele><time>2026-05-03T11:22:33.999Z</time></trkpt><trkpt lat="51.02714204347691" lon="3.721991343509196"><ele>9.0</ele><time>2026-05-03T11:22:35.999Z</time></trkpt><trkpt lat="51.02725145728544" lon="3.7220600786611744"><ele>9.0</ele><time>2026-05-03T11:22:37.999Z</time></trkpt><trkpt lat="51.02737424574325" lon="3.7220706831630044"><ele>9.0</ele><time>2026-05-03T11:22:39.999Z</time></trkpt><trkpt lat="51.027453997552314" lon="3.722082791669353"><ele>8.833333333333334</ele><time>2026-05-03T11:22:40.999Z</time></trkpt><trkpt lat="51.027531228520004" lon="3.7220946576314153"><ele>8.666666666666666</ele><time>2026-05-03T11:22:41.999Z</time></trkpt><trkpt lat="51.02761080217791" lon="3.72210276084025"><ele>8.5</ele><time>2026-05-03T11:22:42.999Z</time></trkpt><trkpt lat="51.027687857702674" lon="3.722111612830649"><ele>8.333333333333332</ele><time>2026-05-03T11:22:43.999Z</time></trkpt><trkpt lat="51.02776275678881" lon="3.7221238501525513"><ele>8.166666666666666</ele><time>2026-05-03T11:22:44.999Z</time></trkpt><trkpt lat="51.0278374663624" lon="3.722131922981737"><ele>8.0</ele><time>2026-05-03T11:22:45.999Z</time></trkpt><trkpt lat="51.0279156655592" lon="3.722143476378096"><ele>8.0</ele><time>2026-05-03T11:22:46.999Z</time></trkpt><trkpt lat="51.02799582310376" lon="3.7221649548044744"><ele>8.0</ele><time>2026-05-03T11:22:47.999Z</time></trkpt><trkpt lat="51.02808282229755" lon="3.72219527414213"><ele>8.0</ele><time>2026-05-03T11:22:48.999Z</time></trkpt><trkpt lat="51.028184662652656" lon="3.7222274699084985"><ele>8.0</ele><time>2026-05-03T11:22:49.999Z</time></trkpt><trkpt lat="51.028302679893564" lon="3.7222636893099046"><ele>8.0</ele><time>2026-05-03T11:22:50.999Z</time></trkpt><trkpt lat="51.02843316520403" lon="3.7222964322596237"><ele>8.25</ele><time>2026-05-03T11:22:51.999Z</time></trkpt><trkpt lat="51.02856842964101" lon="3.7223163587029156"><ele>8.5</ele><time>2026-05-03T11:22:52.999Z</time></trkpt><trkpt lat="51.0287019677838" lon="3.722329649748387"><ele>8.75</ele><time>2026-05-03T11:22:53.999Z</time></trkpt><trkpt lat="51.028830860710066" lon="3.722342034142764"><ele>9.0</ele><time>2026-05-03T11:22:54.999Z</time></trkpt><trkpt lat="51.028955379020864" lon="3.722358759159548"><ele>9.0</ele><time>2026-05-03T11:22:55.999Z</time></trkpt><trkpt lat="51.02907547808974" lon="3.722380944834501"><ele>9.0</ele><time>2026-05-03T11:22:56.999Z</time></trkpt><trkpt lat="51.02918893468405" lon="3.7223977637671544"><ele>9.0</ele><time>2026-05-03T11:22:57.999Z</time></trkpt><trkpt lat="51.02930058278662" lon="3.722418546368508"><ele>9.0</ele><time>2026-05-03T11:22:58.999Z</time></trkpt><trkpt lat="51.029405006606645" lon="3.7224554029545907"><ele>9.166666666666666</ele><time>2026-05-03T11:22:59.999Z</time></trkpt><trkpt lat="51.029507043040326" lon="3.7224973813064626"><ele>9.333333333333334</ele><time>2026-05-03T11:23:00.999Z</time></trkpt><trkpt lat="51.02959781283532" lon="3.722529700173383"><ele>9.5</ele><time>2026-05-03T11:23:01.999Z</time></trkpt><trkpt lat="51.02968056671466" lon="3.722549598553997"><ele>9.666666666666668</ele><time>2026-05-03T11:23:02.999Z</time></trkpt><trkpt lat="51.02975678766997" lon="3.7225645837927552"><ele>9.833333333333334</ele><time>2026-05-03T11:23:03.999Z</time></trkpt><trkpt lat="51.02982203524593" lon="3.72257055721465"><ele>10.0</ele><time>2026-05-03T11:23:04.999Z</time></trkpt><trkpt lat="51.02989006521602" lon="3.7225773318424924"><ele>9.8</ele><time>2026-05-03T11:23:06.999Z</time></trkpt><trkpt lat="51.02997585952407" lon="3.7225862773387446"><ele>9.6</ele><time>2026-05-03T11:23:21.998Z</time></trkpt><trkpt lat="51.03005088309055" lon="3.7225989548922884"><ele>9.4</ele><time>2026-05-03T11:23:22.998Z</time></trkpt><trkpt lat="51.03014567441627" lon="3.7226114145185516"><ele>9.2</ele><time>2026-05-03T11:23:23.998Z</time></trkpt><trkpt lat="51.030248056374134" lon="3.7226222408171865"><ele>9.0</ele><time>2026-05-03T11:23:24.998Z</time></trkpt><trkpt lat="51.03034641915262" lon="3.722628425819849"><ele>9.0</ele><time>2026-05-03T11:23:25.998Z</time></trkpt><trkpt lat="51.030439711763286" lon="3.7226340761853827"><ele>9.0</ele><time>2026-05-03T11:23:26.998Z</time></trkpt><trkpt lat="51.030543787763854" lon="3.7226434214061985"><ele>9.0</ele><time>2026-05-03T11:23:27.998Z</time></trkpt><trkpt lat="51.030651311580115" lon="3.722659642092437"><ele>9.0</ele><time>2026-05-03T11:23:28.998Z</time></trkpt><trkpt lat="51.03076127245282" lon="3.722688204910353"><ele>9.0</ele><time>2026-05-03T11:23:29.998Z</time></trkpt><trkpt lat="51.030874775600786" lon="3.7227324853060773"><ele>8.75</ele><time>2026-05-03T11:23:30.998Z</time></trkpt><trkpt lat="51.030989758896965" lon="3.7227821708039803"><ele>8.5</ele><time>2026-05-03T11:23:31.998Z</time></trkpt><trkpt lat="51.03110902427631" lon="3.7228430660564458"><ele>8.25</ele><time>2026-05-03T11:23:32.998Z</time></trkpt><trkpt lat="51.03123224985044" lon="3.7229051453726005"><ele>8.0</ele><time>2026-05-03T11:23:33.998Z</time></trkpt><trkpt lat="51.031359758868966" lon="3.7229771840935566"><ele>8.0</ele><time>2026-05-03T11:23:34.998Z</time></trkpt><trkpt lat="51.03148359068867" lon="3.7230539329208745"><ele>8.0</ele><time>2026-05-03T11:23:35.998Z</time></trkpt><trkpt lat="51.03160593217774" lon="3.723134487982791"><ele>8.0</ele><time>2026-05-03T11:23:36.998Z</time></trkpt><trkpt lat="51.03172192384409" lon="3.7232092996836386"><ele>8.0</ele><time>2026-05-03T11:23:37.998Z</time></trkpt><trkpt lat="51.0318314920862" lon="3.723284166447391"><ele>8.0</ele><time>2026-05-03T11:23:38.998Z</time></trkpt><trkpt lat="51.03193286917471" lon="3.7233538595369247"><ele>8.0</ele><time>2026-05-03T11:23:39.998Z</time></trkpt><trkpt lat="51.03202506791377" lon="3.723421903745493"><ele>8.0</ele><time>2026-05-03T11:23:40.998Z</time></trkpt><trkpt lat="51.03211098372363" lon="3.723495435619442"><ele>8.0</ele><time>2026-05-03T11:23:41.998Z</time></trkpt><trkpt lat="51.03218782884517" lon="3.7235631125251523"><ele>8.0</ele><time>2026-05-03T11:23:42.998Z</time></trkpt><trkpt lat="51.03226296999089" lon="3.723625301624248"><ele>7.999999999999999</ele><time>2026-05-03T11:23:43.998Z</time></trkpt><trkpt lat="51.03233170190809" lon="3.723684538922201"><ele>8.0</ele><time>2026-05-03T11:23:44.998Z</time></trkpt><trkpt lat="51.03238988489313" lon="3.723732143360887"><ele>8.0</ele><time>2026-05-03T11:23:45.998Z</time></trkpt><trkpt lat="51.03244527030696" lon="3.723786106238862"><ele>8.0</ele><time>2026-05-03T11:23:46.998Z</time></trkpt><trkpt lat="51.03251301822852" lon="3.723816743947272"><ele>7.999999999999999</ele><time>2026-05-03T11:23:48.998Z</time></trkpt><trkpt lat="51.03244629628676" lon="3.723785439925325"><ele>8.0</ele><time>2026-05-03T11:23:49.998Z</time></trkpt><trkpt lat="51.03256052789189" lon="3.723631687995722"><ele>8.4</ele><time>2026-05-03T11:24:11Z</time></trkpt><trkpt lat="51.03258628938161" lon="3.7235151645029276"><ele>8.8</ele><time>2026-05-03T11:24:12Z</time></trkpt><trkpt lat="51.03263153490536" lon="3.723378478869434"><ele>9.2</ele><time>2026-05-03T11:24:13Z</time></trkpt><trkpt lat="51.03266044263535" lon="3.7232137726284753"><ele>9.6</ele><time>2026-05-03T11:24:14Z</time></trkpt><trkpt lat="51.03267507952353" lon="3.723060187370061"><ele>10.0</ele><time>2026-05-03T11:24:15Z</time></trkpt><trkpt lat="51.03270809708397" lon="3.722901462020642"><ele>9.75</ele><time>2026-05-03T11:24:16Z</time></trkpt><trkpt lat="51.03274572956848" lon="3.7227264154301207"><ele>9.5</ele><time>2026-05-03T11:24:17Z</time></trkpt><trkpt lat="51.03278770108419" lon="3.722533455799116"><ele>9.25</ele><time>2026-05-03T11:24:18Z</time></trkpt><trkpt lat="51.03282737831227" lon="3.7223490730207742"><ele>9.0</ele><time>2026-05-03T11:24:19Z</time></trkpt><trkpt lat="51.03286513579613" lon="3.722182764723123"><ele>9.0</ele><time>2026-05-03T11:24:20Z</time></trkpt><trkpt lat="51.03290052952998" lon="3.722036197809712"><ele>9.0</ele><time>2026-05-03T11:24:21Z</time></trkpt><trkpt lat="51.03293091912256" lon="3.721910478353228"><ele>9.0</ele><time>2026-05-03T11:24:22Z</time></trkpt><trkpt lat="51.03295806059254" lon="3.721807132718666"><ele>9.0</ele><time>2026-05-03T11:24:23Z</time></trkpt><trkpt lat="51.03299566062274" lon="3.7216593997932645"><ele>9.0</ele><time>2026-05-03T11:24:25Z</time></trkpt><trkpt lat="51.03302063194575" lon="3.721563503078699"><ele>9.0</ele><time>2026-05-03T11:24:27Z</time></trkpt><trkpt lat="51.033053116078854" lon="3.721459753931176"><ele>8.8</ele><time>2026-05-03T11:24:31Z</time></trkpt><trkpt lat="51.03307783925008" lon="3.7213398235834774"><ele>8.600000000000001</ele><time>2026-05-03T11:24:47.999Z</time></trkpt><trkpt lat="51.03311508923661" lon="3.721175005065096"><ele>8.4</ele><time>2026-05-03T11:24:49.999Z</time></trkpt><trkpt lat="51.03315391112261" lon="3.7209950211583616"><ele>8.200000000000001</ele><time>2026-05-03T11:24:51.999Z</time></trkpt><trkpt lat="51.03320190035291" lon="3.720821049869234"><ele>8.0</ele><time>2026-05-03T11:24:53.999Z</time></trkpt><trkpt lat="51.03324587155323" lon="3.7206732026369957"><ele>8.600000000000001</ele><time>2026-05-03T11:24:55.999Z</time></trkpt><trkpt lat="51.0333947543425" lon="3.720642880150059"><ele>9.200000000000001</ele><time>2026-05-03T11:24:57.999Z</time></trkpt><trkpt lat="51.033465357377615" lon="3.720632907383419"><ele>9.8</ele><time>2026-05-03T11:24:58.999Z</time></trkpt><trkpt lat="51.03354744121338" lon="3.720620687833051"><ele>10.4</ele><time>2026-05-03T11:24:59.999Z</time></trkpt><trkpt lat="51.033635946396295" lon="3.7206042565178197"><ele>11.0</ele><time>2026-05-03T11:25:00.999Z</time></trkpt><trkpt lat="51.033729809782926" lon="3.720584446017927"><ele>11.0</ele><time>2026-05-03T11:25:01.999Z</time></trkpt><trkpt lat="51.033816822598915" lon="3.7205670077188695"><ele>11.0</ele><time>2026-05-03T11:25:02.999Z</time></trkpt><trkpt lat="51.03389497551741" lon="3.7205482428530545"><ele>11.0</ele><time>2026-05-03T11:25:03.999Z</time></trkpt><trkpt lat="51.03397050894121" lon="3.720530218215424"><ele>11.0</ele><time>2026-05-03T11:25:04.999Z</time></trkpt><trkpt lat="51.03404247803493" lon="3.7205096095522006"><ele>11.0</ele><time>2026-05-03T11:25:05.999Z</time></trkpt><trkpt lat="51.0341120949314" lon="3.720486935606181"><ele>11.0</ele><time>2026-05-03T11:25:06.999Z</time></trkpt><trkpt lat="51.034179760850705" lon="3.7204665187866666"><ele>11.428571428571429</ele><time>2026-05-03T11:25:07.999Z</time></trkpt><trkpt lat="51.0342464081701" lon="3.7204412405012444"><ele>11.857142857142858</ele><time>2026-05-03T11:25:08.999Z</time></trkpt><trkpt lat="51.03431019077358" lon="3.7204147009903314"><ele>12.285714285714285</ele><time>2026-05-03T11:25:09.999Z</time></trkpt><trkpt lat="51.03437511089484" lon="3.7203880654863046"><ele>12.714285714285715</ele><time>2026-05-03T11:25:10.999Z</time></trkpt><trkpt lat="51.034440946686665" lon="3.7203588833499497"><ele>13.142857142857142</ele><time>2026-05-03T11:25:11.999Z</time></trkpt><trkpt lat="51.03450824583364" lon="3.7203325518242"><ele>13.571428571428571</ele><time>2026-05-03T11:25:12.999Z</time></trkpt><trkpt lat="51.03457058127144" lon="3.720305561134225"><ele>14.0</ele><time>2026-05-03T11:25:13.999Z</time></trkpt><trkpt lat="51.034683414570694" lon="3.7202524830843635"><ele>14.166666666666668</ele><time>2026-05-03T11:25:15.999Z</time></trkpt><trkpt lat="51.03478122175398" lon="3.720204330812702"><ele>14.333333333333334</ele><time>2026-05-03T11:25:17.999Z</time></trkpt><trkpt lat="51.03486416784951" lon="3.7201703272876685"><ele>14.5</ele><time>2026-05-03T11:25:19.999Z</time></trkpt><trkpt lat="51.03494139695576" lon="3.7201846295436707"><ele>14.666666666666668</ele><time>2026-05-03T11:25:21.999Z</time></trkpt><trkpt lat="51.034997839826126" lon="3.7202326236252"><ele>14.833333333333334</ele><time>2026-05-03T11:25:23.999Z</time></trkpt><trkpt lat="51.03506094466652" lon="3.720287426770463"><ele>15.0</ele><time>2026-05-03T11:25:26.999Z</time></trkpt><trkpt lat="51.035134856256775" lon="3.7201818342967976"><ele>15.333333333333334</ele><time>2026-05-03T11:25:29.998Z</time></trkpt><trkpt lat="51.03515267799118" lon="3.720020648434437"><ele>15.666666666666668</ele><time>2026-05-03T11:25:31.998Z</time></trkpt><trkpt lat="51.035168856188044" lon="3.7198241018344413"><ele>16.0</ele><time>2026-05-03T11:25:33.998Z</time></trkpt><trkpt lat="51.03518105151052" lon="3.719719884445563"><ele>16.333333333333336</ele><time>2026-05-03T11:25:34.998Z</time></trkpt><trkpt lat="51.035193381702186" lon="3.719613710260858"><ele>16.666666666666668</ele><time>2026-05-03T11:25:35.998Z</time></trkpt><trkpt lat="51.0352042886326" lon="3.719506457022641"><ele>17.0</ele><time>2026-05-03T11:25:36.998Z</time></trkpt><trkpt lat="51.03521320369728" lon="3.719403104356749"><ele>17.0</ele><time>2026-05-03T11:25:37.998Z</time></trkpt><trkpt lat="51.03521613609934" lon="3.719301163439103"><ele>17.0</ele><time>2026-05-03T11:25:38.998Z</time></trkpt><trkpt lat="51.03518861125557" lon="3.719209384769446"><ele>17.0</ele><time>2026-05-03T11:25:39.998Z</time></trkpt><trkpt lat="51.03525130892329" lon="3.7190977646444554"><ele>17.0</ele><time>2026-05-03T11:25:40.998Z</time></trkpt><trkpt lat="51.03528725494897" lon="3.71899688793089"><ele>17.0</ele><time>2026-05-03T11:25:41.998Z</time></trkpt><trkpt lat="51.03533107625955" lon="3.7188955485995536"><ele>17.0</ele><time>2026-05-03T11:25:42.998Z</time></trkpt><trkpt lat="51.03538149252363" lon="3.7187849293824855"><ele>17.0</ele><time>2026-05-03T11:25:43.998Z</time></trkpt><trkpt lat="51.035440798547484" lon="3.7186613434195523"><ele>17.0</ele><time>2026-05-03T11:25:44.998Z</time></trkpt><trkpt lat="51.03550478776779" lon="3.718532923536614"><ele>17.0</ele><time>2026-05-03T11:25:45.998Z</time></trkpt><trkpt lat="51.035580645393416" lon="3.7183921860065583"><ele>17.0</ele><time>2026-05-03T11:25:46.998Z</time></trkpt><trkpt lat="51.035655360536275" lon="3.718237627123964"><ele>17.0</ele><time>2026-05-03T11:25:47.998Z</time></trkpt><trkpt lat="51.03573382391568" lon="3.718075897179246"><ele>17.25</ele><time>2026-05-03T11:25:48.998Z</time></trkpt><trkpt lat="51.03581556843675" lon="3.7179082891725694"><ele>17.5</ele><time>2026-05-03T11:25:49.998Z</time></trkpt><trkpt lat="51.03589783710103" lon="3.7177373972540897"><ele>17.75</ele><time>2026-05-03T11:25:50.998Z</time></trkpt><trkpt lat="51.035965271751756" lon="3.7175687279908605"><ele>18.0</ele><time>2026-05-03T11:25:51.998Z</time></trkpt><trkpt lat="51.03603906719325" lon="3.717411167843107"><ele>18.0</ele><time>2026-05-03T11:25:52.998Z</time></trkpt><trkpt lat="51.036108244396814" lon="3.717262911611237"><ele>18.0</ele><time>2026-05-03T11:25:53.998Z</time></trkpt><trkpt lat="51.0361710032267" lon="3.717119584303696"><ele>18.0</ele><time>2026-05-03T11:25:54.998Z</time></trkpt><trkpt lat="51.036228921302495" lon="3.7169879000882013"><ele>18.0</ele><time>2026-05-03T11:25:55.998Z</time></trkpt><trkpt lat="51.0362833689112" lon="3.7168742583194385"><ele>18.0</ele><time>2026-05-03T11:25:56.998Z</time></trkpt><trkpt lat="51.03633157839317" lon="3.7167695360205313"><ele>17.666666666666668</ele><time>2026-05-03T11:25:57.998Z</time></trkpt><trkpt lat="51.036391552605174" lon="3.7166762156388122"><ele>17.333333333333332</ele><time>2026-05-03T11:25:58.998Z</time></trkpt><trkpt lat="51.03647616061217" lon="3.716537505840171"><ele>17.0</ele><time>2026-05-03T11:26:00.998Z</time></trkpt><trkpt lat="51.0365006237465" lon="3.7164186772141563"><ele>16.666666666666664</ele><time>2026-05-03T11:26:02.998Z</time></trkpt><trkpt lat="51.036524997827165" lon="3.7163108970385563"><ele>16.333333333333332</ele><time>2026-05-03T11:26:05.998Z</time></trkpt><trkpt lat="51.0366106070725" lon="3.7162518767467994"><ele>16.0</ele><time>2026-05-03T11:26:07.998Z</time></trkpt><trkpt lat="51.03668442261458" lon="3.716220712778901"><ele>16.0</ele><time>2026-05-03T11:26:08.998Z</time></trkpt><trkpt lat="51.03676563922007" lon="3.7161774855369862"><ele>16.0</ele><time>2026-05-03T11:26:09.998Z</time></trkpt><trkpt lat="51.03685489576566" lon="3.71611926885057"><ele>16.0</ele><time>2026-05-03T11:26:10.998Z</time></trkpt><trkpt lat="51.03695492630813" lon="3.7160457811641767"><ele>16.0</ele><time>2026-05-03T11:26:11.998Z</time></trkpt><trkpt lat="51.037063136006445" lon="3.715956113021941"><ele>16.0</ele><time>2026-05-03T11:26:12.998Z</time></trkpt><trkpt lat="51.03716498587632" lon="3.715870225903037"><ele>15.999999999999998</ele><time>2026-05-03T11:26:13.998Z</time></trkpt><trkpt lat="51.03725866298402" lon="3.7157964712164464"><ele>16.0</ele><time>2026-05-03T11:26:15Z</time></trkpt><trkpt lat="51.037347247966785" lon="3.715722987904176"><ele>16.0</ele><time>2026-05-03T11:26:16Z</time></trkpt><trkpt lat="51.03742632366615" lon="3.7156578618390417"><ele>16.0</ele><time>2026-05-03T11:26:17Z</time></trkpt><trkpt lat="51.03749618116243" lon="3.715601663170372"><ele>15.999999999999998</ele><time>2026-05-03T11:26:18Z</time></trkpt><trkpt lat="51.0375596498671" lon="3.7155589385310397"><ele>16.0</ele><time>2026-05-03T11:26:19Z</time></trkpt><trkpt lat="51.037622248949184" lon="3.71553305581769"><ele>16.0</ele><time>2026-05-03T11:26:20Z</time></trkpt><trkpt lat="51.037712581910185" lon="3.7155226914117274"><ele>16.0</ele><time>2026-05-03T11:26:22Z</time></trkpt><trkpt lat="51.037771269887955" lon="3.7154737961241837"><ele>16.0</ele><time>2026-05-03T11:26:24Z</time></trkpt><trkpt lat="51.03776771345052" lon="3.715323205167316"><ele>16.0</ele><time>2026-05-03T11:26:27Z</time></trkpt><trkpt lat="51.037741420251066" lon="3.715177609596948"><ele>16.0</ele><time>2026-05-03T11:26:29Z</time></trkpt><trkpt lat="51.037668883780285" lon="3.7150193843402466"><ele>15.833333333333332</ele><time>2026-05-03T11:26:31Z</time></trkpt><trkpt lat="51.037637691145356" lon="3.714919823031256"><ele>15.666666666666666</ele><time>2026-05-03T11:26:32Z</time></trkpt><trkpt lat="51.03761502371619" lon="3.714818359946744"><ele>15.5</ele><time>2026-05-03T11:26:33Z</time></trkpt><trkpt lat="51.03759533425044" lon="3.7147211175274464"><ele>15.333333333333332</ele><time>2026-05-03T11:26:34Z</time></trkpt><trkpt lat="51.03754308065208" lon="3.7145403284509695"><ele>15.166666666666666</ele><time>2026-05-03T11:26:36Z</time></trkpt><trkpt lat="51.037509612389066" lon="3.7144509846141194"><ele>15.0</ele><time>2026-05-03T11:26:37Z</time></trkpt><trkpt lat="51.0374831243213" lon="3.714359149040918"><ele>14.714285714285715</ele><time>2026-05-03T11:26:38Z</time></trkpt><trkpt lat="51.03745357653404" lon="3.714267899874916"><ele>14.428571428571427</ele><time>2026-05-03T11:26:39Z</time></trkpt><trkpt lat="51.03742365489905" lon="3.7141777280324764"><ele>14.142857142857142</ele><time>2026-05-03T11:26:39.999Z</time></trkpt><trkpt lat="51.0373934553647" lon="3.71408870158873"><ele>13.857142857142858</ele><time>2026-05-03T11:26:40.999Z</time></trkpt><trkpt lat="51.037359323486385" lon="3.714003012610569"><ele>13.571428571428573</ele><time>2026-05-03T11:26:41.999Z</time></trkpt><trkpt lat="51.0373183818242" lon="3.713919839343212"><ele>13.285714285714285</ele><time>2026-05-03T11:26:42.999Z</time></trkpt><trkpt lat="51.03724108809294" lon="3.713784670706902"><ele>13.0</ele><time>2026-05-03T11:26:44.999Z</time></trkpt><trkpt lat="51.03720269460915" lon="3.713621610107344"><ele>12.4</ele><time>2026-05-03T11:26:46.999Z</time></trkpt><trkpt lat="51.03713666097692" lon="3.7134836059673653"><ele>11.8</ele><time>2026-05-03T11:26:48.999Z</time></trkpt><trkpt lat="51.03710280762958" lon="3.7133276945479157"><ele>11.2</ele><time>2026-05-03T11:26:50.999Z</time></trkpt><trkpt lat="51.03704367310326" lon="3.7131519593987976"><ele>10.6</ele><time>2026-05-03T11:26:52.999Z</time></trkpt><trkpt lat="51.036999294354224" lon="3.713032457665955"><ele>10.0</ele><time>2026-05-03T11:26:53.999Z</time></trkpt><trkpt lat="51.0369586528325" lon="3.712917858598564"><ele>10.0</ele><time>2026-05-03T11:26:54.999Z</time></trkpt><trkpt lat="51.03692130546394" lon="3.7128069160553374"><ele>10.0</ele><time>2026-05-03T11:26:55.999Z</time></trkpt><trkpt lat="51.0368854661837" lon="3.7127053404607495"><ele>10.0</ele><time>2026-05-03T11:26:56.999Z</time></trkpt><trkpt lat="51.036849455667394" lon="3.7125976592257564"><ele>10.0</ele><time>2026-05-03T11:26:57.999Z</time></trkpt><trkpt lat="51.036816829304875" lon="3.712501789233419"><ele>10.0</ele><time>2026-05-03T11:26:58.999Z</time></trkpt><trkpt lat="51.03678938568879" lon="3.712411585298211"><ele>10.0</ele><time>2026-05-03T11:26:59.999Z</time></trkpt><trkpt lat="51.03677911593358" lon="3.7122290909656503"><ele>10.0</ele><time>2026-05-03T11:27:01.999Z</time></trkpt><trkpt lat="51.0367913665028" lon="3.712124165822856"><ele>10.0</ele><time>2026-05-03T11:27:03.999Z</time></trkpt><trkpt lat="51.03684559612505" lon="3.712026470970097"><ele>10.0</ele><time>2026-05-03T11:27:06.999Z</time></trkpt><trkpt lat="51.03694954503163" lon="3.7118688129662556"><ele>10.0</ele><time>2026-05-03T11:27:08.999Z</time></trkpt><trkpt lat="51.03701510231028" lon="3.7117703566732203"><ele>10.0</ele><time>2026-05-03T11:27:09.999Z</time></trkpt><trkpt lat="51.037087758608486" lon="3.7116581137715756"><ele>10.0</ele><time>2026-05-03T11:27:10.999Z</time></trkpt><trkpt lat="51.03715772504031" lon="3.7115807934758602"><ele>10.0</ele><time>2026-05-03T11:27:11.999Z</time></trkpt><trkpt lat="51.037221094193825" lon="3.7115097154016157"><ele>10.0</ele><time>2026-05-03T11:27:12.999Z</time></trkpt><trkpt lat="51.037286606079505" lon="3.711449714742091"><ele>10.0</ele><time>2026-05-03T11:27:13.999Z</time></trkpt><trkpt lat="51.0373509293054" lon="3.711408910519668"><ele>10.0</ele><time>2026-05-03T11:27:14.999Z</time></trkpt><trkpt lat="51.03742318276113" lon="3.7113750070047744"><ele>10.0</ele><time>2026-05-03T11:27:15.999Z</time></trkpt><trkpt lat="51.03750157522667" lon="3.711355093494225"><ele>10.2</ele><time>2026-05-03T11:27:16.999Z</time></trkpt><trkpt lat="51.03758246405405" lon="3.711315943848181"><ele>10.4</ele><time>2026-05-03T11:27:17.999Z</time></trkpt><trkpt lat="51.037667494326165" lon="3.711247005330983"><ele>10.600000000000001</ele><time>2026-05-03T11:27:18.999Z</time></trkpt><trkpt lat="51.03776204510204" lon="3.711152510894938"><ele>10.8</ele><time>2026-05-03T11:27:19.999Z</time></trkpt><trkpt lat="51.037872180961706" lon="3.7110548938390666"><ele>11.0</ele><time>2026-05-03T11:27:20.999Z</time></trkpt><trkpt lat="51.03799638128638" lon="3.710966844626768"><ele>11.0</ele><time>2026-05-03T11:27:21.999Z</time></trkpt><trkpt lat="51.03811811957008" lon="3.7109018060482617"><ele>11.0</ele><time>2026-05-03T11:27:22.999Z</time></trkpt><trkpt lat="51.03822853200885" lon="3.7108357041941473"><ele>11.0</ele><time>2026-05-03T11:27:23.999Z</time></trkpt><trkpt lat="51.03833424925184" lon="3.7107700483362014"><ele>11.0</ele><time>2026-05-03T11:27:24.999Z</time></trkpt><trkpt lat="51.038457362407" lon="3.7107264050690656"><ele>11.25</ele><time>2026-05-03T11:27:25.999Z</time></trkpt><trkpt lat="51.038583376181435" lon="3.710667764616284"><ele>11.5</ele><time>2026-05-03T11:27:26.999Z</time></trkpt><trkpt lat="51.0387209085057" lon="3.710609648819276"><ele>11.75</ele><time>2026-05-03T11:27:27.999Z</time></trkpt><trkpt lat="51.03885354926281" lon="3.7105525374895767"><ele>12.0</ele><time>2026-05-03T11:27:28.999Z</time></trkpt><trkpt lat="51.038981770925304" lon="3.710504342722892"><ele>12.0</ele><time>2026-05-03T11:27:29.999Z</time></trkpt><trkpt lat="51.03910394558842" lon="3.7104597966089083"><ele>12.0</ele><time>2026-05-03T11:27:30.999Z</time></trkpt><trkpt lat="51.03922829215864" lon="3.7104346421065695"><ele>12.0</ele><time>2026-05-03T11:27:31.999Z</time></trkpt><trkpt lat="51.039349619314805" lon="3.7104196880842113"><ele>12.0</ele><time>2026-05-03T11:27:32.999Z</time></trkpt><trkpt lat="51.03947584335084" lon="3.7103874758133477"><ele>11.0</ele><time>2026-05-03T11:27:33.999Z</time></trkpt><trkpt lat="51.039597509543434" lon="3.7103646281417033"><ele>10.0</ele><time>2026-05-03T11:27:34.999Z</time></trkpt><trkpt lat="51.039715067140726" lon="3.7103427223358705"><ele>9.0</ele><time>2026-05-03T11:27:35.999Z</time></trkpt><trkpt lat="51.03982607977257" lon="3.7103246471330453"><ele>8.0</ele><time>2026-05-03T11:27:36.998Z</time></trkpt><trkpt lat="51.03992888307189" lon="3.710312737754986"><ele>8.166666666666666</ele><time>2026-05-03T11:27:37.998Z</time></trkpt><trkpt lat="51.040033455456836" lon="3.710294162763545"><ele>8.333333333333332</ele><time>2026-05-03T11:27:38.998Z</time></trkpt><trkpt lat="51.04012856642184" lon="3.7102822176609935"><ele>8.5</ele><time>2026-05-03T11:27:39.998Z</time></trkpt><trkpt lat="51.04021576387742" lon="3.7102777980316186"><ele>8.666666666666666</ele><time>2026-05-03T11:27:40.998Z</time></trkpt><trkpt lat="51.040291516473474" lon="3.7102686562858933"><ele>8.833333333333334</ele><time>2026-05-03T11:27:41.998Z</time></trkpt><trkpt lat="51.04036606754953" lon="3.7102689886607156"><ele>9.0</ele><time>2026-05-03T11:27:42.998Z</time></trkpt><trkpt lat="51.040441559474374" lon="3.7102708882054274"><ele>9.0</ele><time>2026-05-03T11:27:43.998Z</time></trkpt><trkpt lat="51.04052250583212" lon="3.710278193938003"><ele>9.0</ele><time>2026-05-03T11:27:44.998Z</time></trkpt><trkpt lat="51.04059912612007" lon="3.7102709034467236"><ele>9.0</ele><time>2026-05-03T11:27:45.998Z</time></trkpt><trkpt lat="51.04067779582926" lon="3.7102484253601133"><ele>9.0</ele><time>2026-05-03T11:27:46.998Z</time></trkpt><trkpt lat="51.040760194380255" lon="3.7102373346402846"><ele>9.0</ele><time>2026-05-03T11:27:47.998Z</time></trkpt><trkpt lat="51.04084505158308" lon="3.7102292196440274"><ele>9.0</ele><time>2026-05-03T11:27:48.998Z</time></trkpt><trkpt lat="51.040931672284486" lon="3.710226833063706"><ele>9.166666666666666</ele><time>2026-05-03T11:27:49.998Z</time></trkpt><trkpt lat="51.04101305550711" lon="3.7102192173977504"><ele>9.333333333333334</ele><time>2026-05-03T11:27:50.998Z</time></trkpt><trkpt lat="51.04110157795516" lon="3.710238907582505"><ele>9.5</ele><time>2026-05-03T11:27:51.998Z</time></trkpt><trkpt lat="51.041186728521964" lon="3.710250732544743"><ele>9.666666666666668</ele><time>2026-05-03T11:27:52.998Z</time></trkpt><trkpt lat="51.04127352519005" lon="3.7102617602330694"><ele>9.833333333333334</ele><time>2026-05-03T11:27:53.998Z</time></trkpt><trkpt lat="51.041360948300785" lon="3.710277664227329"><ele>10.0</ele><time>2026-05-03T11:27:54.998Z</time></trkpt><trkpt lat="51.041450120298904" lon="3.710297859862979"><ele>10.0</ele><time>2026-05-03T11:27:55.998Z</time></trkpt><trkpt lat="51.04153840381052" lon="3.710318408962052"><ele>10.0</ele><time>2026-05-03T11:27:56.998Z</time></trkpt><trkpt lat="51.04163227027382" lon="3.710344774202245"><ele>10.0</ele><time>2026-05-03T11:27:57.998Z</time></trkpt><trkpt lat="51.041722367121466" lon="3.7103773973628056"><ele>10.0</ele><time>2026-05-03T11:27:58.998Z</time></trkpt><trkpt lat="51.04180326618518" lon="3.7104173632072843"><ele>10.0</ele><time>2026-05-03T11:27:59.998Z</time></trkpt><trkpt lat="51.04187959688794" lon="3.710457134692869"><ele>10.0</ele><time>2026-05-03T11:28:00.998Z</time></trkpt><trkpt lat="51.04195046831837" lon="3.7104969105181445"><ele>10.333333333333334</ele><time>2026-05-03T11:28:01.998Z</time></trkpt><trkpt lat="51.042016105474914" lon="3.710536625210562"><ele>10.666666666666668</ele><time>2026-05-03T11:28:02.998Z</time></trkpt><trkpt lat="51.042077283363035" lon="3.710571463088989"><ele>11.0</ele><time>2026-05-03T11:28:03.998Z</time></trkpt><trkpt lat="51.042180046562535" lon="3.7106440439094053"><ele>11.333333333333334</ele><time>2026-05-03T11:28:05.998Z</time></trkpt><trkpt lat="51.04227453749334" lon="3.710713199674351"><ele>11.666666666666666</ele><time>2026-05-03T11:28:07.998Z</time></trkpt><trkpt lat="51.042335760898155" lon="3.7107555624209345"><ele>12.0</ele><time>2026-05-03T11:28:10.998Z</time></trkpt><trkpt lat="51.0424144315484" lon="3.7106609756453817"><ele>12.0</ele><time>2026-05-03T11:28:11.998Z</time></trkpt><trkpt lat="51.04240945153294" lon="3.7104818105786506"><ele>12.0</ele><time>2026-05-03T11:28:13.998Z</time></trkpt><trkpt lat="51.04224737805065" lon="3.710510806924228"><ele>12.0</ele><time>2026-05-03T11:28:14.998Z</time></trkpt><trkpt lat="51.042176912203026" lon="3.7104639954091017"><ele>12.0</ele><time>2026-05-03T11:28:15.998Z</time></trkpt><trkpt lat="51.04210981918776" lon="3.710421999720868"><ele>12.0</ele><time>2026-05-03T11:28:16.998Z</time></trkpt><trkpt lat="51.04200953542219" lon="3.71034907006203"><ele>12.0</ele><time>2026-05-03T11:28:18.998Z</time></trkpt><trkpt lat="51.04194917508697" lon="3.710305167744035"><ele>12.0</ele><time>2026-05-03T11:28:21.999Z</time></trkpt></trkseg></trk></gpx>